Wetterdaten: Freitag, 06.09.2024
Datum Zeit Temp. I. Temp. A. Feuchte I. Feuchte A. Luftdruck Regen Wind Richtung Richtung Sonnenschein Solar Taupunkt Windchill Windböen
06.09.2024 00:00 24,3 °C 24,2 °C 57 % 51 % 1011,9 hPa 0,0 l/m² 8,0 km/h (2 Bft) O-NO 67 ° 0 min 0 W/m² 13,4 °C 23,8 °C 16,1 km/h (3 Bft)
06.09.2024 00:01 24,3 °C 24,1 °C 57 % 51 % 1011,9 hPa 0,0 l/m² 11,3 km/h (2 Bft) O-NO 67 ° 0 min 0 W/m² 13,3 °C 22,9 °C 17,7 km/h (3 Bft)
06.09.2024 00:02 24,3 °C 24,1 °C 57 % 51 % 1011,9 hPa 0,0 l/m² 9,7 km/h (2 Bft) O 90 ° 0 min 0 W/m² 13,3 °C 23,2 °C 16,1 km/h (3 Bft)
06.09.2024 00:03 24,3 °C 24,1 °C 57 % 51 % 1011,9 hPa 0,0 l/m² 11,3 km/h (2 Bft) O 90 ° 0 min 0 W/m² 13,3 °C 22,9 °C 17,7 km/h (3 Bft)
06.09.2024 00:04 24,2 °C 24,1 °C 57 % 51 % 1011,9 hPa 0,0 l/m² 11,3 km/h (2 Bft) O 90 ° 0 min 0 W/m² 13,3 °C 22,9 °C 17,7 km/h (3 Bft)
06.09.2024 00:05 24,3 °C 24,1 °C 57 % 51 % 1011,9 hPa 0,0 l/m² 8,0 km/h (2 Bft) O-NO 67 ° 0 min 0 W/m² 13,3 °C 23,7 °C 14,5 km/h (3 Bft)
06.09.2024 00:06 24,3 °C 24,1 °C 57 % 51 % 1011,9 hPa 0,0 l/m² 11,3 km/h (2 Bft) O 90 ° 0 min 0 W/m² 13,3 °C 22,9 °C 17,7 km/h (3 Bft)
06.09.2024 00:07 24,3 °C 24,1 °C 57 % 51 % 1012,0 hPa 0,0 l/m² 11,3 km/h (2 Bft) O-NO 67 ° 0 min 0 W/m² 13,3 °C 22,9 °C 22,5 km/h (4 Bft)
06.09.2024 00:08 24,3 °C 24,1 °C 57 % 51 % 1012,0 hPa 0,0 l/m² 12,9 km/h (3 Bft) O 90 ° 0 min 0 W/m² 13,3 °C 22,6 °C 16,1 km/h (3 Bft)
06.09.2024 00:09 24,3 °C 24,1 °C 57 % 51 % 1011,9 hPa 0,0 l/m² 9,7 km/h (2 Bft) O 90 ° 0 min 0 W/m² 13,3 °C 23,2 °C 16,1 km/h (3 Bft)
06.09.2024 00:10 24,3 °C 24,1 °C 57 % 51 % 1012,0 hPa 0,0 l/m² 11,3 km/h (2 Bft) O-NO 67 ° 0 min 0 W/m² 13,3 °C 22,9 °C 17,7 km/h (3 Bft)
06.09.2024 00:11 24,3 °C 24,0 °C 56 % 51 % 1012,0 hPa 0,0 l/m² 11,3 km/h (2 Bft) O 90 ° 0 min 0 W/m² 13,2 °C 22,8 °C 16,1 km/h (3 Bft)
06.09.2024 00:12 24,2 °C 24,0 °C 57 % 51 % 1012,0 hPa 0,0 l/m² 9,7 km/h (2 Bft) O-NO 67 ° 0 min 0 W/m² 13,2 °C 23,1 °C 16,1 km/h (3 Bft)
06.09.2024 00:13 24,3 °C 23,9 °C 56 % 51 % 1011,9 hPa 0,0 l/m² 12,9 km/h (3 Bft) O 90 ° 0 min 0 W/m² 13,1 °C 22,3 °C 17,7 km/h (3 Bft)
06.09.2024 00:14 24,2 °C 23,9 °C 56 % 51 % 1011,9 hPa 0,0 l/m² 9,7 km/h (2 Bft) O-NO 67 ° 0 min 0 W/m² 13,1 °C 23,0 °C 16,1 km/h (3 Bft)
06.09.2024 00:15 24,3 °C 23,9 °C 56 % 51 % 1012,0 hPa 0,0 l/m² 14,5 km/h (3 Bft) O-NO 67 ° 0 min 0 W/m² 13,1 °C 22,1 °C 20,9 km/h (4 Bft)
06.09.2024 00:16 24,2 °C 23,9 °C 56 % 51 % 1011,9 hPa 0,0 l/m² 11,3 km/h (2 Bft) O-NO 67 ° 0 min 0 W/m² 13,1 °C 22,7 °C 20,9 km/h (4 Bft)
06.09.2024 00:17 24,2 °C 23,9 °C 56 % 51 % 1012,0 hPa 0,0 l/m² 12,9 km/h (3 Bft) O 90 ° 0 min 0 W/m² 13,1 °C 22,3 °C 17,7 km/h (3 Bft)
06.09.2024 00:18 24,2 °C 23,9 °C 56 % 51 % 1012,0 hPa 0,0 l/m² 11,3 km/h (2 Bft) O-NO 67 ° 0 min 0 W/m² 13,1 °C 22,7 °C 19,3 km/h (3 Bft)
06.09.2024 00:19 24,3 °C 23,8 °C 56 % 51 % 1012,0 hPa 0,0 l/m² 12,9 km/h (3 Bft) O-NO 67 ° 0 min 0 W/m² 13,0 °C 22,2 °C 17,7 km/h (3 Bft)
06.09.2024 00:20 24,2 °C 23,8 °C 56 % 51 % 1012,0 hPa 0,0 l/m² 9,7 km/h (2 Bft) O-NO 67 ° 0 min 0 W/m² 13,0 °C 22,9 °C 14,5 km/h (3 Bft)
06.09.2024 00:21 24,2 °C 23,8 °C 56 % 51 % 1012,0 hPa 0,0 l/m² 8,0 km/h (2 Bft) O-NO 67 ° 0 min 0 W/m² 13,0 °C 23,3 °C 12,9 km/h (3 Bft)
06.09.2024 00:22 24,2 °C 23,8 °C 56 % 51 % 1012,0 hPa 0,0 l/m² 11,3 km/h (2 Bft) O-NO 67 ° 0 min 0 W/m² 13,0 °C 22,6 °C 14,5 km/h (3 Bft)
06.09.2024 00:23 24,2 °C 23,8 °C 56 % 51 % 1011,9 hPa 0,0 l/m² 14,5 km/h (3 Bft) O 90 ° 0 min 0 W/m² 13,0 °C 21,9 °C 22,5 km/h (4 Bft)
06.09.2024 00:24 24,2 °C 23,8 °C 56 % 51 % 1012,0 hPa 0,0 l/m² 11,3 km/h (2 Bft) O 90 ° 0 min 0 W/m² 13,0 °C 22,6 °C 16,1 km/h (3 Bft)
06.09.2024 00:25 24,2 °C 23,8 °C 56 % 51 % 1012,0 hPa 0,0 l/m² 9,7 km/h (2 Bft) O 90 ° 0 min 0 W/m² 13,0 °C 22,9 °C 14,5 km/h (3 Bft)
06.09.2024 00:26 24,2 °C 23,8 °C 56 % 51 % 1012,0 hPa 0,0 l/m² 11,3 km/h (2 Bft) O-NO 67 ° 0 min 0 W/m² 13,0 °C 22,6 °C 16,1 km/h (3 Bft)
06.09.2024 00:27 24,2 °C 23,8 °C 56 % 51 % 1012,0 hPa 0,0 l/m² 11,3 km/h (2 Bft) O 90 ° 0 min 0 W/m² 13,0 °C 22,6 °C 16,1 km/h (3 Bft)
06.09.2024 00:28 24,2 °C 23,7 °C 56 % 51 % 1012,0 hPa 0,0 l/m² 11,3 km/h (2 Bft) O 90 ° 0 min 0 W/m² 13,0 °C 22,4 °C 14,5 km/h (3 Bft)
06.09.2024 00:29 24,2 °C 23,7 °C 56 % 51 % 1011,9 hPa 0,0 l/m² 8,0 km/h (2 Bft) O-NO 67 ° 0 min 0 W/m² 13,0 °C 23,2 °C 12,9 km/h (3 Bft)
06.09.2024 00:30 24,2 °C 23,7 °C 56 % 51 % 1012,0 hPa 0,0 l/m² 8,0 km/h (2 Bft) O 90 ° 0 min 0 W/m² 13,0 °C 23,2 °C 11,3 km/h (2 Bft)
06.09.2024 00:31 24,2 °C 23,6 °C 56 % 51 % 1012,0 hPa 0,0 l/m² 9,7 km/h (2 Bft) O 90 ° 0 min 0 W/m² 12,9 °C 22,7 °C 12,9 km/h (3 Bft)
06.09.2024 00:32 24,2 °C 23,6 °C 56 % 51 % 1012,0 hPa 0,0 l/m² 12,9 km/h (3 Bft) O 90 ° 0 min 0 W/m² 12,9 °C 22,0 °C 20,9 km/h (4 Bft)
06.09.2024 00:33 24,2 °C 23,6 °C 56 % 52 % 1011,9 hPa 0,0 l/m² 8,0 km/h (2 Bft) O-NO 67 ° 0 min 0 W/m² 13,2 °C 23,1 °C 12,9 km/h (3 Bft)
06.09.2024 00:34 24,2 °C 23,6 °C 56 % 52 % 1012,0 hPa 0,0 l/m² 9,7 km/h (2 Bft) O 90 ° 0 min 0 W/m² 13,2 °C 22,7 °C 16,1 km/h (3 Bft)
06.09.2024 00:35 24,2 °C 23,5 °C 56 % 51 % 1012,0 hPa 0,0 l/m² 6,4 km/h (2 Bft) O-NO 67 ° 0 min 0 W/m² 12,8 °C 23,5 °C 11,3 km/h (2 Bft)
06.09.2024 00:36 24,2 °C 23,5 °C 56 % 51 % 1011,9 hPa 0,0 l/m² 8,0 km/h (2 Bft) O 90 ° 0 min 0 W/m² 12,8 °C 23,0 °C 14,5 km/h (3 Bft)
06.09.2024 00:37 24,2 °C 23,4 °C 56 % 51 % 1011,9 hPa 0,0 l/m² 9,7 km/h (2 Bft) O-NO 67 ° 0 min 0 W/m² 12,7 °C 22,5 °C 12,9 km/h (3 Bft)
06.09.2024 00:38 24,2 °C 23,4 °C 56 % 51 % 1012,0 hPa 0,0 l/m² 11,3 km/h (2 Bft) O-NO 67 ° 0 min 0 W/m² 12,7 °C 22,1 °C 17,7 km/h (3 Bft)
06.09.2024 00:39 24,2 °C 23,4 °C 56 % 51 % 1011,9 hPa 0,0 l/m² 9,7 km/h (2 Bft) O-NO 67 ° 0 min 0 W/m² 12,7 °C 22,5 °C 17,7 km/h (3 Bft)
06.09.2024 00:40 24,2 °C 23,4 °C 56 % 51 % 1011,9 hPa 0,0 l/m² 11,3 km/h (2 Bft) O-NO 67 ° 0 min 0 W/m² 12,7 °C 22,1 °C 17,7 km/h (3 Bft)
06.09.2024 00:41 24,2 °C 23,4 °C 56 % 51 % 1012,0 hPa 0,0 l/m² 11,3 km/h (2 Bft) O 90 ° 0 min 0 W/m² 12,7 °C 22,1 °C 14,5 km/h (3 Bft)
06.09.2024 00:42 24,2 °C 23,4 °C 56 % 51 % 1012,0 hPa 0,0 l/m² 8,0 km/h (2 Bft) O-NO 67 ° 0 min 0 W/m² 12,7 °C 22,9 °C 12,9 km/h (3 Bft)
06.09.2024 00:43 24,2 °C 23,4 °C 56 % 51 % 1012,0 hPa 0,0 l/m² 8,0 km/h (2 Bft) O 90 ° 0 min 0 W/m² 12,7 °C 22,9 °C 12,9 km/h (3 Bft)
06.09.2024 00:44 24,2 °C 23,4 °C 56 % 51 % 1011,9 hPa 0,0 l/m² 9,7 km/h (2 Bft) O-NO 67 ° 0 min 0 W/m² 12,7 °C 22,5 °C 16,1 km/h (3 Bft)
06.09.2024 00:45 24,2 °C 23,4 °C 56 % 51 % 1012,0 hPa 0,0 l/m² 8,0 km/h (2 Bft) O 90 ° 0 min 0 W/m² 12,7 °C 22,9 °C 12,9 km/h (3 Bft)
06.09.2024 00:46 24,2 °C 23,4 °C 56 % 51 % 1012,0 hPa 0,0 l/m² 12,9 km/h (3 Bft) O 90 ° 0 min 0 W/m² 12,7 °C 21,8 °C 16,1 km/h (3 Bft)
06.09.2024 00:47 24,2 °C 23,3 °C 56 % 51 % 1011,9 hPa 0,0 l/m² 9,7 km/h (2 Bft) O-NO 67 ° 0 min 0 W/m² 12,6 °C 22,4 °C 14,5 km/h (3 Bft)
06.09.2024 00:48 24,2 °C 23,3 °C 56 % 51 % 1011,9 hPa 0,0 l/m² 6,4 km/h (2 Bft) O-NO 67 ° 0 min 0 W/m² 12,6 °C 23,3 °C 12,9 km/h (3 Bft)
06.09.2024 00:49 24,2 °C 23,3 °C 56 % 51 % 1012,0 hPa 0,0 l/m² 9,7 km/h (2 Bft) O-NO 67 ° 0 min 0 W/m² 12,6 °C 22,4 °C 14,5 km/h (3 Bft)
06.09.2024 00:50 24,2 °C 23,3 °C 56 % 51 % 1011,9 hPa 0,0 l/m² 8,0 km/h (2 Bft) O-NO 67 ° 0 min 0 W/m² 12,6 °C 22,8 °C 14,5 km/h (3 Bft)
06.09.2024 00:51 24,2 °C 23,3 °C 56 % 51 % 1012,0 hPa 0,0 l/m² 11,3 km/h (2 Bft) O-NO 67 ° 0 min 0 W/m² 12,6 °C 22,0 °C 16,1 km/h (3 Bft)
06.09.2024 00:52 24,2 °C 23,3 °C 56 % 51 % 1012,0 hPa 0,0 l/m² 12,9 km/h (3 Bft) O 90 ° 0 min 0 W/m² 12,6 °C 21,6 °C 16,1 km/h (3 Bft)
06.09.2024 00:53 24,2 °C 23,3 °C 56 % 51 % 1012,0 hPa 0,0 l/m² 8,0 km/h (2 Bft) O-NO 67 ° 0 min 0 W/m² 12,6 °C 22,8 °C 12,9 km/h (3 Bft)
06.09.2024 00:54 24,2 °C 23,3 °C 56 % 51 % 1012,0 hPa 0,0 l/m² 16,1 km/h (3 Bft) O 90 ° 0 min 0 W/m² 12,6 °C 21,1 °C 20,9 km/h (4 Bft)
06.09.2024 00:55 24,2 °C 23,3 °C 56 % 51 % 1012,0 hPa 0,0 l/m² 9,7 km/h (2 Bft) O 90 ° 0 min 0 W/m² 12,6 °C 22,4 °C 12,9 km/h (3 Bft)
06.09.2024 00:56 24,2 °C 23,3 °C 56 % 51 % 1012,0 hPa 0,0 l/m² 9,7 km/h (2 Bft) O 90 ° 0 min 0 W/m² 12,6 °C 22,4 °C 12,9 km/h (3 Bft)
06.09.2024 00:57 24,2 °C 23,3 °C 56 % 51 % 1012,0 hPa 0,0 l/m² 11,3 km/h (2 Bft) O-NO 67 ° 0 min 0 W/m² 12,6 °C 22,0 °C 16,1 km/h (3 Bft)
06.09.2024 00:58 24,2 °C 23,3 °C 56 % 51 % 1012,0 hPa 0,0 l/m² 9,7 km/h (2 Bft) O 90 ° 0 min 0 W/m² 12,6 °C 22,4 °C 14,5 km/h (3 Bft)
06.09.2024 00:59 24,2 °C 23,2 °C 56 % 51 % 1012,1 hPa 0,0 l/m² 9,7 km/h (2 Bft) O 90 ° 0 min 0 W/m² 12,5 °C 22,3 °C 17,7 km/h (3 Bft)
06.09.2024 01:00 24,2 °C 23,2 °C 56 % 51 % 1012,0 hPa 0,0 l/m² 8,0 km/h (2 Bft) O-NO 67 ° 0 min 0 W/m² 12,5 °C 22,7 °C 14,5 km/h (3 Bft)
06.09.2024 01:01 24,2 °C 23,2 °C 56 % 51 % 1012,1 hPa 0,0 l/m² 8,0 km/h (2 Bft) O-NO 67 ° 0 min 0 W/m² 12,5 °C 22,7 °C 12,9 km/h (3 Bft)
06.09.2024 01:02 24,2 °C 23,2 °C 56 % 51 % 1012,1 hPa 0,0 l/m² 9,7 km/h (2 Bft) O-NO 67 ° 0 min 0 W/m² 12,5 °C 22,3 °C 16,1 km/h (3 Bft)
06.09.2024 01:03 24,2 °C 23,2 °C 56 % 52 % 1012,1 hPa 0,0 l/m² 11,3 km/h (2 Bft) O-NO 67 ° 0 min 0 W/m² 12,8 °C 21,9 °C 14,5 km/h (3 Bft)
06.09.2024 01:04 24,2 °C 23,2 °C 56 % 52 % 1012,0 hPa 0,0 l/m² 8,0 km/h (2 Bft) O 90 ° 0 min 0 W/m² 12,8 °C 22,7 °C 11,3 km/h (2 Bft)
06.09.2024 01:05 24,2 °C 23,1 °C 56 % 52 % 1012,1 hPa 0,0 l/m² 8,0 km/h (2 Bft) O-NO 67 ° 0 min 0 W/m² 12,7 °C 22,6 °C 14,5 km/h (3 Bft)
06.09.2024 01:06 24,2 °C 23,1 °C 56 % 52 % 1012,1 hPa 0,0 l/m² 8,0 km/h (2 Bft) O-NO 67 ° 0 min 0 W/m² 12,7 °C 22,6 °C 12,9 km/h (3 Bft)
06.09.2024 01:07 24,2 °C 23,1 °C 56 % 52 % 1012,1 hPa 0,0 l/m² 8,0 km/h (2 Bft) O-NO 67 ° 0 min 0 W/m² 12,7 °C 22,6 °C 17,7 km/h (3 Bft)
06.09.2024 01:08 24,2 °C 23,1 °C 56 % 52 % 1012,1 hPa 0,0 l/m² 9,7 km/h (2 Bft) O-NO 67 ° 0 min 0 W/m² 12,7 °C 22,1 °C 14,5 km/h (3 Bft)
06.09.2024 01:09 24,2 °C 23,1 °C 56 % 52 % 1012,0 hPa 0,0 l/m² 9,7 km/h (2 Bft) O 90 ° 0 min 0 W/m² 12,7 °C 22,1 °C 16,1 km/h (3 Bft)
06.09.2024 01:10 24,2 °C 23,0 °C 56 % 52 % 1012,1 hPa 0,0 l/m² 8,0 km/h (2 Bft) O-NO 67 ° 0 min 0 W/m² 12,6 °C 22,5 °C 16,1 km/h (3 Bft)
06.09.2024 01:11 24,2 °C 23,0 °C 56 % 52 % 1012,0 hPa 0,0 l/m² 8,0 km/h (2 Bft) O-NO 67 ° 0 min 0 W/m² 12,6 °C 22,5 °C 17,7 km/h (3 Bft)
06.09.2024 01:12 24,2 °C 23,0 °C 56 % 52 % 1012,1 hPa 0,0 l/m² 11,3 km/h (2 Bft) O-NO 67 ° 0 min 0 W/m² 12,6 °C 21,6 °C 14,5 km/h (3 Bft)
06.09.2024 01:13 24,2 °C 23,0 °C 56 % 52 % 1012,0 hPa 0,0 l/m² 9,7 km/h (2 Bft) NO 45 ° 0 min 0 W/m² 12,6 °C 22,0 °C 16,1 km/h (3 Bft)
06.09.2024 01:14 24,2 °C 23,0 °C 56 % 52 % 1012,0 hPa 0,0 l/m² 8,0 km/h (2 Bft) O 90 ° 0 min 0 W/m² 12,6 °C 22,5 °C 12,9 km/h (3 Bft)
06.09.2024 01:15 24,2 °C 23,0 °C 56 % 52 % 1012,0 hPa 0,0 l/m² 6,4 km/h (2 Bft) O-NO 67 ° 0 min 0 W/m² 12,6 °C 23,0 °C 16,1 km/h (3 Bft)
06.09.2024 01:16 24,2 °C 23,0 °C 56 % 52 % 1012,0 hPa 0,0 l/m² 9,7 km/h (2 Bft) O-NO 67 ° 0 min 0 W/m² 12,6 °C 22,0 °C 14,5 km/h (3 Bft)
06.09.2024 01:17 24,2 °C 22,9 °C 56 % 52 % 1012,0 hPa 0,0 l/m² 9,7 km/h (2 Bft) O 90 ° 0 min 0 W/m² 12,5 °C 21,9 °C 12,9 km/h (3 Bft)
06.09.2024 01:18 24,2 °C 23,0 °C 56 % 52 % 1012,1 hPa 0,0 l/m² 6,4 km/h (2 Bft) O-NO 67 ° 0 min 0 W/m² 12,6 °C 23,0 °C 12,9 km/h (3 Bft)
06.09.2024 01:19 24,2 °C 22,9 °C 56 % 52 % 1012,0 hPa 0,0 l/m² 11,3 km/h (2 Bft) O-NO 67 ° 0 min 0 W/m² 12,5 °C 21,5 °C 16,1 km/h (3 Bft)
06.09.2024 01:20 24,2 °C 22,9 °C 56 % 52 % 1012,0 hPa 0,0 l/m² 8,0 km/h (2 Bft) O-NO 67 ° 0 min 0 W/m² 12,5 °C 22,4 °C 14,5 km/h (3 Bft)
06.09.2024 01:21 24,2 °C 22,9 °C 56 % 52 % 1012,0 hPa 0,0 l/m² 9,7 km/h (2 Bft) O-NO 67 ° 0 min 0 W/m² 12,5 °C 21,9 °C 14,5 km/h (3 Bft)
06.09.2024 01:22 24,2 °C 22,9 °C 56 % 52 % 1012,0 hPa 0,0 l/m² 8,0 km/h (2 Bft) O 90 ° 0 min 0 W/m² 12,5 °C 22,4 °C 11,3 km/h (2 Bft)
06.09.2024 01:23 24,2 °C 22,9 °C 56 % 52 % 1012,0 hPa 0,0 l/m² 9,7 km/h (2 Bft) O 90 ° 0 min 0 W/m² 12,5 °C 21,9 °C 14,5 km/h (3 Bft)
06.09.2024 01:24 24,2 °C 22,9 °C 56 % 52 % 1012,0 hPa 0,0 l/m² 14,5 km/h (3 Bft) O-NO 67 ° 0 min 0 W/m² 12,5 °C 20,9 °C 17,7 km/h (3 Bft)
06.09.2024 01:25 24,2 °C 22,8 °C 56 % 52 % 1012,0 hPa 0,0 l/m² 9,7 km/h (2 Bft) O 90 ° 0 min 0 W/m² 12,4 °C 21,8 °C 14,5 km/h (3 Bft)
06.09.2024 01:26 24,2 °C 22,8 °C 56 % 52 % 1012,1 hPa 0,0 l/m² 8,0 km/h (2 Bft) O-NO 67 ° 0 min 0 W/m² 12,4 °C 22,3 °C 12,9 km/h (3 Bft)
06.09.2024 01:27 24,2 °C 22,8 °C 56 % 52 % 1012,1 hPa 0,0 l/m² 9,7 km/h (2 Bft) O 90 ° 0 min 0 W/m² 12,4 °C 21,8 °C 12,9 km/h (3 Bft)
06.09.2024 01:28 24,2 °C 22,8 °C 56 % 52 % 1012,0 hPa 0,0 l/m² 12,9 km/h (3 Bft) O 90 ° 0 min 0 W/m² 12,4 °C 21,1 °C 17,7 km/h (3 Bft)
06.09.2024 01:29 24,2 °C 22,8 °C 55 % 52 % 1012,1 hPa 0,0 l/m² 9,7 km/h (2 Bft) O 90 ° 0 min 0 W/m² 12,4 °C 21,8 °C 14,5 km/h (3 Bft)
06.09.2024 01:30 24,2 °C 22,8 °C 56 % 52 % 1012,0 hPa 0,0 l/m² 9,7 km/h (2 Bft) O-NO 67 ° 0 min 0 W/m² 12,4 °C 21,8 °C 16,1 km/h (3 Bft)
06.09.2024 01:31 24,2 °C 22,8 °C 56 % 52 % 1012,0 hPa 0,0 l/m² 6,4 km/h (2 Bft) O 90 ° 0 min 0 W/m² 12,4 °C 22,8 °C 8,0 km/h (2 Bft)
06.09.2024 01:32 24,2 °C 22,8 °C 55 % 53 % 1012,1 hPa 0,0 l/m² 8,0 km/h (2 Bft) O 90 ° 0 min 0 W/m² 12,7 °C 22,3 °C 16,1 km/h (3 Bft)
06.09.2024 01:33 24,1 °C 22,7 °C 55 % 52 % 1012,1 hPa 0,0 l/m² 8,0 km/h (2 Bft) O 90 ° 0 min 0 W/m² 12,3 °C 22,2 °C 12,9 km/h (3 Bft)
06.09.2024 01:34 24,2 °C 22,7 °C 55 % 53 % 1012,0 hPa 0,0 l/m² 4,8 km/h (1 Bft) O 90 ° 0 min 0 W/m² 12,6 °C 22,7 °C 11,3 km/h (2 Bft)
06.09.2024 01:35 24,1 °C 22,7 °C 55 % 53 % 1012,1 hPa 0,0 l/m² 9,7 km/h (2 Bft) O 90 ° 0 min 0 W/m² 12,6 °C 21,7 °C 12,9 km/h (3 Bft)
06.09.2024 01:36 24,2 °C 22,7 °C 55 % 53 % 1012,1 hPa 0,0 l/m² 8,0 km/h (2 Bft) O-NO 67 ° 0 min 0 W/m² 12,6 °C 22,2 °C 11,3 km/h (2 Bft)
06.09.2024 01:37 24,2 °C 22,6 °C 55 % 53 % 1012,1 hPa 0,0 l/m² 6,4 km/h (2 Bft) O 90 ° 0 min 0 W/m² 12,5 °C 22,6 °C 8,0 km/h (2 Bft)
06.09.2024 01:38 24,2 °C 22,5 °C 56 % 53 % 1012,0 hPa 0,0 l/m² 8,0 km/h (2 Bft) O 90 ° 0 min 0 W/m² 12,4 °C 22,0 °C 12,9 km/h (3 Bft)
06.09.2024 01:39 24,1 °C 22,5 °C 55 % 53 % 1012,1 hPa 0,0 l/m² 8,0 km/h (2 Bft) O 90 ° 0 min 0 W/m² 12,4 °C 22,0 °C 11,3 km/h (2 Bft)
06.09.2024 01:40 24,2 °C 22,4 °C 55 % 54 % 1012,1 hPa 0,0 l/m² 8,0 km/h (2 Bft) O 90 ° 0 min 0 W/m² 12,6 °C 21,9 °C 12,9 km/h (3 Bft)
06.09.2024 01:41 24,2 °C 22,4 °C 55 % 54 % 1012,1 hPa 0,0 l/m² 8,0 km/h (2 Bft) O 90 ° 0 min 0 W/m² 12,6 °C 21,9 °C 11,3 km/h (2 Bft)
06.09.2024 01:42 24,2 °C 22,4 °C 55 % 54 % 1012,1 hPa 0,0 l/m² 8,0 km/h (2 Bft) O 90 ° 0 min 0 W/m² 12,6 °C 21,9 °C 12,9 km/h (3 Bft)
06.09.2024 01:43 24,2 °C 22,3 °C 55 % 54 % 1012,0 hPa 0,0 l/m² 6,4 km/h (2 Bft) O-NO 67 ° 0 min 0 W/m² 12,5 °C 22,3 °C 11,3 km/h (2 Bft)
06.09.2024 01:44 24,2 °C 22,3 °C 55 % 54 % 1012,1 hPa 0,0 l/m² 8,0 km/h (2 Bft) O 90 ° 0 min 0 W/m² 12,5 °C 21,8 °C 12,9 km/h (3 Bft)
06.09.2024 01:45 24,2 °C 22,3 °C 55 % 54 % 1012,1 hPa 0,0 l/m² 6,4 km/h (2 Bft) O 90 ° 0 min 0 W/m² 12,5 °C 22,3 °C 12,9 km/h (3 Bft)
06.09.2024 01:46 24,2 °C 22,3 °C 55 % 54 % 1012,1 hPa 0,0 l/m² 6,4 km/h (2 Bft) O 90 ° 0 min 0 W/m² 12,5 °C 22,3 °C 11,3 km/h (2 Bft)
06.09.2024 01:47 24,1 °C 22,3 °C 55 % 54 % 1012,1 hPa 0,0 l/m² 8,0 km/h (2 Bft) O 90 ° 0 min 0 W/m² 12,5 °C 21,8 °C 11,3 km/h (2 Bft)
06.09.2024 01:48 24,1 °C 22,2 °C 55 % 55 % 1012,1 hPa 0,0 l/m² 8,0 km/h (2 Bft) O-NO 67 ° 0 min 0 W/m² 12,7 °C 21,7 °C 11,3 km/h (2 Bft)
06.09.2024 01:49 24,1 °C 22,2 °C 55 % 54 % 1012,1 hPa 0,0 l/m² 6,4 km/h (2 Bft) O 90 ° 0 min 0 W/m² 12,4 °C 22,2 °C 8,0 km/h (2 Bft)
06.09.2024 01:50 24,1 °C 22,2 °C 55 % 54 % 1012,1 hPa 0,0 l/m² 8,0 km/h (2 Bft) O-NO 67 ° 0 min 0 W/m² 12,4 °C 21,7 °C 12,9 km/h (3 Bft)
06.09.2024 01:51 24,1 °C 22,1 °C 55 % 54 % 1012,1 hPa 0,0 l/m² 8,0 km/h (2 Bft) O-NO 67 ° 0 min 0 W/m² 12,3 °C 21,6 °C 12,9 km/h (3 Bft)
06.09.2024 01:52 24,1 °C 22,1 °C 55 % 54 % 1012,1 hPa 0,0 l/m² 6,4 km/h (2 Bft) O-NO 67 ° 0 min 0 W/m² 12,3 °C 22,1 °C 12,9 km/h (3 Bft)
06.09.2024 01:53 24,2 °C 22,1 °C 55 % 55 % 1012,1 hPa 0,0 l/m² 4,8 km/h (1 Bft) O-NO 67 ° 0 min 0 W/m² 12,6 °C 22,1 °C 6,4 km/h (2 Bft)
06.09.2024 01:54 24,1 °C 22,1 °C 55 % 55 % 1012,1 hPa 0,0 l/m² 8,0 km/h (2 Bft) O 90 ° 0 min 0 W/m² 12,6 °C 21,6 °C 12,9 km/h (3 Bft)
06.09.2024 01:55 24,1 °C 22,0 °C 55 % 55 % 1012,1 hPa 0,0 l/m² 8,0 km/h (2 Bft) O 90 ° 0 min 0 W/m² 12,5 °C 21,5 °C 12,9 km/h (3 Bft)
06.09.2024 01:56 24,1 °C 21,9 °C 55 % 55 % 1012,1 hPa 0,0 l/m² 4,8 km/h (1 Bft) O 90 ° 0 min 0 W/m² 12,4 °C 21,9 °C 8,0 km/h (2 Bft)
06.09.2024 01:57 24,1 °C 21,9 °C 55 % 55 % 1012,0 hPa 0,0 l/m² 4,8 km/h (1 Bft) O 90 ° 0 min 0 W/m² 12,4 °C 21,9 °C 9,7 km/h (2 Bft)
06.09.2024 01:58 24,1 °C 21,8 °C 55 % 55 % 1012,0 hPa 0,0 l/m² 9,7 km/h (2 Bft) O 90 ° 0 min 0 W/m² 12,4 °C 20,7 °C 14,5 km/h (3 Bft)
06.09.2024 01:59 24,1 °C 21,8 °C 55 % 55 % 1012,0 hPa 0,0 l/m² 4,8 km/h (1 Bft) O-NO 67 ° 0 min 0 W/m² 12,4 °C 21,8 °C 8,0 km/h (2 Bft)
06.09.2024 02:00 24,1 °C 21,8 °C 55 % 55 % 1012,1 hPa 0,0 l/m² 6,4 km/h (2 Bft) O-NO 67 ° 0 min 0 W/m² 12,4 °C 21,8 °C 9,7 km/h (2 Bft)
06.09.2024 02:01 24,1 °C 21,9 °C 55 % 55 % 1012,0 hPa 0,0 l/m² 6,4 km/h (2 Bft) O 90 ° 0 min 0 W/m² 12,4 °C 21,9 °C 8,0 km/h (2 Bft)
06.09.2024 02:02 24,1 °C 21,8 °C 55 % 55 % 1012,0 hPa 0,0 l/m² 6,4 km/h (2 Bft) O 90 ° 0 min 0 W/m² 12,4 °C 21,8 °C 9,7 km/h (2 Bft)
06.09.2024 02:03 24,1 °C 21,8 °C 55 % 55 % 1012,0 hPa 0,0 l/m² 6,4 km/h (2 Bft) O-NO 67 ° 0 min 0 W/m² 12,4 °C 21,8 °C 12,9 km/h (3 Bft)
06.09.2024 02:04 24,2 °C 21,8 °C 55 % 55 % 1012,0 hPa 0,0 l/m² 4,8 km/h (1 Bft) O-NO 67 ° 0 min 0 W/m² 12,4 °C 21,8 °C 8,0 km/h (2 Bft)
06.09.2024 02:05 24,1 °C 21,8 °C 55 % 55 % 1012,0 hPa 0,0 l/m² 4,8 km/h (1 Bft) O 90 ° 0 min 0 W/m² 12,4 °C 21,8 °C 9,7 km/h (2 Bft)
06.09.2024 02:06 24,1 °C 21,8 °C 55 % 55 % 1011,9 hPa 0,0 l/m² 6,4 km/h (2 Bft) O-NO 67 ° 0 min 0 W/m² 12,4 °C 21,8 °C 9,7 km/h (2 Bft)
06.09.2024 02:07 24,1 °C 21,8 °C 55 % 55 % 1012,0 hPa 0,0 l/m² 9,7 km/h (2 Bft) O-NO 67 ° 0 min 0 W/m² 12,4 °C 20,7 °C 14,5 km/h (3 Bft)
06.09.2024 02:08 24,1 °C 21,8 °C 55 % 55 % 1012,0 hPa 0,0 l/m² 8,0 km/h (2 Bft) O-NO 67 ° 0 min 0 W/m² 12,4 °C 21,2 °C 14,5 km/h (3 Bft)
06.09.2024 02:09 24,1 °C 21,9 °C 55 % 55 % 1011,9 hPa 0,0 l/m² 6,4 km/h (2 Bft) O-NO 67 ° 0 min 0 W/m² 12,4 °C 21,9 °C 12,9 km/h (3 Bft)
06.09.2024 02:10 24,1 °C 21,9 °C 55 % 55 % 1012,0 hPa 0,0 l/m² 4,8 km/h (1 Bft) O-NO 67 ° 0 min 0 W/m² 12,4 °C 21,9 °C 9,7 km/h (2 Bft)
06.09.2024 02:11 24,1 °C 21,9 °C 55 % 55 % 1011,9 hPa 0,0 l/m² 8,0 km/h (2 Bft) O 90 ° 0 min 0 W/m² 12,4 °C 21,3 °C 12,9 km/h (3 Bft)
06.09.2024 02:12 24,1 °C 21,9 °C 55 % 55 % 1012,0 hPa 0,0 l/m² 6,4 km/h (2 Bft) O-NO 67 ° 0 min 0 W/m² 12,4 °C 21,9 °C 12,9 km/h (3 Bft)
06.09.2024 02:13 24,1 °C 22,0 °C 55 % 55 % 1012,0 hPa 0,0 l/m² 9,7 km/h (2 Bft) O-NO 67 ° 0 min 0 W/m² 12,5 °C 20,9 °C 16,1 km/h (3 Bft)
06.09.2024 02:14 24,1 °C 21,9 °C 55 % 55 % 1012,1 hPa 0,0 l/m² 6,4 km/h (2 Bft) O-NO 67 ° 0 min 0 W/m² 12,4 °C 21,9 °C 11,3 km/h (2 Bft)
06.09.2024 02:15 24,1 °C 22,0 °C 55 % 55 % 1012,0 hPa 0,0 l/m² 4,8 km/h (1 Bft) O-NO 67 ° 0 min 0 W/m² 12,5 °C 22,0 °C 11,3 km/h (2 Bft)
06.09.2024 02:16 24,1 °C 21,9 °C 55 % 55 % 1012,0 hPa 0,0 l/m² 4,8 km/h (1 Bft) O-NO 67 ° 0 min 0 W/m² 12,4 °C 21,9 °C 8,0 km/h (2 Bft)
06.09.2024 02:17 24,1 °C 21,9 °C 55 % 55 % 1012,0 hPa 0,0 l/m² 9,7 km/h (2 Bft) O-NO 67 ° 0 min 0 W/m² 12,4 °C 20,8 °C 17,7 km/h (3 Bft)
06.09.2024 02:18 24,1 °C 21,9 °C 55 % 55 % 1012,0 hPa 0,0 l/m² 8,0 km/h (2 Bft) O-NO 67 ° 0 min 0 W/m² 12,4 °C 21,3 °C 11,3 km/h (2 Bft)
06.09.2024 02:19 24,1 °C 21,9 °C 55 % 55 % 1012,0 hPa 0,0 l/m² 6,4 km/h (2 Bft) O-NO 67 ° 0 min 0 W/m² 12,4 °C 21,9 °C 12,9 km/h (3 Bft)
06.09.2024 02:20 24,1 °C 21,9 °C 55 % 55 % 1011,9 hPa 0,0 l/m² 8,0 km/h (2 Bft) O-NO 67 ° 0 min 0 W/m² 12,4 °C 21,3 °C 12,9 km/h (3 Bft)
06.09.2024 02:21 24,1 °C 21,9 °C 55 % 55 % 1012,0 hPa 0,0 l/m² 6,4 km/h (2 Bft) O-NO 67 ° 0 min 0 W/m² 12,4 °C 21,9 °C 9,7 km/h (2 Bft)
06.09.2024 02:22 24,1 °C 21,9 °C 55 % 55 % 1012,0 hPa 0,0 l/m² 6,4 km/h (2 Bft) O-NO 67 ° 0 min 0 W/m² 12,4 °C 21,9 °C 14,5 km/h (3 Bft)
06.09.2024 02:23 24,1 °C 21,9 °C 55 % 55 % 1012,0 hPa 0,0 l/m² 4,8 km/h (1 Bft) O-NO 67 ° 0 min 0 W/m² 12,4 °C 21,9 °C 9,7 km/h (2 Bft)
06.09.2024 02:24 24,1 °C 21,8 °C 55 % 55 % 1012,0 hPa 0,0 l/m² 4,8 km/h (1 Bft) O-NO 67 ° 0 min 0 W/m² 12,4 °C 21,8 °C 9,7 km/h (2 Bft)
06.09.2024 02:25 24,1 °C 21,8 °C 55 % 55 % 1012,0 hPa 0,0 l/m² 11,3 km/h (2 Bft) O-NO 67 ° 0 min 0 W/m² 12,4 °C 20,3 °C 19,3 km/h (3 Bft)
06.09.2024 02:26 24,1 °C 21,8 °C 55 % 55 % 1012,0 hPa 0,0 l/m² 6,4 km/h (2 Bft) O-NO 67 ° 0 min 0 W/m² 12,4 °C 21,8 °C 11,3 km/h (2 Bft)
06.09.2024 02:27 24,1 °C 21,8 °C 55 % 56 % 1011,9 hPa 0,0 l/m² 4,8 km/h (1 Bft) O-NO 67 ° 0 min 0 W/m² 12,6 °C 21,8 °C 8,0 km/h (2 Bft)
06.09.2024 02:28 24,1 °C 21,8 °C 55 % 56 % 1011,9 hPa 0,0 l/m² 8,0 km/h (2 Bft) O-NO 67 ° 0 min 0 W/m² 12,6 °C 21,2 °C 14,5 km/h (3 Bft)
06.09.2024 02:29 24,1 °C 21,8 °C 55 % 56 % 1011,9 hPa 0,0 l/m² 6,4 km/h (2 Bft) O-NO 67 ° 0 min 0 W/m² 12,6 °C 21,8 °C 12,9 km/h (3 Bft)
06.09.2024 02:30 24,1 °C 21,8 °C 54 % 56 % 1011,9 hPa 0,0 l/m² 6,4 km/h (2 Bft) O-NO 67 ° 0 min 0 W/m² 12,6 °C 21,8 °C 8,0 km/h (2 Bft)
06.09.2024 02:31 24,1 °C 21,8 °C 54 % 56 % 1011,9 hPa 0,0 l/m² 4,8 km/h (1 Bft) O-NO 67 ° 0 min 0 W/m² 12,6 °C 21,8 °C 8,0 km/h (2 Bft)
06.09.2024 02:32 24,1 °C 21,8 °C 54 % 55 % 1012,0 hPa 0,0 l/m² 4,8 km/h (1 Bft) O-NO 67 ° 0 min 0 W/m² 12,4 °C 21,8 °C 9,7 km/h (2 Bft)
06.09.2024 02:33 24,1 °C 21,8 °C 54 % 56 % 1011,9 hPa 0,0 l/m² 9,7 km/h (2 Bft) O 90 ° 0 min 0 W/m² 12,6 °C 20,7 °C 14,5 km/h (3 Bft)
06.09.2024 02:34 24,1 °C 21,8 °C 54 % 56 % 1011,9 hPa 0,0 l/m² 8,0 km/h (2 Bft) O-NO 67 ° 0 min 0 W/m² 12,6 °C 21,2 °C 11,3 km/h (2 Bft)
06.09.2024 02:35 24,1 °C 21,8 °C 54 % 56 % 1011,9 hPa 0,0 l/m² 8,0 km/h (2 Bft) NO 45 ° 0 min 0 W/m² 12,6 °C 21,2 °C 12,9 km/h (3 Bft)
06.09.2024 02:36 24,1 °C 21,8 °C 54 % 55 % 1011,9 hPa 0,0 l/m² 9,7 km/h (2 Bft) O-NO 67 ° 0 min 0 W/m² 12,4 °C 20,7 °C 16,1 km/h (3 Bft)
06.09.2024 02:37 24,1 °C 21,8 °C 54 % 55 % 1011,9 hPa 0,0 l/m² 8,0 km/h (2 Bft) NO 45 ° 0 min 0 W/m² 12,4 °C 21,2 °C 11,3 km/h (2 Bft)
06.09.2024 02:38 24,1 °C 21,8 °C 54 % 55 % 1011,9 hPa 0,0 l/m² 6,4 km/h (2 Bft) O-NO 67 ° 0 min 0 W/m² 12,4 °C 21,8 °C 14,5 km/h (3 Bft)
06.09.2024 02:39 24,1 °C 21,8 °C 54 % 56 % 1011,9 hPa 0,0 l/m² 6,4 km/h (2 Bft) O-NO 67 ° 0 min 0 W/m² 12,6 °C 21,8 °C 11,3 km/h (2 Bft)
06.09.2024 02:40 24,1 °C 21,8 °C 54 % 56 % 1011,8 hPa 0,0 l/m² 9,7 km/h (2 Bft) O-NO 67 ° 0 min 0 W/m² 12,6 °C 20,7 °C 14,5 km/h (3 Bft)
06.09.2024 02:41 24,1 °C 21,8 °C 54 % 55 % 1011,9 hPa 0,0 l/m² 8,0 km/h (2 Bft) O-NO 67 ° 0 min 0 W/m² 12,4 °C 21,2 °C 14,5 km/h (3 Bft)
06.09.2024 02:42 24,1 °C 21,7 °C 54 % 55 % 1011,8 hPa 0,0 l/m² 8,0 km/h (2 Bft) NO 45 ° 0 min 0 W/m² 12,3 °C 21,1 °C 12,9 km/h (3 Bft)
06.09.2024 02:43 24,1 °C 21,7 °C 54 % 55 % 1011,8 hPa 0,0 l/m² 11,3 km/h (2 Bft) NO 45 ° 0 min 0 W/m² 12,3 °C 20,2 °C 19,3 km/h (3 Bft)
06.09.2024 02:44 24,1 °C 21,8 °C 54 % 55 % 1011,8 hPa 0,0 l/m² 9,7 km/h (2 Bft) O-NO 67 ° 0 min 0 W/m² 12,4 °C 20,7 °C 14,5 km/h (3 Bft)
06.09.2024 02:45 24,1 °C 21,8 °C 54 % 55 % 1011,9 hPa 0,0 l/m² 8,0 km/h (2 Bft) NO 45 ° 0 min 0 W/m² 12,4 °C 21,2 °C 16,1 km/h (3 Bft)
06.09.2024 02:46 24,1 °C 21,8 °C 54 % 55 % 1011,9 hPa 0,0 l/m² 8,0 km/h (2 Bft) NO 45 ° 0 min 0 W/m² 12,4 °C 21,2 °C 11,3 km/h (2 Bft)
06.09.2024 02:47 24,1 °C 21,8 °C 54 % 55 % 1011,8 hPa 0,0 l/m² 8,0 km/h (2 Bft) NO 45 ° 0 min 0 W/m² 12,4 °C 21,2 °C 14,5 km/h (3 Bft)
06.09.2024 02:48 24,1 °C 21,8 °C 54 % 55 % 1011,8 hPa 0,0 l/m² 8,0 km/h (2 Bft) NO 45 ° 0 min 0 W/m² 12,4 °C 21,2 °C 14,5 km/h (3 Bft)
06.09.2024 02:49 24,1 °C 21,8 °C 54 % 55 % 1011,9 hPa 0,0 l/m² 11,3 km/h (2 Bft) NO 45 ° 0 min 0 W/m² 12,4 °C 20,3 °C 20,9 km/h (4 Bft)
06.09.2024 02:50 24,1 °C 21,8 °C 54 % 55 % 1011,9 hPa 0,0 l/m² 8,0 km/h (2 Bft) O-NO 67 ° 0 min 0 W/m² 12,4 °C 21,2 °C 14,5 km/h (3 Bft)
06.09.2024 02:51 24,1 °C 21,7 °C 53 % 55 % 1011,8 hPa 0,0 l/m² 6,4 km/h (2 Bft) O-NO 67 ° 0 min 0 W/m² 12,3 °C 21,7 °C 12,9 km/h (3 Bft)
06.09.2024 02:52 24,1 °C 21,7 °C 54 % 55 % 1011,9 hPa 0,0 l/m² 8,0 km/h (2 Bft) O-NO 67 ° 0 min 0 W/m² 12,3 °C 21,1 °C 12,9 km/h (3 Bft)
06.09.2024 02:53 24,1 °C 21,7 °C 53 % 55 % 1011,9 hPa 0,0 l/m² 8,0 km/h (2 Bft) O-NO 67 ° 0 min 0 W/m² 12,3 °C 21,1 °C 12,9 km/h (3 Bft)
06.09.2024 02:54 24,1 °C 21,7 °C 53 % 55 % 1011,9 hPa 0,0 l/m² 9,7 km/h (2 Bft) O-NO 67 ° 0 min 0 W/m² 12,3 °C 20,6 °C 14,5 km/h (3 Bft)
06.09.2024 02:55 24,0 °C 21,7 °C 53 % 55 % 1011,9 hPa 0,0 l/m² 11,3 km/h (2 Bft) NO 45 ° 0 min 0 W/m² 12,3 °C 20,2 °C 17,7 km/h (3 Bft)
06.09.2024 02:56 24,1 °C 21,7 °C 53 % 55 % 1011,9 hPa 0,0 l/m² 6,4 km/h (2 Bft) O-NO 67 ° 0 min 0 W/m² 12,3 °C 21,7 °C 12,9 km/h (3 Bft)
06.09.2024 02:57 24,1 °C 21,7 °C 53 % 56 % 1011,9 hPa 0,0 l/m² 8,0 km/h (2 Bft) O-NO 67 ° 0 min 0 W/m² 12,5 °C 21,1 °C 12,9 km/h (3 Bft)
06.09.2024 02:58 24,1 °C 21,7 °C 53 % 55 % 1011,9 hPa 0,0 l/m² 11,3 km/h (2 Bft) O-NO 67 ° 0 min 0 W/m² 12,3 °C 20,2 °C 16,1 km/h (3 Bft)
06.09.2024 02:59 24,1 °C 21,7 °C 53 % 56 % 1011,9 hPa 0,0 l/m² 9,7 km/h (2 Bft) O-NO 67 ° 0 min 0 W/m² 12,5 °C 20,6 °C 14,5 km/h (3 Bft)
06.09.2024 03:00 24,0 °C 21,7 °C 53 % 56 % 1011,9 hPa 0,0 l/m² 8,0 km/h (2 Bft) O-NO 67 ° 0 min 0 W/m² 12,5 °C 21,1 °C 12,9 km/h (3 Bft)
06.09.2024 03:01 24,1 °C 21,7 °C 53 % 56 % 1011,9 hPa 0,0 l/m² 6,4 km/h (2 Bft) O-NO 67 ° 0 min 0 W/m² 12,5 °C 21,7 °C 14,5 km/h (3 Bft)
06.09.2024 03:02 24,0 °C 21,7 °C 53 % 56 % 1011,9 hPa 0,0 l/m² 8,0 km/h (2 Bft) O-NO 67 ° 0 min 0 W/m² 12,5 °C 21,1 °C 14,5 km/h (3 Bft)
06.09.2024 03:03 24,0 °C 21,6 °C 53 % 56 % 1011,9 hPa 0,0 l/m² 8,0 km/h (2 Bft) NO 45 ° 0 min 0 W/m² 12,4 °C 21,0 °C 14,5 km/h (3 Bft)
06.09.2024 03:04 24,0 °C 21,6 °C 53 % 56 % 1011,8 hPa 0,0 l/m² 9,7 km/h (2 Bft) O-NO 67 ° 0 min 0 W/m² 12,4 °C 20,5 °C 16,1 km/h (3 Bft)
06.09.2024 03:05 24,0 °C 21,6 °C 53 % 56 % 1011,9 hPa 0,0 l/m² 8,0 km/h (2 Bft) O-NO 67 ° 0 min 0 W/m² 12,4 °C 21,0 °C 14,5 km/h (3 Bft)
06.09.2024 03:06 24,0 °C 21,6 °C 53 % 56 % 1011,8 hPa 0,0 l/m² 8,0 km/h (2 Bft) N-NO 22 ° 0 min 0 W/m² 12,4 °C 21,0 °C 16,1 km/h (3 Bft)
06.09.2024 03:07 24,0 °C 21,6 °C 53 % 56 % 1011,8 hPa 0,0 l/m² 8,0 km/h (2 Bft) O-NO 67 ° 0 min 0 W/m² 12,4 °C 21,0 °C 12,9 km/h (3 Bft)
06.09.2024 03:08 24,1 °C 21,6 °C 53 % 56 % 1011,8 hPa 0,0 l/m² 9,7 km/h (2 Bft) O-NO 67 ° 0 min 0 W/m² 12,4 °C 20,5 °C 14,5 km/h (3 Bft)
06.09.2024 03:09 24,0 °C 21,6 °C 53 % 56 % 1011,8 hPa 0,0 l/m² 9,7 km/h (2 Bft) O-NO 67 ° 0 min 0 W/m² 12,4 °C 20,5 °C 16,1 km/h (3 Bft)
06.09.2024 03:10 24,0 °C 21,6 °C 53 % 56 % 1011,8 hPa 0,0 l/m² 9,7 km/h (2 Bft) NO 45 ° 0 min 0 W/m² 12,4 °C 20,5 °C 16,1 km/h (3 Bft)
06.09.2024 03:11 24,0 °C 21,6 °C 53 % 56 % 1011,8 hPa 0,0 l/m² 9,7 km/h (2 Bft) O-NO 67 ° 0 min 0 W/m² 12,4 °C 20,5 °C 17,7 km/h (3 Bft)
06.09.2024 03:12 24,0 °C 21,6 °C 53 % 56 % 1011,8 hPa 0,0 l/m² 9,7 km/h (2 Bft) O-NO 67 ° 0 min 0 W/m² 12,4 °C 20,5 °C 17,7 km/h (3 Bft)
06.09.2024 03:13 24,0 °C 21,6 °C 53 % 56 % 1011,8 hPa 0,0 l/m² 11,3 km/h (2 Bft) O-NO 67 ° 0 min 0 W/m² 12,4 °C 20,1 °C 16,1 km/h (3 Bft)
06.09.2024 03:14 24,0 °C 21,6 °C 53 % 56 % 1011,8 hPa 0,0 l/m² 9,7 km/h (2 Bft) O-NO 67 ° 0 min 0 W/m² 12,4 °C 20,5 °C 14,5 km/h (3 Bft)
06.09.2024 03:15 24,0 °C 21,6 °C 53 % 56 % 1011,7 hPa 0,0 l/m² 11,3 km/h (2 Bft) O-NO 67 ° 0 min 0 W/m² 12,4 °C 20,1 °C 16,1 km/h (3 Bft)
06.09.2024 03:16 24,0 °C 21,6 °C 53 % 56 % 1011,8 hPa 0,0 l/m² 9,7 km/h (2 Bft) O-NO 67 ° 0 min 0 W/m² 12,4 °C 20,5 °C 14,5 km/h (3 Bft)
06.09.2024 03:17 24,0 °C 21,6 °C 53 % 56 % 1011,8 hPa 0,0 l/m² 9,7 km/h (2 Bft) O-NO 67 ° 0 min 0 W/m² 12,4 °C 20,5 °C 16,1 km/h (3 Bft)
06.09.2024 03:18 24,0 °C 21,6 °C 53 % 56 % 1011,8 hPa 0,0 l/m² 9,7 km/h (2 Bft) O 90 ° 0 min 0 W/m² 12,4 °C 20,5 °C 16,1 km/h (3 Bft)
06.09.2024 03:19 24,0 °C 21,6 °C 53 % 56 % 1011,8 hPa 0,0 l/m² 14,5 km/h (3 Bft) O-NO 67 ° 0 min 0 W/m² 12,4 °C 19,3 °C 20,9 km/h (4 Bft)
06.09.2024 03:20 24,0 °C 21,6 °C 53 % 56 % 1011,8 hPa 0,0 l/m² 9,7 km/h (2 Bft) O-NO 67 ° 0 min 0 W/m² 12,4 °C 20,5 °C 17,7 km/h (3 Bft)
06.09.2024 03:21 24,0 °C 21,6 °C 53 % 56 % 1011,8 hPa 0,0 l/m² 8,0 km/h (2 Bft) O-NO 67 ° 0 min 0 W/m² 12,4 °C 21,0 °C 14,5 km/h (3 Bft)
06.09.2024 03:22 24,0 °C 21,5 °C 53 % 55 % 1011,8 hPa 0,0 l/m² 8,0 km/h (2 Bft) NO 45 ° 0 min 0 W/m² 12,1 °C 20,9 °C 9,7 km/h (2 Bft)
06.09.2024 03:23 24,0 °C 21,6 °C 52 % 55 % 1011,9 hPa 0,0 l/m² 11,3 km/h (2 Bft) NO 45 ° 0 min 0 W/m² 12,2 °C 20,1 °C 19,3 km/h (3 Bft)
06.09.2024 03:24 24,0 °C 21,5 °C 52 % 55 % 1011,8 hPa 0,0 l/m² 9,7 km/h (2 Bft) O-NO 67 ° 0 min 0 W/m² 12,1 °C 20,4 °C 17,7 km/h (3 Bft)
06.09.2024 03:25 24,0 °C 21,4 °C 52 % 56 % 1011,9 hPa 0,0 l/m² 12,9 km/h (3 Bft) O-NO 67 ° 0 min 0 W/m² 12,3 °C 19,4 °C 19,3 km/h (3 Bft)
06.09.2024 03:26 24,0 °C 21,4 °C 52 % 56 % 1011,8 hPa 0,0 l/m² 8,0 km/h (2 Bft) O-NO 67 ° 0 min 0 W/m² 12,3 °C 20,8 °C 14,5 km/h (3 Bft)
06.09.2024 03:27 24,0 °C 21,4 °C 52 % 56 % 1011,8 hPa 0,0 l/m² 9,7 km/h (2 Bft) O-NO 67 ° 0 min 0 W/m² 12,3 °C 20,3 °C 12,9 km/h (3 Bft)
06.09.2024 03:28 24,0 °C 21,4 °C 52 % 56 % 1011,8 hPa 0,0 l/m² 9,7 km/h (2 Bft) O-NO 67 ° 0 min 0 W/m² 12,3 °C 20,3 °C 14,5 km/h (3 Bft)
06.09.2024 03:29 23,9 °C 21,4 °C 52 % 56 % 1011,8 hPa 0,0 l/m² 12,9 km/h (3 Bft) NO 45 ° 0 min 0 W/m² 12,3 °C 19,4 °C 20,9 km/h (4 Bft)
06.09.2024 03:30 24,0 °C 21,4 °C 52 % 56 % 1011,8 hPa 0,0 l/m² 6,4 km/h (2 Bft) O-NO 67 ° 0 min 0 W/m² 12,3 °C 21,4 °C 11,3 km/h (2 Bft)
06.09.2024 03:31 24,0 °C 21,4 °C 52 % 56 % 1011,8 hPa 0,0 l/m² 8,0 km/h (2 Bft) O-NO 67 ° 0 min 0 W/m² 12,3 °C 20,8 °C 12,9 km/h (3 Bft)
06.09.2024 03:32 24,0 °C 21,4 °C 52 % 56 % 1011,8 hPa 0,0 l/m² 8,0 km/h (2 Bft) O-NO 67 ° 0 min 0 W/m² 12,3 °C 20,8 °C 14,5 km/h (3 Bft)
06.09.2024 03:33 23,9 °C 21,3 °C 52 % 56 % 1011,8 hPa 0,0 l/m² 8,0 km/h (2 Bft) O-NO 67 ° 0 min 0 W/m² 12,2 °C 20,7 °C 11,3 km/h (2 Bft)
06.09.2024 03:34 24,0 °C 21,3 °C 52 % 56 % 1011,8 hPa 0,0 l/m² 9,7 km/h (2 Bft) O-NO 67 ° 0 min 0 W/m² 12,2 °C 20,2 °C 14,5 km/h (3 Bft)
06.09.2024 03:35 24,0 °C 21,3 °C 52 % 56 % 1011,8 hPa 0,0 l/m² 9,7 km/h (2 Bft) O-NO 67 ° 0 min 0 W/m² 12,2 °C 20,2 °C 14,5 km/h (3 Bft)
06.09.2024 03:36 24,0 °C 21,3 °C 52 % 56 % 1011,8 hPa 0,0 l/m² 11,3 km/h (2 Bft) O-NO 67 ° 0 min 0 W/m² 12,2 °C 19,7 °C 16,1 km/h (3 Bft)
06.09.2024 03:37 23,9 °C 21,3 °C 52 % 56 % 1011,9 hPa 0,0 l/m² 9,7 km/h (2 Bft) NO 45 ° 0 min 0 W/m² 12,2 °C 20,2 °C 20,9 km/h (4 Bft)
06.09.2024 03:38 23,9 °C 21,3 °C 52 % 56 % 1011,9 hPa 0,0 l/m² 8,0 km/h (2 Bft) O-NO 67 ° 0 min 0 W/m² 12,2 °C 20,7 °C 12,9 km/h (3 Bft)
06.09.2024 03:39 23,9 °C 21,3 °C 52 % 56 % 1011,9 hPa 0,0 l/m² 12,9 km/h (3 Bft) O-NO 67 ° 0 min 0 W/m² 12,2 °C 19,3 °C 19,3 km/h (3 Bft)
06.09.2024 03:40 24,0 °C 21,3 °C 52 % 56 % 1011,9 hPa 0,0 l/m² 9,7 km/h (2 Bft) O-NO 67 ° 0 min 0 W/m² 12,2 °C 20,2 °C 14,5 km/h (3 Bft)
06.09.2024 03:41 23,9 °C 21,3 °C 52 % 56 % 1011,9 hPa 0,0 l/m² 6,4 km/h (2 Bft) O-NO 67 ° 0 min 0 W/m² 12,2 °C 21,3 °C 9,7 km/h (2 Bft)
06.09.2024 03:42 23,9 °C 21,3 °C 52 % 56 % 1011,9 hPa 0,0 l/m² 11,3 km/h (2 Bft) O-NO 67 ° 0 min 0 W/m² 12,2 °C 19,7 °C 17,7 km/h (3 Bft)
06.09.2024 03:43 23,9 °C 21,3 °C 52 % 56 % 1011,9 hPa 0,0 l/m² 9,7 km/h (2 Bft) O-NO 67 ° 0 min 0 W/m² 12,2 °C 20,2 °C 14,5 km/h (3 Bft)
06.09.2024 03:44 23,9 °C 21,3 °C 52 % 56 % 1011,9 hPa 0,0 l/m² 11,3 km/h (2 Bft) O-NO 67 ° 0 min 0 W/m² 12,2 °C 19,7 °C 17,7 km/h (3 Bft)
06.09.2024 03:45 24,0 °C 21,2 °C 52 % 56 % 1011,9 hPa 0,0 l/m² 9,7 km/h (2 Bft) O-NO 67 ° 0 min 0 W/m² 12,1 °C 20,1 °C 16,1 km/h (3 Bft)
06.09.2024 03:46 23,9 °C 21,2 °C 52 % 56 % 1012,0 hPa 0,0 l/m² 8,0 km/h (2 Bft) O-NO 67 ° 0 min 0 W/m² 12,1 °C 20,6 °C 14,5 km/h (3 Bft)
06.09.2024 03:47 24,0 °C 21,2 °C 52 % 56 % 1011,9 hPa 0,0 l/m² 9,7 km/h (2 Bft) O-NO 67 ° 0 min 0 W/m² 12,1 °C 20,1 °C 14,5 km/h (3 Bft)
06.09.2024 03:48 23,9 °C 21,2 °C 52 % 56 % 1011,9 hPa 0,0 l/m² 9,7 km/h (2 Bft) O-NO 67 ° 0 min 0 W/m² 12,1 °C 20,1 °C 17,7 km/h (3 Bft)
06.09.2024 03:49 23,9 °C 21,1 °C 52 % 56 % 1011,9 hPa 0,0 l/m² 11,3 km/h (2 Bft) O-NO 67 ° 0 min 0 W/m² 12,0 °C 19,5 °C 16,1 km/h (3 Bft)
06.09.2024 03:50 23,9 °C 21,1 °C 52 % 56 % 1012,0 hPa 0,0 l/m² 8,0 km/h (2 Bft) O-NO 67 ° 0 min 0 W/m² 12,0 °C 20,5 °C 14,5 km/h (3 Bft)
06.09.2024 03:51 23,9 °C 21,1 °C 52 % 56 % 1011,9 hPa 0,0 l/m² 9,7 km/h (2 Bft) O 90 ° 0 min 0 W/m² 12,0 °C 19,9 °C 16,1 km/h (3 Bft)
06.09.2024 03:52 23,9 °C 21,1 °C 52 % 56 % 1011,9 hPa 0,0 l/m² 9,7 km/h (2 Bft) O-NO 67 ° 0 min 0 W/m² 12,0 °C 19,9 °C 16,1 km/h (3 Bft)
06.09.2024 03:53 23,9 °C 21,1 °C 52 % 56 % 1011,9 hPa 0,0 l/m² 6,4 km/h (2 Bft) O-NO 67 ° 0 min 0 W/m² 12,0 °C 21,1 °C 11,3 km/h (2 Bft)
06.09.2024 03:54 23,9 °C 21,1 °C 52 % 56 % 1011,9 hPa 0,0 l/m² 9,7 km/h (2 Bft) O-NO 67 ° 0 min 0 W/m² 12,0 °C 19,9 °C 14,5 km/h (3 Bft)
06.09.2024 03:55 23,9 °C 21,1 °C 52 % 56 % 1011,9 hPa 0,0 l/m² 9,7 km/h (2 Bft) O-NO 67 ° 0 min 0 W/m² 12,0 °C 19,9 °C 14,5 km/h (3 Bft)
06.09.2024 03:56 23,9 °C 21,1 °C 52 % 57 % 1011,9 hPa 0,0 l/m² 8,0 km/h (2 Bft) O-NO 67 ° 0 min 0 W/m² 12,2 °C 20,5 °C 14,5 km/h (3 Bft)
06.09.2024 03:57 23,9 °C 21,0 °C 52 % 57 % 1011,9 hPa 0,0 l/m² 11,3 km/h (2 Bft) O-NO 67 ° 0 min 0 W/m² 12,1 °C 19,4 °C 20,9 km/h (4 Bft)
06.09.2024 03:58 23,9 °C 21,0 °C 52 % 57 % 1011,9 hPa 0,0 l/m² 6,4 km/h (2 Bft) O-NO 67 ° 0 min 0 W/m² 12,1 °C 21,0 °C 12,9 km/h (3 Bft)
06.09.2024 03:59 23,9 °C 21,0 °C 52 % 57 % 1012,0 hPa 0,0 l/m² 8,0 km/h (2 Bft) O-NO 67 ° 0 min 0 W/m² 12,1 °C 20,4 °C 14,5 km/h (3 Bft)
06.09.2024 04:00 23,9 °C 20,9 °C 52 % 57 % 1012,0 hPa 0,0 l/m² 8,0 km/h (2 Bft) O-NO 67 ° 0 min 0 W/m² 12,1 °C 20,3 °C 11,3 km/h (2 Bft)
06.09.2024 04:01 23,9 °C 20,9 °C 52 % 57 % 1012,0 hPa 0,0 l/m² 6,4 km/h (2 Bft) O-NO 67 ° 0 min 0 W/m² 12,1 °C 20,9 °C 8,0 km/h (2 Bft)
06.09.2024 04:02 23,9 °C 20,9 °C 52 % 57 % 1012,1 hPa 0,0 l/m² 8,0 km/h (2 Bft) O-NO 67 ° 0 min 0 W/m² 12,1 °C 20,3 °C 14,5 km/h (3 Bft)
06.09.2024 04:03 23,9 °C 20,9 °C 52 % 57 % 1012,0 hPa 0,0 l/m² 8,0 km/h (2 Bft) O-NO 67 ° 0 min 0 W/m² 12,1 °C 20,3 °C 12,9 km/h (3 Bft)
06.09.2024 04:04 23,9 °C 20,9 °C 52 % 57 % 1012,0 hPa 0,0 l/m² 6,4 km/h (2 Bft) O-NO 67 ° 0 min 0 W/m² 12,1 °C 20,9 °C 11,3 km/h (2 Bft)
06.09.2024 04:05 23,9 °C 20,8 °C 52 % 57 % 1012,0 hPa 0,0 l/m² 8,0 km/h (2 Bft) O-NO 67 ° 0 min 0 W/m² 12,0 °C 20,2 °C 12,9 km/h (3 Bft)
06.09.2024 04:06 23,9 °C 20,8 °C 52 % 57 % 1012,0 hPa 0,0 l/m² 9,7 km/h (2 Bft) O-NO 67 ° 0 min 0 W/m² 12,0 °C 19,6 °C 14,5 km/h (3 Bft)
06.09.2024 04:07 23,9 °C 20,8 °C 52 % 57 % 1012,0 hPa 0,0 l/m² 9,7 km/h (2 Bft) O-NO 67 ° 0 min 0 W/m² 12,0 °C 19,6 °C 19,3 km/h (3 Bft)
06.09.2024 04:08 23,9 °C 20,8 °C 52 % 57 % 1012,0 hPa 0,0 l/m² 4,8 km/h (1 Bft) O-NO 67 ° 0 min 0 W/m² 12,0 °C 20,8 °C 9,7 km/h (2 Bft)
06.09.2024 04:09 23,9 °C 20,8 °C 52 % 57 % 1012,0 hPa 0,0 l/m² 6,4 km/h (2 Bft) O 90 ° 0 min 0 W/m² 12,0 °C 20,8 °C 12,9 km/h (3 Bft)
06.09.2024 04:10 23,9 °C 20,8 °C 52 % 57 % 1012,1 hPa 0,0 l/m² 6,4 km/h (2 Bft) O 90 ° 0 min 0 W/m² 12,0 °C 20,8 °C 11,3 km/h (2 Bft)
06.09.2024 04:11 23,9 °C 20,8 °C 52 % 57 % 1012,1 hPa 0,0 l/m² 11,3 km/h (2 Bft) O-NO 67 ° 0 min 0 W/m² 12,0 °C 19,1 °C 17,7 km/h (3 Bft)
06.09.2024 04:12 23,9 °C 20,7 °C 52 % 57 % 1012,1 hPa 0,0 l/m² 9,7 km/h (2 Bft) O-NO 67 ° 0 min 0 W/m² 11,9 °C 19,5 °C 16,1 km/h (3 Bft)
06.09.2024 04:13 23,9 °C 20,7 °C 52 % 57 % 1012,2 hPa 0,0 l/m² 9,7 km/h (2 Bft) NO 45 ° 0 min 0 W/m² 11,9 °C 19,5 °C 17,7 km/h (3 Bft)
06.09.2024 04:14 23,9 °C 20,7 °C 52 % 58 % 1012,1 hPa 0,0 l/m² 11,3 km/h (2 Bft) O-NO 67 ° 0 min 0 W/m² 12,1 °C 19,0 °C 16,1 km/h (3 Bft)
06.09.2024 04:15 23,9 °C 20,7 °C 52 % 58 % 1012,1 hPa 0,0 l/m² 8,0 km/h (2 Bft) O-NO 67 ° 0 min 0 W/m² 12,1 °C 20,1 °C 16,1 km/h (3 Bft)
06.09.2024 04:16 23,9 °C 20,7 °C 52 % 58 % 1012,1 hPa 0,0 l/m² 9,7 km/h (2 Bft) O-NO 67 ° 0 min 0 W/m² 12,1 °C 19,5 °C 14,5 km/h (3 Bft)
06.09.2024 04:17 23,9 °C 20,7 °C 52 % 58 % 1012,1 hPa 0,0 l/m² 8,0 km/h (2 Bft) O-NO 67 ° 0 min 0 W/m² 12,1 °C 20,1 °C 12,9 km/h (3 Bft)
06.09.2024 04:18 23,9 °C 20,7 °C 52 % 58 % 1012,1 hPa 0,0 l/m² 8,0 km/h (2 Bft) NO 45 ° 0 min 0 W/m² 12,1 °C 20,1 °C 12,9 km/h (3 Bft)
06.09.2024 04:19 23,9 °C 20,7 °C 52 % 58 % 1012,1 hPa 0,0 l/m² 9,7 km/h (2 Bft) O-NO 67 ° 0 min 0 W/m² 12,1 °C 19,5 °C 14,5 km/h (3 Bft)
06.09.2024 04:20 23,9 °C 20,7 °C 52 % 58 % 1012,1 hPa 0,0 l/m² 8,0 km/h (2 Bft) NO 45 ° 0 min 0 W/m² 12,1 °C 20,1 °C 12,9 km/h (3 Bft)
06.09.2024 04:21 23,9 °C 20,7 °C 52 % 58 % 1012,1 hPa 0,0 l/m² 6,4 km/h (2 Bft) O-NO 67 ° 0 min 0 W/m² 12,1 °C 20,7 °C 11,3 km/h (2 Bft)
06.09.2024 04:22 23,9 °C 20,7 °C 52 % 58 % 1012,0 hPa 0,0 l/m² 6,4 km/h (2 Bft) NO 45 ° 0 min 0 W/m² 12,1 °C 20,7 °C 8,0 km/h (2 Bft)
06.09.2024 04:23 23,9 °C 20,6 °C 52 % 58 % 1012,1 hPa 0,0 l/m² 6,4 km/h (2 Bft) O-NO 67 ° 0 min 0 W/m² 12,0 °C 20,6 °C 12,9 km/h (3 Bft)
06.09.2024 04:24 23,9 °C 20,6 °C 52 % 58 % 1012,1 hPa 0,0 l/m² 8,0 km/h (2 Bft) O-NO 67 ° 0 min 0 W/m² 12,0 °C 20,0 °C 12,9 km/h (3 Bft)
06.09.2024 04:25 23,9 °C 20,6 °C 52 % 58 % 1012,1 hPa 0,0 l/m² 6,4 km/h (2 Bft) O-NO 67 ° 0 min 0 W/m² 12,0 °C 20,6 °C 11,3 km/h (2 Bft)
06.09.2024 04:26 23,9 °C 20,6 °C 52 % 58 % 1012,1 hPa 0,0 l/m² 6,4 km/h (2 Bft) O-NO 67 ° 0 min 0 W/m² 12,0 °C 20,6 °C 12,9 km/h (3 Bft)
06.09.2024 04:27 23,9 °C 20,6 °C 52 % 58 % 1012,1 hPa 0,0 l/m² 9,7 km/h (2 Bft) O-NO 67 ° 0 min 0 W/m² 12,0 °C 19,4 °C 16,1 km/h (3 Bft)
06.09.2024 04:28 23,9 °C 20,6 °C 52 % 58 % 1012,1 hPa 0,0 l/m² 11,3 km/h (2 Bft) O-NO 67 ° 0 min 0 W/m² 12,0 °C 18,9 °C 17,7 km/h (3 Bft)
06.09.2024 04:29 23,9 °C 20,6 °C 52 % 58 % 1012,1 hPa 0,0 l/m² 9,7 km/h (2 Bft) O-NO 67 ° 0 min 0 W/m² 12,0 °C 19,4 °C 14,5 km/h (3 Bft)
06.09.2024 04:30 23,9 °C 20,5 °C 52 % 58 % 1012,1 hPa 0,0 l/m² 9,7 km/h (2 Bft) O-NO 67 ° 0 min 0 W/m² 11,9 °C 19,3 °C 12,9 km/h (3 Bft)
06.09.2024 04:31 23,9 °C 20,5 °C 52 % 58 % 1012,1 hPa 0,0 l/m² 8,0 km/h (2 Bft) O 90 ° 0 min 0 W/m² 11,9 °C 19,9 °C 12,9 km/h (3 Bft)
06.09.2024 04:32 23,9 °C 20,5 °C 52 % 58 % 1012,2 hPa 0,0 l/m² 12,9 km/h (3 Bft) O 90 ° 0 min 0 W/m² 11,9 °C 18,4 °C 19,3 km/h (3 Bft)
06.09.2024 04:33 23,9 °C 20,4 °C 52 % 59 % 1012,2 hPa 0,0 l/m² 8,0 km/h (2 Bft) O-NO 67 ° 0 min 0 W/m² 12,1 °C 19,8 °C 12,9 km/h (3 Bft)
06.09.2024 04:34 23,9 °C 20,4 °C 52 % 59 % 1012,2 hPa 0,0 l/m² 9,7 km/h (2 Bft) O 90 ° 0 min 0 W/m² 12,1 °C 19,2 °C 12,9 km/h (3 Bft)
06.09.2024 04:35 23,9 °C 20,4 °C 52 % 59 % 1012,3 hPa 0,0 l/m² 8,0 km/h (2 Bft) O-NO 67 ° 0 min 0 W/m² 12,1 °C 19,8 °C 12,9 km/h (3 Bft)
06.09.2024 04:36 23,9 °C 20,4 °C 52 % 59 % 1012,2 hPa 0,0 l/m² 9,7 km/h (2 Bft) NO 45 ° 0 min 0 W/m² 12,1 °C 19,2 °C 14,5 km/h (3 Bft)
06.09.2024 04:37 23,9 °C 20,4 °C 52 % 59 % 1012,2 hPa 0,0 l/m² 11,3 km/h (2 Bft) O-NO 67 ° 0 min 0 W/m² 12,1 °C 18,7 °C 17,7 km/h (3 Bft)
06.09.2024 04:38 23,9 °C 20,3 °C 52 % 59 % 1012,2 hPa 0,0 l/m² 8,0 km/h (2 Bft) O-NO 67 ° 0 min 0 W/m² 12,0 °C 19,7 °C 12,9 km/h (3 Bft)
06.09.2024 04:39 23,9 °C 20,3 °C 52 % 59 % 1012,2 hPa 0,0 l/m² 9,7 km/h (2 Bft) O-NO 67 ° 0 min 0 W/m² 12,0 °C 19,1 °C 16,1 km/h (3 Bft)
06.09.2024 04:40 23,9 °C 20,3 °C 52 % 59 % 1012,2 hPa 0,0 l/m² 8,0 km/h (2 Bft) O-NO 67 ° 0 min 0 W/m² 12,0 °C 19,7 °C 14,5 km/h (3 Bft)
06.09.2024 04:41 23,9 °C 20,3 °C 52 % 59 % 1012,2 hPa 0,0 l/m² 8,0 km/h (2 Bft) O-NO 67 ° 0 min 0 W/m² 12,0 °C 19,7 °C 17,7 km/h (3 Bft)
06.09.2024 04:42 23,9 °C 20,3 °C 52 % 59 % 1012,2 hPa 0,0 l/m² 8,0 km/h (2 Bft) NO 45 ° 0 min 0 W/m² 12,0 °C 19,7 °C 14,5 km/h (3 Bft)
06.09.2024 04:43 23,9 °C 20,3 °C 52 % 59 % 1012,2 hPa 0,0 l/m² 8,0 km/h (2 Bft) O-NO 67 ° 0 min 0 W/m² 12,0 °C 19,7 °C 12,9 km/h (3 Bft)
06.09.2024 04:44 23,9 °C 20,3 °C 52 % 59 % 1012,2 hPa 0,0 l/m² 9,7 km/h (2 Bft) NO 45 ° 0 min 0 W/m² 12,0 °C 19,1 °C 19,3 km/h (3 Bft)
06.09.2024 04:45 23,9 °C 20,3 °C 52 % 59 % 1012,1 hPa 0,0 l/m² 6,4 km/h (2 Bft) O-NO 67 ° 0 min 0 W/m² 12,0 °C 20,3 °C 12,9 km/h (3 Bft)
06.09.2024 04:46 23,9 °C 20,3 °C 52 % 59 % 1012,2 hPa 0,0 l/m² 8,0 km/h (2 Bft) O-NO 67 ° 0 min 0 W/m² 12,0 °C 19,7 °C 12,9 km/h (3 Bft)
06.09.2024 04:47 23,9 °C 20,3 °C 52 % 59 % 1012,2 hPa 0,0 l/m² 8,0 km/h (2 Bft) O-NO 67 ° 0 min 0 W/m² 12,0 °C 19,7 °C 14,5 km/h (3 Bft)
06.09.2024 04:48 23,9 °C 20,3 °C 52 % 59 % 1012,1 hPa 0,0 l/m² 8,0 km/h (2 Bft) O-NO 67 ° 0 min 0 W/m² 12,0 °C 19,7 °C 14,5 km/h (3 Bft)
06.09.2024 04:49 23,9 °C 20,3 °C 52 % 59 % 1012,2 hPa 0,0 l/m² 6,4 km/h (2 Bft) O 90 ° 0 min 0 W/m² 12,0 °C 20,3 °C 11,3 km/h (2 Bft)
06.09.2024 04:50 23,9 °C 20,3 °C 52 % 59 % 1012,2 hPa 0,0 l/m² 11,3 km/h (2 Bft) NO 45 ° 0 min 0 W/m² 12,0 °C 18,6 °C 17,7 km/h (3 Bft)
06.09.2024 04:51 23,9 °C 20,3 °C 52 % 59 % 1012,1 hPa 0,0 l/m² 8,0 km/h (2 Bft) NO 45 ° 0 min 0 W/m² 12,0 °C 19,7 °C 16,1 km/h (3 Bft)
06.09.2024 04:52 23,9 °C 20,3 °C 52 % 59 % 1012,2 hPa 0,0 l/m² 9,7 km/h (2 Bft) O-NO 67 ° 0 min 0 W/m² 12,0 °C 19,1 °C 14,5 km/h (3 Bft)
06.09.2024 04:53 23,9 °C 20,3 °C 52 % 59 % 1012,2 hPa 0,0 l/m² 8,0 km/h (2 Bft) O-NO 67 ° 0 min 0 W/m² 12,0 °C 19,7 °C 16,1 km/h (3 Bft)
06.09.2024 04:54 23,9 °C 20,3 °C 52 % 59 % 1012,2 hPa 0,0 l/m² 4,8 km/h (1 Bft) O-NO 67 ° 0 min 0 W/m² 12,0 °C 20,3 °C 9,7 km/h (2 Bft)
06.09.2024 04:55 23,9 °C 20,2 °C 52 % 59 % 1012,2 hPa 0,0 l/m² 8,0 km/h (2 Bft) NO 45 ° 0 min 0 W/m² 11,9 °C 19,6 °C 14,5 km/h (3 Bft)
06.09.2024 04:56 23,9 °C 20,2 °C 52 % 59 % 1012,2 hPa 0,0 l/m² 6,4 km/h (2 Bft) NO 45 ° 0 min 0 W/m² 11,9 °C 20,2 °C 9,7 km/h (2 Bft)
06.09.2024 04:57 23,9 °C 20,2 °C 52 % 59 % 1012,2 hPa 0,0 l/m² 11,3 km/h (2 Bft) O-NO 67 ° 0 min 0 W/m² 11,9 °C 18,5 °C 20,9 km/h (4 Bft)
06.09.2024 04:58 23,9 °C 20,2 °C 52 % 59 % 1012,1 hPa 0,0 l/m² 8,0 km/h (2 Bft) O-NO 67 ° 0 min 0 W/m² 11,9 °C 19,6 °C 12,9 km/h (3 Bft)
06.09.2024 04:59 23,9 °C 20,2 °C 52 % 59 % 1012,2 hPa 0,0 l/m² 6,4 km/h (2 Bft) O-NO 67 ° 0 min 0 W/m² 11,9 °C 20,2 °C 14,5 km/h (3 Bft)
06.09.2024 05:00 23,9 °C 20,2 °C 52 % 59 % 1012,2 hPa 0,0 l/m² 11,3 km/h (2 Bft) NO 45 ° 0 min 0 W/m² 11,9 °C 18,5 °C 17,7 km/h (3 Bft)
06.09.2024 05:08 24,0 °C 20,1 °C 52 % 59 % 1012,1 hPa 0,0 l/m² 9,0 km/h (2 Bft) O-NO 63 ° 0 min 0 W/m² 11,8 °C 19,1 °C 14,5 km/h (3 Bft)
06.09.2024 05:09 24,0 °C 20,1 °C 52 % 59 % 1012,1 hPa 0,0 l/m² 10,1 km/h (2 Bft) O-NO 71 ° 0 min 0 W/m² 11,8 °C 18,7 °C 19,3 km/h (3 Bft)
06.09.2024 05:11 24,0 °C 20,1 °C 52 % 59 % 1012,1 hPa 0,0 l/m² 12,1 km/h (2 Bft) NO 48 ° 0 min 0 W/m² 11,8 °C 18,1 °C 17,7 km/h (3 Bft)
06.09.2024 05:13 24,0 °C 20,1 °C 52 % 60 % 1012,1 hPa 0,0 l/m² 9,4 km/h (2 Bft) NO 55 ° 0 min 0 W/m² 12,1 °C 19,0 °C 12,9 km/h (3 Bft)
06.09.2024 05:15 24,1 °C 20,1 °C 52 % 59 % 1012,1 hPa 0,0 l/m² 9,9 km/h (2 Bft) O-NO 78 ° 0 min 0 W/m² 11,8 °C 18,8 °C 16,1 km/h (3 Bft)
06.09.2024 05:17 24,0 °C 20,0 °C 52 % 60 % 1012,1 hPa 0,0 l/m² 8,8 km/h (2 Bft) NO 44 ° 0 min 0 W/m² 12,0 °C 19,1 °C 19,3 km/h (3 Bft)
06.09.2024 05:19 24,1 °C 20,0 °C 52 % 60 % 1012,1 hPa 0,0 l/m² 9,6 km/h (2 Bft) NO 56 ° 0 min 0 W/m² 12,0 °C 18,8 °C 14,5 km/h (3 Bft)
06.09.2024 05:20 24,1 °C 20,0 °C 52 % 60 % 1012,1 hPa 0,0 l/m² 8,0 km/h (2 Bft) O-NO 76 ° 0 min 0 W/m² 12,0 °C 19,4 °C 12,9 km/h (3 Bft)
06.09.2024 05:21 24,1 °C 20,0 °C 52 % 60 % 1012,0 hPa 0,0 l/m² 8,5 km/h (2 Bft) NO 36 ° 0 min 0 W/m² 12,0 °C 19,2 °C 12,9 km/h (3 Bft)
06.09.2024 05:22 24,1 °C 19,9 °C 52 % 60 % 1012,0 hPa 0,0 l/m² 8,4 km/h (2 Bft) O-NO 75 ° 0 min 0 W/m² 11,9 °C 19,1 °C 14,5 km/h (3 Bft)
06.09.2024 05:24 24,1 °C 19,9 °C 52 % 60 % 1012,0 hPa 0,0 l/m² 9,1 km/h (2 Bft) O-NO 58 ° 0 min 0 W/m² 11,9 °C 18,8 °C 16,1 km/h (3 Bft)
06.09.2024 05:26 24,1 °C 19,9 °C 52 % 60 % 1012,1 hPa 0,0 l/m² 8,1 km/h (2 Bft) O-NO 76 ° 0 min 0 W/m² 11,9 °C 19,2 °C 17,7 km/h (3 Bft)
06.09.2024 05:28 24,1 °C 19,9 °C 52 % 60 % 1012,1 hPa 0,0 l/m² 9,3 km/h (2 Bft) O-NO 75 ° 0 min 0 W/m² 11,9 °C 18,8 °C 14,5 km/h (3 Bft)
06.09.2024 05:30 24,1 °C 19,9 °C 52 % 60 % 1012,1 hPa 0,0 l/m² 7,5 km/h (2 Bft) NO 50 ° 0 min 0 W/m² 11,9 °C 19,4 °C 14,5 km/h (3 Bft)
06.09.2024 05:31 24,1 °C 19,9 °C 52 % 60 % 1012,0 hPa 0,0 l/m² 10,4 km/h (2 Bft) O-NO 66 ° 0 min 0 W/m² 11,9 °C 18,4 °C 16,1 km/h (3 Bft)
06.09.2024 05:32 24,1 °C 19,9 °C 52 % 60 % 1012,0 hPa 0,0 l/m² 7,7 km/h (2 Bft) O 96 ° 0 min 0 W/m² 11,9 °C 19,4 °C 12,9 km/h (3 Bft)
06.09.2024 05:33 24,1 °C 19,8 °C 52 % 60 % 1012,1 hPa 0,0 l/m² 10,3 km/h (2 Bft) NO 56 ° 0 min 0 W/m² 11,8 °C 18,3 °C 17,7 km/h (3 Bft)
06.09.2024 05:35 24,1 °C 19,8 °C 52 % 60 % 1012,1 hPa 0,0 l/m² 6,9 km/h (2 Bft) O 80 ° 0 min 0 W/m² 11,8 °C 19,6 °C 14,5 km/h (3 Bft)
06.09.2024 05:37 24,1 °C 19,8 °C 52 % 60 % 1012,1 hPa 0,0 l/m² 6,7 km/h (2 Bft) O-NO 67 ° 0 min 0 W/m² 11,8 °C 19,7 °C 14,5 km/h (3 Bft)
06.09.2024 05:39 24,1 °C 19,8 °C 51 % 60 % 1012,1 hPa 0,0 l/m² 6,7 km/h (2 Bft) O 84 ° 0 min 0 W/m² 11,8 °C 19,7 °C 11,3 km/h (2 Bft)
06.09.2024 05:40 24,1 °C 19,8 °C 51 % 60 % 1012,2 hPa 0,0 l/m² 7,2 km/h (2 Bft) O-NO 64 ° 0 min 0 W/m² 11,8 °C 19,5 °C 12,9 km/h (3 Bft)
06.09.2024 05:42 24,1 °C 19,8 °C 51 % 60 % 1012,2 hPa 0,0 l/m² 6,8 km/h (2 Bft) O-NO 78 ° 0 min 0 W/m² 11,8 °C 19,6 °C 14,5 km/h (3 Bft)
06.09.2024 05:44 24,1 °C 19,7 °C 51 % 60 % 1012,3 hPa 0,0 l/m² 7,0 km/h (2 Bft) O-NO 75 ° 0 min 0 W/m² 11,7 °C 19,5 °C 14,5 km/h (3 Bft)
06.09.2024 05:46 24,1 °C 19,7 °C 51 % 60 % 1012,3 hPa 0,0 l/m² 6,8 km/h (2 Bft) O 84 ° 0 min 0 W/m² 11,7 °C 19,5 °C 11,3 km/h (2 Bft)
06.09.2024 05:48 24,1 °C 19,6 °C 51 % 60 % 1012,3 hPa 0,0 l/m² 6,4 km/h (2 Bft) O-NO 72 ° 0 min 0 W/m² 11,6 °C 19,6 °C 12,9 km/h (3 Bft)
06.09.2024 05:50 24,1 °C 19,6 °C 52 % 61 % 1012,3 hPa 0,0 l/m² 4,1 km/h (1 Bft) O-NO 65 ° 0 min 0 W/m² 11,9 °C 19,6 °C 6,4 km/h (2 Bft)
06.09.2024 05:51 24,1 °C 19,5 °C 51 % 61 % 1012,2 hPa 0,0 l/m² 3,9 km/h (1 Bft) O-NO 72 ° 0 min 0 W/m² 11,8 °C 19,5 °C 6,4 km/h (2 Bft)
06.09.2024 05:52 24,1 °C 19,5 °C 52 % 61 % 1012,3 hPa 0,0 l/m² 4,4 km/h (1 Bft) NO 55 ° 0 min 0 W/m² 11,8 °C 19,5 °C 6,4 km/h (2 Bft)
06.09.2024 05:53 24,1 °C 19,4 °C 51 % 61 % 1012,3 hPa 0,0 l/m² 3,8 km/h (1 Bft) NO 55 ° 0 min 0 W/m² 11,7 °C 19,4 °C 4,8 km/h (1 Bft)
06.09.2024 05:54 24,1 °C 19,4 °C 51 % 61 % 1012,3 hPa 0,0 l/m² 5,8 km/h (2 Bft) NO 53 ° 0 min 0 W/m² 11,7 °C 19,4 °C 9,7 km/h (2 Bft)
06.09.2024 05:56 24,1 °C 19,4 °C 51 % 61 % 1012,3 hPa 0,0 l/m² 3,1 km/h (1 Bft) O-NO 67 ° 0 min 0 W/m² 11,7 °C 19,4 °C 6,4 km/h (2 Bft)
06.09.2024 05:58 24,1 °C 19,4 °C 51 % 61 % 1012,2 hPa 0,0 l/m² 2,3 km/h (1 Bft) O-NO 59 ° 0 min 0 W/m² 11,7 °C 19,4 °C 4,8 km/h (1 Bft)
06.09.2024 06:00 24,1 °C 19,3 °C 51 % 61 % 1012,3 hPa 0,0 l/m² 2,2 km/h (1 Bft) O-NO 58 ° 0 min 0 W/m² 11,6 °C 19,3 °C 6,4 km/h (2 Bft)
06.09.2024 06:01 24,1 °C 19,3 °C 51 % 61 % 1012,3 hPa 0,0 l/m² 2,0 km/h (1 Bft) O-NO 57 ° 0 min 0 W/m² 11,6 °C 19,3 °C 4,8 km/h (1 Bft)
06.09.2024 06:02 24,1 °C 19,3 °C 51 % 61 % 1012,3 hPa 0,0 l/m² 1,9 km/h (1 Bft) NO 53 ° 0 min 0 W/m² 11,6 °C 19,3 °C 6,4 km/h (2 Bft)
06.09.2024 06:03 24,1 °C 19,3 °C 51 % 61 % 1012,3 hPa 0,0 l/m² 2,5 km/h (1 Bft) NO 52 ° 0 min 0 W/m² 11,6 °C 19,3 °C 8,0 km/h (2 Bft)
06.09.2024 06:05 24,1 °C 19,2 °C 51 % 61 % 1012,3 hPa 0,0 l/m² 5,6 km/h (2 Bft) O-NO 65 ° 0 min 0 W/m² 11,5 °C 19,2 °C 8,0 km/h (2 Bft)
06.09.2024 06:07 24,1 °C 19,2 °C 51 % 61 % 1012,2 hPa 0,0 l/m² 5,4 km/h (2 Bft) NO 53 ° 0 min 0 W/m² 11,5 °C 19,2 °C 8,0 km/h (2 Bft)
06.09.2024 06:09 24,1 °C 19,1 °C 50 % 62 % 1012,2 hPa 0,0 l/m² 5,3 km/h (1 Bft) NO 43 ° 0 min 0 W/m² 11,6 °C 19,1 °C 8,0 km/h (2 Bft)
06.09.2024 06:10 24,1 °C 19,2 °C 50 % 62 % 1012,3 hPa 0,0 l/m² 4,4 km/h (1 Bft) NO 45 ° 0 min 0 W/m² 11,7 °C 19,2 °C 8,0 km/h (2 Bft)
06.09.2024 06:12 24,1 °C 19,1 °C 50 % 62 % 1012,2 hPa 0,0 l/m² 5,9 km/h (2 Bft) O-NO 61 ° 0 min 0 W/m² 11,6 °C 19,1 °C 12,9 km/h (3 Bft)
06.09.2024 06:14 24,1 °C 19,1 °C 50 % 62 % 1012,2 hPa 0,0 l/m² 6,2 km/h (2 Bft) O-NO 62 ° 0 min 0 W/m² 11,6 °C 19,1 °C 11,3 km/h (2 Bft)
06.09.2024 06:16 24,0 °C 19,1 °C 50 % 62 % 1012,3 hPa 0,0 l/m² 5,9 km/h (2 Bft) NO 36 ° 0 min 0 W/m² 11,6 °C 19,1 °C 12,9 km/h (3 Bft)
06.09.2024 06:18 24,0 °C 19,1 °C 50 % 62 % 1012,3 hPa 0,0 l/m² 7,6 km/h (2 Bft) O 82 ° 0 min 0 W/m² 11,6 °C 18,6 °C 12,9 km/h (3 Bft)
06.09.2024 06:20 24,0 °C 19,1 °C 50 % 62 % 1012,3 hPa 0,0 l/m² 7,8 km/h (2 Bft) O-SO 108 ° 0 min 0 W/m² 11,6 °C 18,5 °C 14,5 km/h (3 Bft)
06.09.2024 06:21 24,0 °C 19,1 °C 50 % 62 % 1012,3 hPa 0,0 l/m² 7,1 km/h (2 Bft) O-NO 74 ° 0 min 0 W/m² 11,6 °C 18,8 °C 11,3 km/h (2 Bft)
06.09.2024 06:22 24,0 °C 19,1 °C 49 % 62 % 1012,3 hPa 0,0 l/m² 7,7 km/h (2 Bft) O-NO 65 ° 0 min 0 W/m² 11,6 °C 18,5 °C 12,9 km/h (3 Bft)
06.09.2024 06:23 23,9 °C 19,1 °C 49 % 62 % 1012,4 hPa 0,0 l/m² 3,6 km/h (1 Bft) N-NO 27 ° 0 min 0 W/m² 11,6 °C 19,1 °C 8,0 km/h (2 Bft)
06.09.2024 06:25 24,0 °C 19,1 °C 49 % 62 % 1012,3 hPa 0,0 l/m² 5,5 km/h (2 Bft) O-NO 63 ° 0 min 0 W/m² 11,6 °C 19,1 °C 8,0 km/h (2 Bft)
06.09.2024 06:27 24,0 °C 19,1 °C 49 % 62 % 1012,3 hPa 0,0 l/m² 6,0 km/h (2 Bft) O-NO 65 ° 0 min 0 W/m² 11,6 °C 19,1 °C 16,1 km/h (3 Bft)
06.09.2024 06:29 23,9 °C 19,0 °C 49 % 62 % 1012,3 hPa 0,0 l/m² 3,9 km/h (1 Bft) NO 56 ° 0 min 0 W/m² 11,6 °C 19,0 °C 8,0 km/h (2 Bft)
06.09.2024 06:30 23,9 °C 19,0 °C 49 % 62 % 1012,3 hPa 0,0 l/m² 4,6 km/h (1 Bft) NO 52 ° 0 min 0 W/m² 11,6 °C 19,0 °C 9,7 km/h (2 Bft)
06.09.2024 06:32 23,9 °C 18,9 °C 49 % 62 % 1012,3 hPa 0,0 l/m² 4,8 km/h (1 Bft) O-NO 71 ° 0 min 0 W/m² 11,5 °C 18,9 °C 8,0 km/h (2 Bft)
06.09.2024 06:34 23,9 °C 18,9 °C 49 % 62 % 1012,3 hPa 0,0 l/m² 5,8 km/h (2 Bft) O-NO 68 ° 0 min 0 W/m² 11,5 °C 18,9 °C 14,5 km/h (3 Bft)
06.09.2024 06:36 23,9 °C 18,9 °C 49 % 62 % 1012,4 hPa 0,0 l/m² 5,6 km/h (2 Bft) NO 49 ° 0 min 5 W/m² 11,5 °C 18,9 °C 12,9 km/h (3 Bft)
06.09.2024 06:37 23,9 °C 18,9 °C 49 % 62 % 1012,3 hPa 0,0 l/m² 5,6 km/h (2 Bft) O-NO 57 ° 0 min 5 W/m² 11,5 °C 18,9 °C 8,0 km/h (2 Bft)
06.09.2024 06:39 23,9 °C 18,9 °C 49 % 62 % 1012,4 hPa 0,0 l/m² 4,4 km/h (1 Bft) NO 55 ° 0 min 7 W/m² 11,5 °C 18,9 °C 9,7 km/h (2 Bft)
06.09.2024 06:41 23,9 °C 18,9 °C 49 % 62 % 1012,4 hPa 0,0 l/m² 3,7 km/h (1 Bft) O-NO 65 ° 0 min 7 W/m² 11,5 °C 18,9 °C 9,7 km/h (2 Bft)
06.09.2024 06:42 23,9 °C 18,8 °C 50 % 62 % 1012,4 hPa 0,0 l/m² 6,5 km/h (2 Bft) O-NO 65 ° 0 min 9 W/m² 11,4 °C 18,8 °C 9,7 km/h (2 Bft)
06.09.2024 06:43 23,9 °C 18,8 °C 50 % 62 % 1012,4 hPa 0,0 l/m² 5,6 km/h (2 Bft) O-NO 65 ° 0 min 9 W/m² 11,4 °C 18,8 °C 8,0 km/h (2 Bft)
06.09.2024 06:44 24,0 °C 18,8 °C 50 % 62 % 1012,5 hPa 0,0 l/m² 3,6 km/h (1 Bft) NO 52 ° 0 min 9 W/m² 11,4 °C 18,8 °C 8,0 km/h (2 Bft)
06.09.2024 06:46 23,9 °C 18,9 °C 50 % 62 % 1012,4 hPa 0,0 l/m² 5,6 km/h (2 Bft) O-NO 74 ° 0 min 11 W/m² 11,5 °C 18,9 °C 9,7 km/h (2 Bft)
06.09.2024 06:47 24,0 °C 18,9 °C 50 % 62 % 1012,5 hPa 0,0 l/m² 5,5 km/h (2 Bft) NO 39 ° 0 min 11 W/m² 11,5 °C 18,9 °C 8,0 km/h (2 Bft)
06.09.2024 06:49 23,9 °C 18,9 °C 50 % 62 % 1012,5 hPa 0,0 l/m² 3,1 km/h (1 Bft) NO 51 ° 0 min 12 W/m² 11,5 °C 18,9 °C 6,4 km/h (2 Bft)
06.09.2024 06:50 24,0 °C 18,9 °C 50 % 62 % 1012,7 hPa 0,0 l/m² 5,6 km/h (2 Bft) NO 56 ° 0 min 12 W/m² 11,5 °C 18,9 °C 9,7 km/h (2 Bft)
06.09.2024 06:51 24,0 °C 18,8 °C 50 % 62 % 1012,7 hPa 0,0 l/m² 2,8 km/h (1 Bft) O-NO 67 ° 0 min 14 W/m² 11,4 °C 18,8 °C 4,8 km/h (1 Bft)
06.09.2024 06:52 24,0 °C 18,8 °C 50 % 63 % 1012,5 hPa 0,0 l/m² 2,5 km/h (1 Bft) NO 36 ° 0 min 14 W/m² 11,6 °C 18,8 °C 6,4 km/h (2 Bft)
06.09.2024 06:54 24,0 °C 18,8 °C 50 % 62 % 1012,5 hPa 0,0 l/m² 3,3 km/h (1 Bft) NO 48 ° 0 min 16 W/m² 11,4 °C 18,8 °C 4,8 km/h (1 Bft)
06.09.2024 06:56 24,0 °C 18,9 °C 50 % 62 % 1012,5 hPa 0,0 l/m² 3,6 km/h (1 Bft) O-NO 63 ° 0 min 18 W/m² 11,5 °C 18,9 °C 8,0 km/h (2 Bft)
06.09.2024 06:58 24,0 °C 18,8 °C 50 % 62 % 1012,7 hPa 0,0 l/m² 3,4 km/h (1 Bft) NO 44 ° 0 min 19 W/m² 11,4 °C 18,8 °C 6,4 km/h (2 Bft)
06.09.2024 07:00 24,0 °C 18,8 °C 50 % 63 % 1012,5 hPa 0,0 l/m² 3,3 km/h (1 Bft) NO 46 ° 0 min 21 W/m² 11,6 °C 18,8 °C 6,4 km/h (2 Bft)
06.09.2024 07:01 24,1 °C 18,8 °C 50 % 62 % 1012,6 hPa 0,0 l/m² 4,7 km/h (1 Bft) O-NO 66 ° 0 min 21 W/m² 11,4 °C 18,8 °C 9,7 km/h (2 Bft)
06.09.2024 07:02 24,1 °C 18,8 °C 50 % 63 % 1012,6 hPa 0,0 l/m² 6,1 km/h (2 Bft) NO 47 ° 0 min 23 W/m² 11,6 °C 18,8 °C 11,3 km/h (2 Bft)
06.09.2024 07:03 24,1 °C 18,8 °C 50 % 63 % 1012,7 hPa 0,0 l/m² 7,0 km/h (2 Bft) O-NO 74 ° 0 min 23 W/m² 11,6 °C 18,5 °C 11,3 km/h (2 Bft)
06.09.2024 07:05 24,1 °C 18,8 °C 50 % 63 % 1012,6 hPa 0,0 l/m² 4,0 km/h (1 Bft) NO 49 ° 0 min 25 W/m² 11,6 °C 18,8 °C 9,7 km/h (2 Bft)
06.09.2024 07:07 24,1 °C 18,8 °C 50 % 63 % 1012,7 hPa 0,0 l/m² 4,5 km/h (1 Bft) O 94 ° 0 min 28 W/m² 11,6 °C 18,8 °C 9,7 km/h (2 Bft)
06.09.2024 07:09 24,1 °C 18,8 °C 49 % 63 % 1012,7 hPa 0,0 l/m² 4,8 km/h (1 Bft) O-NO 72 ° 0 min 28 W/m² 11,6 °C 18,8 °C 11,3 km/h (2 Bft)
06.09.2024 07:10 24,0 °C 18,8 °C 50 % 63 % 1012,7 hPa 0,0 l/m² 5,8 km/h (2 Bft) O-NO 74 ° 0 min 30 W/m² 11,6 °C 18,8 °C 11,3 km/h (2 Bft)
06.09.2024 07:11 24,0 °C 18,8 °C 50 % 63 % 1012,7 hPa 0,0 l/m² 3,7 km/h (1 Bft) NO 55 ° 0 min 30 W/m² 11,6 °C 18,8 °C 4,8 km/h (1 Bft)
06.09.2024 07:12 24,1 °C 18,8 °C 49 % 63 % 1012,7 hPa 0,0 l/m² 5,0 km/h (1 Bft) O-NO 70 ° 0 min 32 W/m² 11,6 °C 18,8 °C 6,4 km/h (2 Bft)
06.09.2024 07:14 24,1 °C 18,8 °C 50 % 63 % 1012,6 hPa 0,0 l/m² 4,1 km/h (1 Bft) O 92 ° 0 min 33 W/m² 11,6 °C 18,8 °C 8,0 km/h (2 Bft)
06.09.2024 07:16 24,1 °C 18,8 °C 50 % 63 % 1012,6 hPa 0,0 l/m² 6,2 km/h (2 Bft) O-NO 69 ° 0 min 37 W/m² 11,6 °C 18,8 °C 12,9 km/h (3 Bft)
06.09.2024 07:18 24,1 °C 18,9 °C 50 % 63 % 1012,6 hPa 0,0 l/m² 5,4 km/h (2 Bft) O-NO 69 ° 0 min 39 W/m² 11,7 °C 18,9 °C 9,7 km/h (2 Bft)
06.09.2024 07:20 24,1 °C 18,9 °C 50 % 63 % 1012,6 hPa 0,0 l/m² 3,7 km/h (1 Bft) NO 52 ° 0 min 42 W/m² 11,7 °C 18,9 °C 8,0 km/h (2 Bft)
06.09.2024 07:21 24,1 °C 18,9 °C 50 % 62 % 1012,6 hPa 0,0 l/m² 3,2 km/h (1 Bft) O-NO 61 ° 0 min 44 W/m² 11,5 °C 18,9 °C 6,4 km/h (2 Bft)
06.09.2024 07:22 24,1 °C 18,9 °C 50 % 63 % 1012,6 hPa 0,0 l/m² 7,4 km/h (2 Bft) NO 49 ° 0 min 47 W/m² 11,7 °C 18,5 °C 12,9 km/h (3 Bft)
06.09.2024 07:23 24,1 °C 18,9 °C 50 % 63 % 1012,6 hPa 0,0 l/m² 4,6 km/h (1 Bft) NO 44 ° 0 min 49 W/m² 11,7 °C 18,9 °C 8,0 km/h (2 Bft)
06.09.2024 07:25 24,1 °C 19,0 °C 50 % 63 % 1012,6 hPa 0,0 l/m² 7,7 km/h (2 Bft) NO 46 ° 2 min 53 W/m² 11,8 °C 18,4 °C 12,9 km/h (3 Bft)
06.09.2024 07:27 24,1 °C 19,1 °C 50 % 62 % 1012,6 hPa 0,0 l/m² 6,7 km/h (2 Bft) O 92 ° 2 min 56 W/m² 11,6 °C 19,0 °C 11,3 km/h (2 Bft)
06.09.2024 07:29 24,1 °C 19,1 °C 50 % 62 % 1012,5 hPa 0,0 l/m² 5,9 km/h (2 Bft) O 87 ° 2 min 60 W/m² 11,6 °C 19,1 °C 9,7 km/h (2 Bft)
06.09.2024 07:30 24,1 °C 19,1 °C 50 % 62 % 1012,5 hPa 0,0 l/m² 5,8 km/h (2 Bft) NO 53 ° 1 min 62 W/m² 11,6 °C 19,1 °C 9,7 km/h (2 Bft)
06.09.2024 07:31 24,1 °C 19,2 °C 50 % 62 % 1012,5 hPa 0,0 l/m² 4,8 km/h (1 Bft) NO 42 ° 1 min 63 W/m² 11,7 °C 19,2 °C 8,0 km/h (2 Bft)
06.09.2024 07:32 24,1 °C 19,2 °C 50 % 62 % 1012,5 hPa 0,0 l/m² 5,8 km/h (2 Bft) O-NO 62 ° 1 min 63 W/m² 11,7 °C 19,2 °C 9,7 km/h (2 Bft)
06.09.2024 07:34 24,1 °C 19,2 °C 50 % 62 % 1012,5 hPa 0,0 l/m² 6,9 km/h (2 Bft) O-NO 69 ° 2 min 65 W/m² 11,7 °C 19,0 °C 12,9 km/h (3 Bft)
06.09.2024 07:36 24,1 °C 19,3 °C 50 % 62 % 1012,5 hPa 0,0 l/m² 7,0 km/h (2 Bft) O-NO 78 ° 2 min 69 W/m² 11,8 °C 19,0 °C 14,5 km/h (3 Bft)
06.09.2024 07:38 24,1 °C 19,3 °C 50 % 62 % 1012,5 hPa 0,0 l/m² 7,7 km/h (2 Bft) O-NO 69 ° 2 min 70 W/m² 11,8 °C 18,7 °C 14,5 km/h (3 Bft)
06.09.2024 07:40 24,1 °C 19,3 °C 51 % 61 % 1012,5 hPa 0,0 l/m² 7,6 km/h (2 Bft) O-NO 69 ° 2 min 72 W/m² 11,6 °C 18,8 °C 11,3 km/h (2 Bft)
06.09.2024 07:41 24,1 °C 19,4 °C 51 % 61 % 1012,5 hPa 0,0 l/m² 4,9 km/h (1 Bft) O 88 ° 1 min 76 W/m² 11,7 °C 19,4 °C 6,4 km/h (2 Bft)
06.09.2024 07:42 24,1 °C 19,4 °C 51 % 61 % 1012,5 hPa 0,0 l/m² 5,2 km/h (1 Bft) O-NO 63 ° 1 min 76 W/m² 11,7 °C 19,4 °C 8,0 km/h (2 Bft)
06.09.2024 07:43 24,1 °C 19,4 °C 51 % 62 % 1012,5 hPa 0,0 l/m² 5,8 km/h (2 Bft) O 92 ° 1 min 77 W/m² 11,9 °C 19,4 °C 8,0 km/h (2 Bft)
06.09.2024 07:45 24,1 °C 19,5 °C 51 % 62 % 1012,5 hPa 0,0 l/m² 4,4 km/h (1 Bft) O-NO 61 ° 2 min 83 W/m² 12,0 °C 19,5 °C 8,0 km/h (2 Bft)
06.09.2024 07:46 24,1 °C 19,5 °C 51 % 62 % 1012,5 hPa 0,0 l/m² 4,7 km/h (1 Bft) O-NO 71 ° 1 min 84 W/m² 12,0 °C 19,5 °C 6,4 km/h (2 Bft)
06.09.2024 07:47 24,1 °C 19,5 °C 51 % 61 % 1012,5 hPa 0,0 l/m² 4,7 km/h (1 Bft) NO 38 ° 1 min 86 W/m² 11,8 °C 19,5 °C 8,0 km/h (2 Bft)
06.09.2024 07:49 24,1 °C 19,6 °C 51 % 61 % 1012,5 hPa 0,0 l/m² 6,7 km/h (2 Bft) O-NO 72 ° 2 min 93 W/m² 11,9 °C 19,5 °C 12,9 km/h (3 Bft)
06.09.2024 07:51 24,1 °C 19,6 °C 51 % 62 % 1012,6 hPa 0,0 l/m² 6,3 km/h (2 Bft) O-NO 75 ° 2 min 98 W/m² 12,1 °C 19,6 °C 12,9 km/h (3 Bft)
06.09.2024 07:52 24,1 °C 19,7 °C 51 % 61 % 1012,5 hPa 0,0 l/m² 7,3 km/h (2 Bft) O 79 ° 1 min 100 W/m² 12,0 °C 19,3 °C 11,3 km/h (2 Bft)
06.09.2024 07:53 24,1 °C 19,7 °C 51 % 62 % 1012,5 hPa 0,0 l/m² 5,5 km/h (2 Bft) NO 48 ° 1 min 104 W/m² 12,2 °C 19,7 °C 6,4 km/h (2 Bft)
06.09.2024 07:54 24,1 °C 19,7 °C 51 % 62 % 1012,5 hPa 0,0 l/m² 2,6 km/h (1 Bft) O 84 ° 1 min 109 W/m² 12,2 °C 19,7 °C 6,4 km/h (2 Bft)
06.09.2024 07:56 24,1 °C 19,7 °C 51 % 62 % 1012,6 hPa 0,0 l/m² 5,4 km/h (2 Bft) O-NO 58 ° 2 min 116 W/m² 12,2 °C 19,7 °C 9,7 km/h (2 Bft)
06.09.2024 07:58 24,1 °C 19,8 °C 51 % 61 % 1012,6 hPa 0,0 l/m² 3,6 km/h (1 Bft) NO 42 ° 2 min 123 W/m² 12,1 °C 19,8 °C 8,0 km/h (2 Bft)
06.09.2024 08:00 24,1 °C 19,8 °C 51 % 61 % 1012,6 hPa 0,0 l/m² 7,1 km/h (2 Bft) NO 55 ° 2 min 134 W/m² 12,1 °C 19,5 °C 12,9 km/h (3 Bft)
06.09.2024 08:01 24,2 °C 19,9 °C 51 % 61 % 1012,6 hPa 0,0 l/m² 4,4 km/h (1 Bft) O-NO 76 ° 1 min 139 W/m² 12,2 °C 19,9 °C 8,0 km/h (2 Bft)
06.09.2024 08:02 24,2 °C 19,9 °C 51 % 61 % 1012,5 hPa 0,0 l/m² 5,7 km/h (2 Bft) O-NO 57 ° 1 min 142 W/m² 12,2 °C 19,9 °C 9,7 km/h (2 Bft)
06.09.2024 08:03 24,2 °C 19,9 °C 51 % 61 % 1012,6 hPa 0,0 l/m² 10,8 km/h (2 Bft) O 82 ° 1 min 146 W/m² 12,2 °C 18,3 °C 14,5 km/h (3 Bft)
06.09.2024 08:05 24,2 °C 19,9 °C 51 % 61 % 1012,6 hPa 0,0 l/m² 5,3 km/h (1 Bft) O-NO 67 ° 2 min 151 W/m² 12,2 °C 19,9 °C 11,3 km/h (2 Bft)
06.09.2024 08:07 24,2 °C 20,1 °C 51 % 61 % 1012,7 hPa 0,0 l/m² 6,5 km/h (2 Bft) O 88 ° 2 min 158 W/m² 12,3 °C 20,1 °C 12,9 km/h (3 Bft)
06.09.2024 08:09 24,2 °C 20,1 °C 51 % 61 % 1012,6 hPa 0,0 l/m² 5,5 km/h (2 Bft) O 82 ° 2 min 163 W/m² 12,3 °C 20,1 °C 9,7 km/h (2 Bft)
06.09.2024 08:11 24,2 °C 20,2 °C 51 % 60 % 1012,7 hPa 0,0 l/m² 8,1 km/h (2 Bft) O 90 ° 2 min 169 W/m² 12,2 °C 19,5 °C 14,5 km/h (3 Bft)
06.09.2024 08:12 24,2 °C 20,2 °C 51 % 60 % 1012,7 hPa 0,0 l/m² 6,7 km/h (2 Bft) O-NO 68 ° 1 min 174 W/m² 12,2 °C 20,1 °C 11,3 km/h (2 Bft)
06.09.2024 08:13 24,2 °C 20,2 °C 51 % 61 % 1012,7 hPa 0,0 l/m² 8,9 km/h (2 Bft) NO 41 ° 1 min 178 W/m² 12,4 °C 19,2 °C 12,9 km/h (3 Bft)
06.09.2024 08:14 24,2 °C 20,2 °C 51 % 60 % 1012,7 hPa 0,0 l/m² 9,6 km/h (2 Bft) O 85 ° 1 min 181 W/m² 12,2 °C 19,0 °C 12,9 km/h (3 Bft)
06.09.2024 08:16 24,2 °C 20,3 °C 52 % 60 % 1012,7 hPa 0,0 l/m² 8,7 km/h (2 Bft) O-NO 62 ° 2 min 188 W/m² 12,3 °C 19,4 °C 12,9 km/h (3 Bft)
06.09.2024 08:18 24,2 °C 20,3 °C 52 % 60 % 1012,7 hPa 0,0 l/m² 9,3 km/h (2 Bft) NO 39 ° 2 min 193 W/m² 12,3 °C 19,2 °C 14,5 km/h (3 Bft)
06.09.2024 08:20 24,2 °C 20,4 °C 52 % 60 % 1012,7 hPa 0,0 l/m² 6,0 km/h (2 Bft) NO 35 ° 2 min 197 W/m² 12,4 °C 20,4 °C 12,9 km/h (3 Bft)
06.09.2024 08:21 24,2 °C 20,4 °C 52 % 60 % 1012,8 hPa 0,0 l/m² 8,4 km/h (2 Bft) O-NO 67 ° 1 min 199 W/m² 12,4 °C 19,6 °C 14,5 km/h (3 Bft)
06.09.2024 08:22 24,2 °C 20,4 °C 52 % 59 % 1012,7 hPa 0,0 l/m² 6,7 km/h (2 Bft) O 81 ° 1 min 207 W/m² 12,1 °C 20,3 °C 11,3 km/h (2 Bft)
06.09.2024 08:23 24,2 °C 20,5 °C 52 % 59 % 1012,7 hPa 0,0 l/m² 5,4 km/h (2 Bft) O 86 ° 1 min 211 W/m² 12,2 °C 20,5 °C 8,0 km/h (2 Bft)
06.09.2024 08:25 24,2 °C 20,6 °C 52 % 60 % 1012,7 hPa 0,0 l/m² 6,0 km/h (2 Bft) O-NO 59 ° 2 min 220 W/m² 12,6 °C 20,6 °C 12,9 km/h (3 Bft)
06.09.2024 08:27 24,2 °C 20,6 °C 52 % 59 % 1012,8 hPa 0,0 l/m² 10,3 km/h (2 Bft) O 84 ° 2 min 223 W/m² 12,3 °C 19,2 °C 19,3 km/h (3 Bft)
06.09.2024 08:29 24,2 °C 20,7 °C 52 % 59 % 1012,8 hPa 0,0 l/m² 12,1 km/h (2 Bft) O-NO 77 ° 2 min 230 W/m² 12,4 °C 18,8 °C 17,7 km/h (3 Bft)
06.09.2024 08:31 24,2 °C 20,7 °C 52 % 58 % 1012,8 hPa 0,0 l/m² 6,9 km/h (2 Bft) O-NO 78 ° 2 min 193 W/m² 12,1 °C 20,5 °C 11,3 km/h (2 Bft)
06.09.2024 08:33 24,2 °C 20,8 °C 52 % 58 % 1012,8 hPa 0,0 l/m² 6,6 km/h (2 Bft) NO 45 ° 2 min 237 W/m² 12,2 °C 20,7 °C 11,3 km/h (2 Bft)
06.09.2024 08:35 24,2 °C 20,8 °C 52 % 58 % 1012,8 hPa 0,0 l/m² 7,6 km/h (2 Bft) O 82 ° 2 min 102 W/m² 12,2 °C 20,3 °C 14,5 km/h (3 Bft)
06.09.2024 08:37 24,2 °C 20,7 °C 52 % 58 % 1012,8 hPa 0,0 l/m² 9,3 km/h (2 Bft) O-NO 71 ° 2 min 250 W/m² 12,1 °C 19,6 °C 16,1 km/h (3 Bft)
06.09.2024 08:39 24,2 °C 20,7 °C 52 % 59 % 1012,8 hPa 0,0 l/m² 4,4 km/h (1 Bft) O 95 ° 2 min 105 W/m² 12,4 °C 20,7 °C 6,4 km/h (2 Bft)
06.09.2024 08:41 24,2 °C 20,7 °C 52 % 59 % 1012,8 hPa 0,0 l/m² 7,0 km/h (2 Bft) O-NO 75 ° 2 min 292 W/m² 12,4 °C 20,5 °C 12,9 km/h (3 Bft)
06.09.2024 08:43 24,2 °C 20,9 °C 52 % 59 % 1012,9 hPa 0,0 l/m² 5,0 km/h (1 Bft) O-SO 104 ° 2 min 269 W/m² 12,6 °C 20,9 °C 8,0 km/h (2 Bft)
06.09.2024 08:45 24,2 °C 21,1 °C 52 % 58 % 1012,8 hPa 0,0 l/m² 6,2 km/h (2 Bft) NO 45 ° 2 min 251 W/m² 12,5 °C 21,1 °C 9,7 km/h (2 Bft)
06.09.2024 08:47 24,2 °C 21,2 °C 52 % 59 % 1012,9 hPa 0,0 l/m² 4,7 km/h (1 Bft) O 84 ° 2 min 297 W/m² 12,9 °C 21,2 °C 8,0 km/h (2 Bft)
06.09.2024 08:49 24,2 °C 21,3 °C 52 % 57 % 1012,9 hPa 0,0 l/m² 5,5 km/h (2 Bft) O-NO 72 ° 2 min 341 W/m² 12,4 °C 21,3 °C 11,3 km/h (2 Bft)
06.09.2024 08:51 24,2 °C 21,4 °C 52 % 57 % 1013,0 hPa 0,0 l/m² 7,2 km/h (2 Bft) O-NO 64 ° 2 min 336 W/m² 12,5 °C 21,1 °C 12,9 km/h (3 Bft)
06.09.2024 08:53 24,2 °C 21,7 °C 52 % 57 % 1012,9 hPa 0,0 l/m² 8,1 km/h (2 Bft) O-NO 67 ° 2 min 330 W/m² 12,8 °C 21,1 °C 16,1 km/h (3 Bft)
06.09.2024 08:55 24,2 °C 21,7 °C 52 % 55 % 1012,9 hPa 0,0 l/m² 12,5 km/h (2 Bft) O 82 ° 2 min 183 W/m² 12,3 °C 19,9 °C 19,3 km/h (3 Bft)
06.09.2024 08:57 24,2 °C 21,6 °C 52 % 56 % 1012,9 hPa 0,0 l/m² 7,3 km/h (2 Bft) NO 49 ° 2 min 230 W/m² 12,4 °C 21,3 °C 16,1 km/h (3 Bft)
06.09.2024 08:59 24,2 °C 21,7 °C 52 % 57 % 1013,0 hPa 0,0 l/m² 12,1 km/h (2 Bft) O-NO 67 ° 2 min 345 W/m² 12,8 °C 20,0 °C 22,5 km/h (4 Bft)
06.09.2024 09:01 24,2 °C 21,8 °C 52 % 57 % 1012,9 hPa 0,0 l/m² 10,6 km/h (2 Bft) O 90 ° 2 min 345 W/m² 12,9 °C 20,5 °C 16,1 km/h (3 Bft)
06.09.2024 09:03 24,2 °C 21,8 °C 52 % 56 % 1012,9 hPa 0,0 l/m² 10,7 km/h (2 Bft) O 81 ° 2 min 183 W/m² 12,6 °C 20,4 °C 19,3 km/h (3 Bft)
06.09.2024 09:05 24,2 °C 21,7 °C 52 % 56 % 1013,0 hPa 0,0 l/m² 12,1 km/h (2 Bft) O-NO 70 ° 2 min 336 W/m² 12,5 °C 20,0 °C 19,3 km/h (3 Bft)
06.09.2024 09:06 24,2 °C 21,7 °C 52 % 56 % 1012,9 hPa 0,0 l/m² 13,8 km/h (3 Bft) O-SO 103 ° 1 min 341 W/m² 12,5 °C 19,6 °C 17,7 km/h (3 Bft)
06.09.2024 09:07 24,2 °C 21,7 °C 52 % 56 % 1012,9 hPa 0,0 l/m² 11,3 km/h (2 Bft) O-NO 74 ° 1 min 353 W/m² 12,5 °C 20,2 °C 16,1 km/h (3 Bft)
06.09.2024 09:09 24,2 °C 21,8 °C 52 % 56 % 1012,9 hPa 0,0 l/m² 9,0 km/h (2 Bft) O-NO 69 ° 2 min 355 W/m² 12,6 °C 20,9 °C 16,1 km/h (3 Bft)
06.09.2024 09:11 24,3 °C 22,1 °C 53 % 57 % 1012,9 hPa 0,0 l/m² 6,9 km/h (2 Bft) N-NO 29 ° 2 min 306 W/m² 13,2 °C 21,9 °C 19,3 km/h (3 Bft)
06.09.2024 09:13 24,3 °C 22,2 °C 53 % 55 % 1012,8 hPa 0,0 l/m² 12,5 km/h (2 Bft) O-NO 70 ° 2 min 339 W/m² 12,7 °C 20,4 °C 20,9 km/h (4 Bft)
06.09.2024 09:15 24,2 °C 22,2 °C 53 % 55 % 1012,8 hPa 0,0 l/m² 11,8 km/h (2 Bft) O-NO 59 ° 2 min 350 W/m² 12,7 °C 20,6 °C 20,9 km/h (4 Bft)
06.09.2024 09:17 24,3 °C 22,2 °C 53 % 55 % 1012,8 hPa 0,0 l/m² 13,6 km/h (3 Bft) NO 52 ° 2 min 373 W/m² 12,7 °C 20,2 °C 20,9 km/h (4 Bft)
06.09.2024 09:18 24,3 °C 22,3 °C 53 % 55 % 1012,8 hPa 0,0 l/m² 13,2 km/h (3 Bft) O-NO 77 ° 1 min 373 W/m² 12,8 °C 20,4 °C 22,5 km/h (4 Bft)
06.09.2024 09:20 24,3 °C 22,4 °C 53 % 56 % 1012,8 hPa 0,0 l/m² 11,1 km/h (2 Bft) O-NO 62 ° 2 min 378 W/m² 13,2 °C 21,0 °C 16,1 km/h (3 Bft)
06.09.2024 09:22 24,3 °C 22,6 °C 53 % 55 % 1012,7 hPa 0,0 l/m² 12,0 km/h (2 Bft) O 92 ° 2 min 378 W/m² 13,1 °C 21,0 °C 20,9 km/h (4 Bft)
06.09.2024 09:24 24,3 °C 22,7 °C 53 % 55 % 1012,8 hPa 0,0 l/m² 16,2 km/h (3 Bft) O 85 ° 2 min 378 W/m² 13,2 °C 20,3 °C 25,7 km/h (4 Bft)
06.09.2024 09:26 24,3 °C 22,8 °C 53 % 54 % 1012,6 hPa 0,0 l/m² 15,1 km/h (3 Bft) O 82 ° 2 min 381 W/m² 13,0 °C 20,6 °C 22,5 km/h (4 Bft)
06.09.2024 09:28 24,3 °C 22,8 °C 53 % 54 % 1012,7 hPa 0,0 l/m² 16,1 km/h (3 Bft) NO 49 ° 2 min 390 W/m² 13,0 °C 20,4 °C 24,1 km/h (4 Bft)
06.09.2024 09:30 24,3 °C 22,9 °C 53 % 53 % 1012,7 hPa 0,0 l/m² 9,0 km/h (2 Bft) NO 49 ° 2 min 392 W/m² 12,8 °C 22,1 °C 17,7 km/h (3 Bft)
06.09.2024 09:32 24,3 °C 22,9 °C 53 % 54 % 1012,8 hPa 0,0 l/m² 10,0 km/h (2 Bft) O-NO 66 ° 2 min 403 W/m² 13,1 °C 21,8 °C 16,1 km/h (3 Bft)
06.09.2024 09:34 24,3 °C 23,1 °C 53 % 53 % 1012,7 hPa 0,0 l/m² 16,0 km/h (3 Bft) O 93 ° 2 min 406 W/m² 13,0 °C 20,8 °C 24,1 km/h (4 Bft)
06.09.2024 09:36 24,3 °C 23,1 °C 53 % 53 % 1012,8 hPa 0,0 l/m² 17,1 km/h (3 Bft) O-NO 78 ° 2 min 411 W/m² 13,0 °C 20,6 °C 27,4 km/h (5 Bft)
06.09.2024 09:38 24,3 °C 23,1 °C 53 % 53 % 1012,7 hPa 0,0 l/m² 15,8 km/h (3 Bft) O 88 ° 2 min 422 W/m² 13,0 °C 20,9 °C 20,9 km/h (4 Bft)
06.09.2024 09:40 24,3 °C 23,2 °C 53 % 53 % 1012,6 hPa 0,0 l/m² 12,6 km/h (3 Bft) O 80 ° 2 min 431 W/m² 13,1 °C 21,6 °C 20,9 km/h (4 Bft)
06.09.2024 09:42 24,3 °C 23,3 °C 53 % 53 % 1012,7 hPa 0,0 l/m² 10,2 km/h (2 Bft) NO 55 ° 2 min 432 W/m² 13,2 °C 22,2 °C 17,7 km/h (3 Bft)
06.09.2024 09:44 24,3 °C 23,5 °C 53 % 52 % 1012,7 hPa 0,0 l/m² 12,2 km/h (2 Bft) O 82 ° 2 min 436 W/m² 13,1 °C 22,0 °C 20,9 km/h (4 Bft)
06.09.2024 09:45 24,3 °C 23,6 °C 53 % 52 % 1012,7 hPa 0,0 l/m² 6,4 km/h (2 Bft) NO 50 ° 1 min 441 W/m² 13,2 °C 23,6 °C 20,9 km/h (4 Bft)
06.09.2024 09:46 24,3 °C 23,7 °C 53 % 53 % 1012,7 hPa 0,0 l/m² 10,9 km/h (2 Bft) O-NO 73 ° 1 min 443 W/m² 13,5 °C 22,5 °C 20,9 km/h (4 Bft)
06.09.2024 09:47 24,3 °C 23,7 °C 53 % 52 % 1012,7 hPa 0,0 l/m² 11,2 km/h (2 Bft) O 82 ° 1 min 445 W/m² 13,2 °C 22,5 °C 20,9 km/h (4 Bft)
06.09.2024 09:49 24,3 °C 23,8 °C 53 % 52 % 1012,7 hPa 0,0 l/m² 17,5 km/h (3 Bft) O 86 ° 2 min 446 W/m² 13,3 °C 21,5 °C 27,4 km/h (5 Bft)
06.09.2024 09:51 24,3 °C 23,8 °C 53 % 51 % 1012,6 hPa 0,0 l/m² 18,1 km/h (3 Bft) O 82 ° 2 min 452 W/m² 13,0 °C 21,4 °C 25,7 km/h (4 Bft)
06.09.2024 09:53 24,3 °C 23,9 °C 53 % 50 % 1012,6 hPa 0,0 l/m² 17,1 km/h (3 Bft) N-NO 25 ° 2 min 459 W/m² 12,8 °C 21,6 °C 25,7 km/h (4 Bft)
06.09.2024 09:55 24,3 °C 23,9 °C 53 % 50 % 1012,6 hPa 0,0 l/m² 16,0 km/h (3 Bft) O 80 ° 2 min 461 W/m² 12,8 °C 21,8 °C 24,1 km/h (4 Bft)
06.09.2024 09:57 24,3 °C 24,1 °C 53 % 50 % 1012,7 hPa 0,0 l/m² 18,6 km/h (3 Bft) O-NO 75 ° 2 min 466 W/m² 13,0 °C 21,7 °C 24,1 km/h (4 Bft)
06.09.2024 09:59 24,3 °C 24,2 °C 53 % 51 % 1012,7 hPa 0,0 l/m² 16,7 km/h (3 Bft) O 87 ° 2 min 469 W/m² 13,4 °C 22,1 °C 20,9 km/h (4 Bft)
06.09.2024 10:01 24,3 °C 24,3 °C 53 % 50 % 1012,7 hPa 0,0 l/m² 16,0 km/h (3 Bft) O-NO 70 ° 2 min 473 W/m² 13,2 °C 22,3 °C 22,5 km/h (4 Bft)
06.09.2024 10:03 24,3 °C 24,3 °C 53 % 50 % 1012,7 hPa 0,0 l/m² 14,6 km/h (3 Bft) O 101 ° 2 min 475 W/m² 13,2 °C 22,5 °C 20,9 km/h (4 Bft)
06.09.2024 10:05 24,3 °C 24,4 °C 53 % 51 % 1012,7 hPa 0,0 l/m² 14,4 km/h (3 Bft) O 82 ° 2 min 476 W/m² 13,6 °C 22,7 °C 19,3 km/h (3 Bft)
06.09.2024 10:07 24,4 °C 24,7 °C 53 % 50 % 1012,7 hPa 0,0 l/m² 12,4 km/h (2 Bft) O 90 ° 2 min 478 W/m² 13,6 °C 23,4 °C 19,3 km/h (3 Bft)
06.09.2024 10:09 24,4 °C 24,7 °C 53 % 50 % 1012,8 hPa 0,0 l/m² 15,7 km/h (3 Bft) O 98 ° 2 min 483 W/m² 13,6 °C 22,8 °C 19,3 km/h (3 Bft)
06.09.2024 10:11 24,3 °C 24,9 °C 53 % 49 % 1012,7 hPa 0,0 l/m² 12,4 km/h (2 Bft) O 90 ° 2 min 485 W/m² 13,4 °C 23,6 °C 16,1 km/h (3 Bft)
06.09.2024 10:13 24,4 °C 24,8 °C 53 % 48 % 1012,7 hPa 0,0 l/m² 19,6 km/h (3 Bft) O-NO 67 ° 2 min 482 W/m² 13,0 °C 22,5 °C 25,7 km/h (4 Bft)
06.09.2024 10:15 24,3 °C 24,8 °C 53 % 49 % 1012,7 hPa 0,0 l/m² 14,2 km/h (3 Bft) O 86 ° 2 min 499 W/m² 13,3 °C 23,2 °C 22,5 km/h (4 Bft)
06.09.2024 10:17 24,4 °C 24,9 °C 53 % 48 % 1012,7 hPa 0,0 l/m² 14,6 km/h (3 Bft) O-NO 67 ° 2 min 508 W/m² 13,1 °C 23,2 °C 22,5 km/h (4 Bft)
06.09.2024 10:19 24,4 °C 25,0 °C 53 % 48 % 1012,8 hPa 0,0 l/m² 17,2 km/h (3 Bft) O 80 ° 2 min 520 W/m² 13,2 °C 23,0 °C 25,7 km/h (4 Bft)
06.09.2024 10:21 24,4 °C 25,2 °C 53 % 48 % 1012,7 hPa 0,0 l/m² 11,9 km/h (2 Bft) O-NO 63 ° 2 min 526 W/m² 13,4 °C 24,0 °C 22,5 km/h (4 Bft)
06.09.2024 10:23 24,4 °C 25,3 °C 53 % 47 % 1012,6 hPa 0,0 l/m² 12,7 km/h (3 Bft) O 83 ° 2 min 529 W/m² 13,2 °C 24,0 °C 20,9 km/h (4 Bft)
06.09.2024 10:25 24,4 °C 25,4 °C 53 % 48 % 1012,7 hPa 0,0 l/m² 10,9 km/h (2 Bft) O 88 ° 2 min 529 W/m² 13,6 °C 24,4 °C 16,1 km/h (3 Bft)
06.09.2024 10:27 24,3 °C 25,5 °C 53 % 47 % 1012,6 hPa 0,0 l/m² 11,4 km/h (2 Bft) NO 48 ° 2 min 538 W/m² 13,3 °C 24,5 °C 24,1 km/h (4 Bft)
06.09.2024 10:29 24,4 °C 25,5 °C 54 % 47 % 1012,7 hPa 0,0 l/m² 18,1 km/h (3 Bft) O-NO 69 ° 2 min 541 W/m² 13,3 °C 23,5 °C 22,5 km/h (4 Bft)
06.09.2024 10:31 24,4 °C 25,6 °C 54 % 47 % 1012,6 hPa 0,0 l/m² 12,8 km/h (3 Bft) O-NO 76 ° 2 min 548 W/m² 13,4 °C 24,4 °C 20,9 km/h (4 Bft)
06.09.2024 10:33 24,4 °C 25,7 °C 54 % 48 % 1012,6 hPa 0,0 l/m² 14,0 km/h (3 Bft) O 91 ° 2 min 552 W/m² 13,9 °C 24,3 °C 20,9 km/h (4 Bft)
06.09.2024 10:35 24,4 °C 25,9 °C 54 % 46 % 1012,6 hPa 0,0 l/m² 18,9 km/h (3 Bft) O 80 ° 2 min 552 W/m² 13,4 °C 23,9 °C 25,7 km/h (4 Bft)
06.09.2024 10:37 24,4 °C 26,1 °C 54 % 46 % 1012,6 hPa 0,0 l/m² 14,2 km/h (3 Bft) O-NO 74 ° 2 min 548 W/m² 13,6 °C 24,7 °C 20,9 km/h (4 Bft)
06.09.2024 10:39 24,4 °C 26,1 °C 54 % 46 % 1012,5 hPa 0,0 l/m² 12,4 km/h (2 Bft) O 89 ° 2 min 564 W/m² 13,6 °C 25,0 °C 20,9 km/h (4 Bft)
06.09.2024 10:41 24,4 °C 26,2 °C 54 % 46 % 1012,5 hPa 0,0 l/m² 16,7 km/h (3 Bft) O-SO 102 ° 2 min 568 W/m² 13,6 °C 24,6 °C 20,9 km/h (4 Bft)
06.09.2024 10:43 24,4 °C 26,2 °C 54 % 45 % 1012,5 hPa 0,0 l/m² 16,6 km/h (3 Bft) O 87 ° 2 min 570 W/m² 13,3 °C 24,6 °C 20,9 km/h (4 Bft)
06.09.2024 10:45 24,4 °C 26,4 °C 54 % 46 % 1012,6 hPa 0,0 l/m² 13,4 km/h (3 Bft) O-NO 68 ° 2 min 575 W/m² 13,8 °C 25,2 °C 25,7 km/h (4 Bft)
06.09.2024 10:47 24,4 °C 26,6 °C 54 % 45 % 1012,5 hPa 0,0 l/m² 15,5 km/h (3 Bft) O 81 ° 2 min 577 W/m² 13,7 °C 25,2 °C 25,7 km/h (4 Bft)
06.09.2024 10:49 24,4 °C 26,6 °C 54 % 44 % 1012,5 hPa 0,0 l/m² 20,0 km/h (4 Bft) O 85 ° 2 min 584 W/m² 13,3 °C 24,7 °C 27,4 km/h (5 Bft)
06.09.2024 10:51 24,4 °C 26,7 °C 54 % 45 % 1012,6 hPa 0,0 l/m² 18,3 km/h (3 Bft) O 81 ° 2 min 589 W/m² 13,8 °C 25,0 °C 27,4 km/h (5 Bft)
06.09.2024 10:53 24,4 °C 26,8 °C 54 % 45 % 1012,5 hPa 0,0 l/m² 13,1 km/h (3 Bft) O 82 ° 2 min 592 W/m² 13,9 °C 25,7 °C 20,9 km/h (4 Bft)
06.09.2024 10:55 24,4 °C 26,9 °C 54 % 44 % 1012,4 hPa 0,0 l/m² 14,2 km/h (3 Bft) NO 36 ° 2 min 598 W/m² 13,6 °C 25,7 °C 22,5 km/h (4 Bft)
06.09.2024 10:57 24,4 °C 27,0 °C 54 % 44 % 1012,5 hPa 0,0 l/m² 13,4 km/h (3 Bft) O-NO 73 ° 2 min 603 W/m² 13,7 °C 25,9 °C 19,3 km/h (3 Bft)
06.09.2024 10:59 24,4 °C 27,2 °C 54 % 44 % 1012,4 hPa 0,0 l/m² 16,2 km/h (3 Bft) NO 49 ° 2 min 606 W/m² 13,9 °C 25,8 °C 22,5 km/h (4 Bft)
06.09.2024 11:01 24,4 °C 27,2 °C 54 % 43 % 1012,4 hPa 0,0 l/m² 10,4 km/h (2 Bft) NO 36 ° 2 min 612 W/m² 13,5 °C 26,5 °C 19,3 km/h (3 Bft)
06.09.2024 11:03 24,4 °C 27,3 °C 54 % 42 % 1012,4 hPa 0,0 l/m² 13,6 km/h (3 Bft) O-NO 67 ° 2 min 615 W/m² 13,2 °C 26,2 °C 22,5 km/h (4 Bft)
06.09.2024 11:05 24,4 °C 27,4 °C 54 % 42 % 1012,3 hPa 0,0 l/m² 16,7 km/h (3 Bft) O-SO 106 ° 2 min 617 W/m² 13,3 °C 26,0 °C 27,4 km/h (5 Bft)
06.09.2024 11:07 24,4 °C 27,4 °C 54 % 41 % 1012,4 hPa 0,0 l/m² 19,0 km/h (3 Bft) O-NO 65 ° 2 min 622 W/m² 13,0 °C 25,8 °C 24,1 km/h (4 Bft)
06.09.2024 11:09 24,4 °C 27,5 °C 54 % 42 % 1012,4 hPa 0,0 l/m² 18,0 km/h (3 Bft) O 84 ° 2 min 626 W/m² 13,4 °C 26,1 °C 20,9 km/h (4 Bft)
06.09.2024 11:11 24,4 °C 27,7 °C 54 % 42 % 1012,4 hPa 0,0 l/m² 13,5 km/h (3 Bft) O-NO 59 ° 2 min 628 W/m² 13,6 °C 26,7 °C 22,5 km/h (4 Bft)
06.09.2024 11:13 24,4 °C 27,8 °C 54 % 41 % 1012,4 hPa 0,0 l/m² 11,2 km/h (2 Bft) O 86 ° 2 min 631 W/m² 13,3 °C 27,1 °C 16,1 km/h (3 Bft)
06.09.2024 11:15 24,4 °C 27,8 °C 54 % 41 % 1012,4 hPa 0,0 l/m² 19,1 km/h (3 Bft) O 84 ° 2 min 633 W/m² 13,3 °C 26,3 °C 24,1 km/h (4 Bft)
06.09.2024 11:16 24,4 °C 27,9 °C 54 % 41 % 1012,4 hPa 0,0 l/m² 19,7 km/h (3 Bft) O 99 ° 1 min 636 W/m² 13,4 °C 26,4 °C 25,7 km/h (4 Bft)
06.09.2024 11:17 24,4 °C 27,9 °C 54 % 40 % 1012,4 hPa 0,0 l/m² 21,3 km/h (4 Bft) O-SO 103 ° 1 min 636 W/m² 13,0 °C 26,3 °C 25,7 km/h (4 Bft)
06.09.2024 11:19 24,4 °C 27,9 °C 54 % 40 % 1012,3 hPa 0,0 l/m² 18,9 km/h (3 Bft) O 84 ° 2 min 642 W/m² 13,0 °C 26,5 °C 25,7 km/h (4 Bft)
06.09.2024 11:21 24,4 °C 27,8 °C 54 % 40 % 1012,4 hPa 0,0 l/m² 16,8 km/h (3 Bft) O-SO 103 ° 2 min 643 W/m² 12,9 °C 26,5 °C 22,5 km/h (4 Bft)
06.09.2024 11:23 24,4 °C 27,9 °C 54 % 41 % 1012,3 hPa 0,0 l/m² 15,9 km/h (3 Bft) O-SO 105 ° 2 min 645 W/m² 13,4 °C 26,7 °C 24,1 km/h (4 Bft)
06.09.2024 11:25 24,4 °C 28,1 °C 54 % 40 % 1012,3 hPa 0,0 l/m² 18,1 km/h (3 Bft) O 85 ° 2 min 649 W/m² 13,2 °C 26,8 °C 24,1 km/h (4 Bft)
06.09.2024 11:27 24,4 °C 28,1 °C 54 % 41 % 1012,4 hPa 0,0 l/m² 14,6 km/h (3 Bft) O-NO 73 ° 2 min 650 W/m² 13,6 °C 27,1 °C 25,7 km/h (4 Bft)
06.09.2024 11:29 24,4 °C 28,2 °C 54 % 40 % 1012,4 hPa 0,0 l/m² 12,3 km/h (2 Bft) O 85 ° 2 min 656 W/m² 13,3 °C 27,4 °C 17,7 km/h (3 Bft)
06.09.2024 11:31 24,4 °C 28,3 °C 54 % 41 % 1012,3 hPa 0,0 l/m² 14,3 km/h (3 Bft) O 88 ° 2 min 659 W/m² 13,8 °C 27,4 °C 20,9 km/h (4 Bft)
06.09.2024 11:33 24,4 °C 28,6 °C 54 % 39 % 1012,3 hPa 0,0 l/m² 16,7 km/h (3 Bft) O-SO 109 ° 2 min 659 W/m² 13,3 °C 27,5 °C 24,1 km/h (4 Bft)
06.09.2024 11:35 24,4 °C 28,5 °C 54 % 40 % 1012,3 hPa 0,0 l/m² 16,4 km/h (3 Bft) O 92 ° 2 min 663 W/m² 13,6 °C 27,4 °C 20,9 km/h (4 Bft)
06.09.2024 11:37 24,4 °C 28,6 °C 54 % 40 % 1012,3 hPa 0,0 l/m² 14,7 km/h (3 Bft) O-NO 70 ° 2 min 592 W/m² 13,7 °C 27,7 °C 20,9 km/h (4 Bft)
06.09.2024 11:39 24,4 °C 28,7 °C 54 % 39 % 1012,2 hPa 0,0 l/m² 14,3 km/h (3 Bft) O 97 ° 2 min 582 W/m² 13,4 °C 27,8 °C 22,5 km/h (4 Bft)
06.09.2024 11:41 24,4 °C 28,6 °C 54 % 39 % 1012,3 hPa 0,0 l/m² 19,0 km/h (3 Bft) O 100 ° 2 min 636 W/m² 13,3 °C 27,4 °C 27,4 km/h (5 Bft)
06.09.2024 11:42 24,4 °C 28,6 °C 54 % 39 % 1012,3 hPa 0,0 l/m² 20,1 km/h (4 Bft) O 87 ° 1 min 659 W/m² 13,3 °C 27,3 °C 25,7 km/h (4 Bft)
06.09.2024 11:43 24,4 °C 28,6 °C 54 % 39 % 1012,3 hPa 0,0 l/m² 17,0 km/h (3 Bft) O 94 ° 1 min 675 W/m² 13,3 °C 27,5 °C 20,9 km/h (4 Bft)
06.09.2024 11:45 24,4 °C 28,8 °C 54 % 39 % 1012,2 hPa 0,0 l/m² 13,4 km/h (3 Bft) O 86 ° 2 min 675 W/m² 13,4 °C 28,0 °C 24,1 km/h (4 Bft)
06.09.2024 11:47 24,4 °C 28,8 °C 54 % 38 % 1012,2 hPa 0,0 l/m² 18,7 km/h (3 Bft) O 88 ° 2 min 680 W/m² 13,0 °C 27,7 °C 25,7 km/h (4 Bft)
06.09.2024 11:49 24,4 °C 28,9 °C 54 % 40 % 1012,2 hPa 0,0 l/m² 16,4 km/h (3 Bft) O 98 ° 2 min 680 W/m² 13,9 °C 27,9 °C 25,7 km/h (4 Bft)
06.09.2024 11:51 24,4 °C 29,1 °C 54 % 38 % 1012,1 hPa 0,0 l/m² 15,4 km/h (3 Bft) O 87 ° 2 min 680 W/m² 13,3 °C 28,2 °C 22,5 km/h (4 Bft)
06.09.2024 11:53 24,4 °C 29,1 °C 54 % 38 % 1012,2 hPa 0,0 l/m² 14,7 km/h (3 Bft) O-NO 78 ° 2 min 684 W/m² 13,3 °C 28,3 °C 20,9 km/h (4 Bft)
06.09.2024 11:55 24,4 °C 29,3 °C 54 % 39 % 1012,2 hPa 0,0 l/m² 17,2 km/h (3 Bft) O-NO 77 ° 2 min 687 W/m² 13,9 °C 28,4 °C 24,1 km/h (4 Bft)
06.09.2024 11:57 24,4 °C 29,3 °C 54 % 38 % 1012,2 hPa 0,0 l/m² 15,2 km/h (3 Bft) O-NO 70 ° 2 min 689 W/m² 13,5 °C 28,5 °C 22,5 km/h (4 Bft)
06.09.2024 11:59 24,5 °C 29,2 °C 54 % 38 % 1012,2 hPa 0,0 l/m² 14,3 km/h (3 Bft) O-NO 72 ° 2 min 691 W/m² 13,4 °C 28,4 °C 20,9 km/h (4 Bft)
06.09.2024 12:01 24,5 °C 29,1 °C 54 % 38 % 1012,1 hPa 0,0 l/m² 17,7 km/h (3 Bft) O 89 ° 2 min 693 W/m² 13,3 °C 28,1 °C 25,7 km/h (4 Bft)
06.09.2024 12:03 24,4 °C 29,2 °C 54 % 39 % 1012,2 hPa 0,0 l/m² 17,8 km/h (3 Bft) O 90 ° 2 min 694 W/m² 13,8 °C 28,2 °C 24,1 km/h (4 Bft)
06.09.2024 12:05 24,4 °C 29,3 °C 54 % 38 % 1012,1 hPa 0,0 l/m² 16,2 km/h (3 Bft) O 94 ° 2 min 698 W/m² 13,5 °C 28,4 °C 25,7 km/h (4 Bft)
06.09.2024 12:07 24,4 °C 29,4 °C 54 % 38 % 1012,1 hPa 0,0 l/m² 18,9 km/h (3 Bft) O 86 ° 2 min 700 W/m² 13,6 °C 28,4 °C 29,0 km/h (5 Bft)
06.09.2024 12:09 24,5 °C 29,3 °C 54 % 37 % 1012,1 hPa 0,0 l/m² 20,2 km/h (4 Bft) O 86 ° 2 min 701 W/m² 13,1 °C 28,2 °C 25,7 km/h (4 Bft)
06.09.2024 12:11 24,5 °C 29,3 °C 54 % 38 % 1012,1 hPa 0,0 l/m² 17,7 km/h (3 Bft) O 81 ° 2 min 703 W/m² 13,5 °C 28,3 °C 24,1 km/h (4 Bft)
06.09.2024 12:13 24,5 °C 29,6 °C 54 % 38 % 1012,1 hPa 0,0 l/m² 10,9 km/h (2 Bft) O 91 ° 2 min 707 W/m² 13,8 °C 29,2 °C 16,1 km/h (3 Bft)
06.09.2024 12:15 24,5 °C 29,9 °C 54 % 38 % 1012,2 hPa 0,0 l/m² 15,6 km/h (3 Bft) O 89 ° 2 min 707 W/m² 14,0 °C 29,2 °C 24,1 km/h (4 Bft)
06.09.2024 12:17 24,5 °C 29,8 °C 54 % 37 % 1012,1 hPa 0,0 l/m² 18,5 km/h (3 Bft) O-NO 76 ° 2 min 708 W/m² 13,5 °C 28,9 °C 22,5 km/h (4 Bft)
06.09.2024 12:19 24,5 °C 29,8 °C 54 % 37 % 1012,1 hPa 0,0 l/m² 16,6 km/h (3 Bft) O 91 ° 2 min 714 W/m² 13,5 °C 29,0 °C 24,1 km/h (4 Bft)
06.09.2024 12:21 24,5 °C 29,9 °C 54 % 37 % 1012,0 hPa 0,0 l/m² 13,1 km/h (3 Bft) NO 44 ° 2 min 715 W/m² 13,6 °C 29,4 °C 19,3 km/h (3 Bft)
06.09.2024 12:23 24,5 °C 30,0 °C 54 % 37 % 1012,1 hPa 0,0 l/m² 12,7 km/h (3 Bft) NO 53 ° 2 min 717 W/m² 13,7 °C 29,5 °C 20,9 km/h (4 Bft)
06.09.2024 12:25 24,5 °C 29,9 °C 54 % 37 % 1012,0 hPa 0,0 l/m² 12,0 km/h (2 Bft) O-NO 77 ° 2 min 717 W/m² 13,6 °C 29,4 °C 17,7 km/h (3 Bft)
06.09.2024 12:27 24,5 °C 30,2 °C 54 % 37 % 1012,1 hPa 0,0 l/m² 13,3 km/h (3 Bft) O-NO 75 ° 2 min 717 W/m² 13,9 °C 29,7 °C 22,5 km/h (4 Bft)
06.09.2024 12:29 24,5 °C 30,2 °C 54 % 36 % 1012,1 hPa 0,0 l/m² 14,2 km/h (3 Bft) NO 45 ° 2 min 719 W/m² 13,4 °C 29,6 °C 20,9 km/h (4 Bft)
06.09.2024 12:31 24,5 °C 30,2 °C 54 % 36 % 1012,0 hPa 0,0 l/m² 12,1 km/h (2 Bft) O-NO 63 ° 2 min 721 W/m² 13,4 °C 29,8 °C 20,9 km/h (4 Bft)
06.09.2024 12:33 24,5 °C 30,1 °C 54 % 36 % 1012,0 hPa 0,0 l/m² 15,8 km/h (3 Bft) N 9 ° 2 min 722 W/m² 13,4 °C 29,4 °C 24,1 km/h (4 Bft)
06.09.2024 12:35 24,5 °C 30,1 °C 54 % 36 % 1012,0 hPa 0,0 l/m² 13,0 km/h (3 Bft) O 89 ° 2 min 722 W/m² 13,4 °C 29,6 °C 24,1 km/h (4 Bft)
06.09.2024 12:37 24,5 °C 30,1 °C 54 % 35 % 1012,0 hPa 0,0 l/m² 15,1 km/h (3 Bft) N-NO 27 ° 2 min 724 W/m² 12,9 °C 29,5 °C 25,7 km/h (4 Bft)
06.09.2024 12:39 24,5 °C 30,4 °C 54 % 36 % 1012,0 hPa 0,0 l/m² 9,4 km/h (2 Bft) NO 48 ° 2 min 724 W/m² 13,6 °C 30,2 °C 19,3 km/h (3 Bft)
06.09.2024 12:41 24,5 °C 30,7 °C 54 % 36 % 1012,0 hPa 0,0 l/m² 11,6 km/h (2 Bft) NO 47 ° 2 min 728 W/m² 13,9 °C 30,4 °C 25,7 km/h (4 Bft)
06.09.2024 12:43 24,5 °C 31,0 °C 54 % 35 % 1012,0 hPa 0,0 l/m² 12,5 km/h (2 Bft) O 98 ° 2 min 728 W/m² 13,7 °C 30,7 °C 24,1 km/h (4 Bft)
06.09.2024 12:44 24,5 °C 31,1 °C 54 % 35 % 1012,0 hPa 0,0 l/m² 16,1 km/h (3 Bft) O 84 ° 1 min 728 W/m² 13,8 °C 30,7 °C 22,5 km/h (4 Bft)
06.09.2024 12:45 24,5 °C 31,0 °C 54 % 34 % 1011,9 hPa 0,0 l/m² 17,0 km/h (3 Bft) O-SO 105 ° 1 min 728 W/m² 13,3 °C 30,5 °C 22,5 km/h (4 Bft)
06.09.2024 12:46 24,5 °C 30,8 °C 54 % 35 % 1011,9 hPa 0,0 l/m² 13,8 km/h (3 Bft) O-NO 58 ° 1 min 728 W/m² 13,5 °C 30,4 °C 17,7 km/h (3 Bft)
06.09.2024 12:48 24,5 °C 30,8 °C 54 % 35 % 1011,9 hPa 0,0 l/m² 15,3 km/h (3 Bft) O 81 ° 2 min 731 W/m² 13,5 °C 30,3 °C 25,7 km/h (4 Bft)
06.09.2024 12:50 24,5 °C 30,7 °C 54 % 36 % 1011,9 hPa 0,0 l/m² 11,6 km/h (2 Bft) O 91 ° 2 min 729 W/m² 13,9 °C 30,4 °C 20,9 km/h (4 Bft)
06.09.2024 12:52 24,5 °C 30,8 °C 55 % 34 % 1012,1 hPa 0,0 l/m² 17,2 km/h (3 Bft) O-NO 57 ° 2 min 731 W/m² 13,1 °C 30,3 °C 25,7 km/h (4 Bft)
06.09.2024 12:54 24,5 °C 30,9 °C 55 % 34 % 1011,9 hPa 0,0 l/m² 13,5 km/h (3 Bft) O 86 ° 2 min 733 W/m² 13,2 °C 30,5 °C 17,7 km/h (3 Bft)
06.09.2024 12:55 24,5 °C 30,8 °C 55 % 35 % 1011,9 hPa 0,0 l/m² 14,6 km/h (3 Bft) O-NO 77 ° 1 min 733 W/m² 13,5 °C 30,4 °C 17,7 km/h (3 Bft)
06.09.2024 12:56 24,5 °C 30,9 °C 55 % 35 % 1011,9 hPa 0,0 l/m² 9,4 km/h (2 Bft) N-NO 17 ° 1 min 733 W/m² 13,6 °C 30,7 °C 16,1 km/h (3 Bft)
06.09.2024 12:58 24,6 °C 31,2 °C 55 % 35 % 1011,9 hPa 0,0 l/m² 10,9 km/h (2 Bft) O 86 ° 2 min 733 W/m² 13,9 °C 31,0 °C 22,5 km/h (4 Bft)
06.09.2024 13:00 24,5 °C 31,4 °C 55 % 35 % 1011,9 hPa 0,0 l/m² 14,2 km/h (3 Bft) NO 43 ° 2 min 735 W/m² 14,1 °C 31,1 °C 20,9 km/h (4 Bft)
06.09.2024 13:01 24,6 °C 31,4 °C 55 % 34 % 1011,9 hPa 0,0 l/m² 15,3 km/h (3 Bft) NO 55 ° 1 min 735 W/m² 13,6 °C 31,1 °C 20,9 km/h (4 Bft)
06.09.2024 13:02 24,6 °C 31,4 °C 55 % 33 % 1011,9 hPa 0,0 l/m² 18,3 km/h (3 Bft) O 96 ° 1 min 733 W/m² 13,2 °C 31,0 °C 22,5 km/h (4 Bft)
06.09.2024 13:04 24,6 °C 31,2 °C 55 % 34 % 1011,9 hPa 0,0 l/m² 20,5 km/h (4 Bft) O-NO 76 ° 2 min 735 W/m² 13,4 °C 30,7 °C 27,4 km/h (5 Bft)
06.09.2024 13:06 24,6 °C 31,2 °C 55 % 33 % 1011,9 hPa 0,0 l/m² 19,1 km/h (3 Bft) O 86 ° 2 min 735 W/m² 13,0 °C 30,7 °C 25,7 km/h (4 Bft)
06.09.2024 13:08 24,6 °C 31,1 °C 55 % 32 % 1011,9 hPa 0,0 l/m² 21,2 km/h (4 Bft) O 98 ° 2 min 735 W/m² 12,4 °C 30,5 °C 27,4 km/h (5 Bft)
06.09.2024 13:10 24,6 °C 31,0 °C 55 % 32 % 1011,9 hPa 0,0 l/m² 25,6 km/h (4 Bft) O 92 ° 2 min 737 W/m² 12,3 °C 30,3 °C 33,8 km/h (5 Bft)
06.09.2024 13:12 24,6 °C 30,9 °C 55 % 32 % 1011,9 hPa 0,0 l/m² 19,8 km/h (3 Bft) O 98 ° 2 min 735 W/m² 12,3 °C 30,3 °C 25,7 km/h (4 Bft)
06.09.2024 13:14 24,6 °C 30,8 °C 55 % 33 % 1011,9 hPa 0,0 l/m² 18,2 km/h (3 Bft) O 81 ° 2 min 735 W/m² 12,6 °C 30,2 °C 29,0 km/h (5 Bft)
06.09.2024 13:16 24,6 °C 30,9 °C 55 % 32 % 1011,9 hPa 0,0 l/m² 23,2 km/h (4 Bft) O 98 ° 2 min 733 W/m² 12,3 °C 30,2 °C 29,0 km/h (5 Bft)
06.09.2024 13:18 24,6 °C 30,9 °C 55 % 33 % 1011,8 hPa 0,0 l/m² 17,7 km/h (3 Bft) O 86 ° 2 min 735 W/m² 12,7 °C 30,4 °C 25,7 km/h (4 Bft)
06.09.2024 13:20 24,6 °C 31,0 °C 55 % 32 % 1011,9 hPa 0,0 l/m² 20,9 km/h (4 Bft) O-NO 78 ° 2 min 731 W/m² 12,3 °C 30,4 °C 29,0 km/h (5 Bft)
06.09.2024 13:21 24,6 °C 31,1 °C 55 % 32 % 1011,9 hPa 0,0 l/m² 20,2 km/h (4 Bft) O 95 ° 1 min 733 W/m² 12,4 °C 30,5 °C 24,1 km/h (4 Bft)
06.09.2024 13:22 24,6 °C 31,0 °C 55 % 32 % 1012,0 hPa 0,0 l/m² 17,1 km/h (3 Bft) O 87 ° 1 min 733 W/m² 12,3 °C 30,5 °C 20,9 km/h (4 Bft)
06.09.2024 13:23 24,6 °C 31,0 °C 55 % 32 % 1012,0 hPa 0,0 l/m² 15,6 km/h (3 Bft) O 92 ° 1 min 733 W/m² 12,3 °C 30,6 °C 19,3 km/h (3 Bft)
06.09.2024 13:25 24,6 °C 30,9 °C 55 % 32 % 1011,9 hPa 0,0 l/m² 18,7 km/h (3 Bft) O 80 ° 2 min 733 W/m² 12,3 °C 30,3 °C 25,7 km/h (4 Bft)
06.09.2024 13:27 24,6 °C 31,0 °C 55 % 32 % 1011,9 hPa 0,0 l/m² 19,6 km/h (3 Bft) O 83 ° 2 min 731 W/m² 12,3 °C 30,4 °C 29,0 km/h (5 Bft)
06.09.2024 13:29 24,6 °C 31,0 °C 55 % 32 % 1011,9 hPa 0,0 l/m² 19,1 km/h (3 Bft) O 83 ° 2 min 735 W/m² 12,3 °C 30,4 °C 27,4 km/h (5 Bft)
06.09.2024 13:31 24,6 °C 31,1 °C 55 % 33 % 1011,8 hPa 0,0 l/m² 21,8 km/h (4 Bft) O 82 ° 2 min 735 W/m² 12,9 °C 30,5 °C 32,2 km/h (5 Bft)
06.09.2024 13:33 24,6 °C 31,1 °C 55 % 31 % 1011,8 hPa 0,0 l/m² 22,7 km/h (4 Bft) O-NO 76 ° 2 min 731 W/m² 11,9 °C 30,5 °C 30,6 km/h (5 Bft)
06.09.2024 13:35 24,6 °C 31,2 °C 55 % 32 % 1011,9 hPa 0,0 l/m² 17,9 km/h (3 Bft) O-NO 59 ° 2 min 733 W/m² 12,5 °C 30,7 °C 24,1 km/h (4 Bft)
06.09.2024 13:37 24,6 °C 31,3 °C 55 % 32 % 1011,9 hPa 0,0 l/m² 17,3 km/h (3 Bft) O 80 ° 2 min 729 W/m² 12,6 °C 30,9 °C 25,7 km/h (4 Bft)
06.09.2024 13:39 24,6 °C 31,3 °C 55 % 31 % 1011,8 hPa 0,0 l/m² 21,9 km/h (4 Bft) O-NO 77 ° 2 min 728 W/m² 12,1 °C 30,8 °C 29,0 km/h (5 Bft)
06.09.2024 13:41 24,6 °C 31,3 °C 55 % 32 % 1011,9 hPa 0,0 l/m² 15,2 km/h (3 Bft) O-NO 74 ° 2 min 728 W/m² 12,6 °C 30,9 °C 22,5 km/h (4 Bft)
06.09.2024 13:43 24,6 °C 31,4 °C 55 % 32 % 1011,9 hPa 0,0 l/m² 15,1 km/h (3 Bft) NO 53 ° 2 min 726 W/m² 12,7 °C 31,1 °C 22,5 km/h (4 Bft)
06.09.2024 13:45 24,6 °C 31,3 °C 55 % 32 % 1011,8 hPa 0,0 l/m² 13,8 km/h (3 Bft) NO 53 ° 2 min 724 W/m² 12,6 °C 31,0 °C 20,9 km/h (4 Bft)
06.09.2024 13:47 24,6 °C 31,4 °C 55 % 32 % 1011,8 hPa 0,0 l/m² 10,9 km/h (2 Bft) O 82 ° 2 min 726 W/m² 12,7 °C 31,2 °C 24,1 km/h (4 Bft)
06.09.2024 13:49 24,6 °C 31,6 °C 55 % 32 % 1011,8 hPa 0,0 l/m² 16,8 km/h (3 Bft) O 85 ° 2 min 726 W/m² 12,9 °C 31,3 °C 24,1 km/h (4 Bft)
06.09.2024 13:51 24,6 °C 31,6 °C 55 % 32 % 1011,8 hPa 0,0 l/m² 19,6 km/h (3 Bft) O-NO 78 ° 2 min 722 W/m² 12,9 °C 31,2 °C 24,1 km/h (4 Bft)
06.09.2024 13:53 24,6 °C 31,5 °C 55 % 31 % 1011,9 hPa 0,0 l/m² 25,4 km/h (4 Bft) O 86 ° 2 min 722 W/m² 12,3 °C 31,0 °C 32,2 km/h (5 Bft)
06.09.2024 13:55 24,6 °C 31,6 °C 55 % 32 % 1011,9 hPa 0,0 l/m² 18,9 km/h (3 Bft) O-NO 78 ° 2 min 721 W/m² 12,9 °C 31,2 °C 25,7 km/h (4 Bft)
06.09.2024 13:57 24,6 °C 31,6 °C 55 % 32 % 1011,9 hPa 0,0 l/m² 21,8 km/h (4 Bft) O 100 ° 2 min 715 W/m² 12,9 °C 31,2 °C 27,4 km/h (5 Bft)
06.09.2024 13:59 24,6 °C 31,2 °C 55 % 31 % 1011,8 hPa 0,0 l/m² 13,4 km/h (3 Bft) O 84 ° 2 min 715 W/m² 12,0 °C 30,9 °C 20,9 km/h (4 Bft)
06.09.2024 14:01 24,6 °C 31,2 °C 55 % 33 % 1011,8 hPa 0,0 l/m² 12,5 km/h (2 Bft) O-SO 117 ° 2 min 714 W/m² 13,0 °C 30,9 °C 20,9 km/h (4 Bft)
06.09.2024 14:03 24,6 °C 31,4 °C 55 % 33 % 1011,8 hPa 0,0 l/m² 17,5 km/h (3 Bft) O-SO 105 ° 2 min 714 W/m² 13,2 °C 31,0 °C 27,4 km/h (5 Bft)
06.09.2024 14:05 24,6 °C 31,6 °C 55 % 31 % 1011,8 hPa 0,0 l/m² 22,2 km/h (4 Bft) O-NO 76 ° 2 min 714 W/m² 12,4 °C 31,1 °C 29,0 km/h (5 Bft)
06.09.2024 14:07 24,6 °C 31,4 °C 55 % 32 % 1011,8 hPa 0,0 l/m² 16,7 km/h (3 Bft) O-NO 69 ° 2 min 712 W/m² 12,7 °C 31,0 °C 25,7 km/h (4 Bft)
06.09.2024 14:09 24,6 °C 31,4 °C 55 % 32 % 1011,7 hPa 0,0 l/m² 19,5 km/h (3 Bft) O 92 ° 2 min 710 W/m² 12,7 °C 30,9 °C 25,7 km/h (4 Bft)
06.09.2024 14:11 24,6 °C 31,5 °C 55 % 32 % 1011,8 hPa 0,0 l/m² 15,9 km/h (3 Bft) NO 51 ° 2 min 708 W/m² 12,8 °C 31,2 °C 25,7 km/h (4 Bft)
06.09.2024 14:13 24,6 °C 31,7 °C 55 % 31 % 1011,7 hPa 0,0 l/m² 15,7 km/h (3 Bft) O 86 ° 2 min 705 W/m² 12,5 °C 31,4 °C 27,4 km/h (5 Bft)
06.09.2024 14:15 24,6 °C 31,6 °C 55 % 31 % 1011,6 hPa 0,0 l/m² 19,3 km/h (3 Bft) O-NO 67 ° 2 min 701 W/m² 12,4 °C 31,2 °C 25,7 km/h (4 Bft)
06.09.2024 14:16 24,6 °C 31,4 °C 55 % 31 % 1011,8 hPa 0,0 l/m² 18,4 km/h (3 Bft) O 79 ° 1 min 698 W/m² 12,2 °C 31,0 °C 24,1 km/h (4 Bft)
06.09.2024 14:17 24,6 °C 31,4 °C 55 % 31 % 1011,7 hPa 0,0 l/m² 19,0 km/h (3 Bft) O 81 ° 1 min 698 W/m² 12,2 °C 31,0 °C 29,0 km/h (5 Bft)
06.09.2024 14:18 24,6 °C 31,4 °C 55 % 30 % 1011,7 hPa 0,0 l/m² 15,6 km/h (3 Bft) NO 38 ° 1 min 696 W/m² 11,7 °C 31,0 °C 22,5 km/h (4 Bft)
06.09.2024 14:20 24,6 °C 31,3 °C 55 % 31 % 1011,7 hPa 0,0 l/m² 18,7 km/h (3 Bft) NO 44 ° 2 min 696 W/m² 12,1 °C 30,8 °C 27,4 km/h (5 Bft)
06.09.2024 14:22 24,6 °C 31,3 °C 55 % 31 % 1011,7 hPa 0,0 l/m² 19,2 km/h (3 Bft) O 86 ° 2 min 693 W/m² 12,1 °C 30,8 °C 30,6 km/h (5 Bft)
06.09.2024 14:24 24,6 °C 31,3 °C 55 % 31 % 1011,6 hPa 0,0 l/m² 21,4 km/h (4 Bft) O 86 ° 2 min 693 W/m² 12,1 °C 30,8 °C 29,0 km/h (5 Bft)
06.09.2024 14:26 24,6 °C 31,3 °C 55 % 31 % 1011,7 hPa 0,0 l/m² 19,6 km/h (3 Bft) O-NO 78 ° 2 min 691 W/m² 12,1 °C 30,8 °C 25,7 km/h (4 Bft)
06.09.2024 14:28 24,6 °C 31,5 °C 55 % 31 % 1011,7 hPa 0,0 l/m² 18,7 km/h (3 Bft) O 81 ° 2 min 686 W/m² 12,3 °C 31,1 °C 29,0 km/h (5 Bft)
06.09.2024 14:30 24,6 °C 31,6 °C 55 % 31 % 1011,6 hPa 0,0 l/m² 20,2 km/h (4 Bft) O 82 ° 2 min 680 W/m² 12,4 °C 31,2 °C 30,6 km/h (5 Bft)
06.09.2024 14:31 24,6 °C 31,6 °C 55 % 31 % 1011,7 hPa 0,0 l/m² 22,2 km/h (4 Bft) O-SO 108 ° 1 min 679 W/m² 12,4 °C 31,1 °C 30,6 km/h (5 Bft)
06.09.2024 14:32 24,6 °C 31,6 °C 55 % 31 % 1011,6 hPa 0,0 l/m² 26,2 km/h (4 Bft) O 93 ° 1 min 679 W/m² 12,4 °C 31,1 °C 32,2 km/h (5 Bft)
06.09.2024 14:34 24,6 °C 31,3 °C 55 % 31 % 1011,7 hPa 0,0 l/m² 17,2 km/h (3 Bft) O 101 ° 2 min 680 W/m² 12,1 °C 30,9 °C 27,4 km/h (5 Bft)
06.09.2024 14:36 24,6 °C 31,3 °C 55 % 32 % 1011,6 hPa 0,0 l/m² 22,3 km/h (4 Bft) O-NO 71 ° 2 min 679 W/m² 12,6 °C 30,8 °C 33,8 km/h (5 Bft)
06.09.2024 14:38 24,6 °C 31,4 °C 55 % 31 % 1011,5 hPa 0,0 l/m² 14,7 km/h (3 Bft) O-NO 59 ° 2 min 675 W/m² 12,2 °C 31,1 °C 20,9 km/h (4 Bft)
06.09.2024 14:40 24,6 °C 31,4 °C 55 % 32 % 1011,6 hPa 0,0 l/m² 17,2 km/h (3 Bft) O-NO 58 ° 2 min 671 W/m² 12,7 °C 31,0 °C 27,4 km/h (5 Bft)
06.09.2024 14:42 24,6 °C 31,6 °C 55 % 32 % 1011,5 hPa 0,0 l/m² 20,1 km/h (4 Bft) O 80 ° 2 min 671 W/m² 12,9 °C 31,2 °C 27,4 km/h (5 Bft)
06.09.2024 14:44 24,6 °C 31,5 °C 55 % 31 % 1011,5 hPa 0,0 l/m² 19,7 km/h (3 Bft) NO 38 ° 2 min 668 W/m² 12,3 °C 31,1 °C 29,0 km/h (5 Bft)
06.09.2024 14:46 24,6 °C 31,5 °C 55 % 31 % 1011,6 hPa 0,0 l/m² 14,8 km/h (3 Bft) N-NO 20 ° 2 min 668 W/m² 12,3 °C 31,2 °C 24,1 km/h (4 Bft)
06.09.2024 14:48 24,6 °C 31,6 °C 55 % 31 % 1011,5 hPa 0,0 l/m² 16,1 km/h (3 Bft) O 89 ° 2 min 666 W/m² 12,4 °C 31,3 °C 22,5 km/h (4 Bft)
06.09.2024 14:50 24,6 °C 31,7 °C 55 % 31 % 1011,5 hPa 0,0 l/m² 20,8 km/h (4 Bft) O 99 ° 2 min 663 W/m² 12,5 °C 31,3 °C 29,0 km/h (5 Bft)
06.09.2024 14:52 24,6 °C 31,6 °C 55 % 31 % 1011,5 hPa 0,0 l/m² 22,3 km/h (4 Bft) O 90 ° 2 min 657 W/m² 12,4 °C 31,1 °C 33,8 km/h (5 Bft)
06.09.2024 14:54 24,6 °C 31,6 °C 55 % 31 % 1011,6 hPa 0,0 l/m² 24,0 km/h (4 Bft) O 94 ° 2 min 656 W/m² 12,4 °C 31,1 °C 32,2 km/h (5 Bft)
06.09.2024 14:56 24,6 °C 31,6 °C 55 % 31 % 1011,5 hPa 0,0 l/m² 23,1 km/h (4 Bft) O 80 ° 2 min 650 W/m² 12,4 °C 31,1 °C 32,2 km/h (5 Bft)
06.09.2024 14:58 24,6 °C 31,4 °C 55 % 31 % 1011,5 hPa 0,0 l/m² 21,2 km/h (4 Bft) O 80 ° 2 min 649 W/m² 12,2 °C 30,9 °C 29,0 km/h (5 Bft)
06.09.2024 14:59 24,6 °C 31,5 °C 55 % 31 % 1011,6 hPa 0,0 l/m² 15,8 km/h (3 Bft) O 84 ° 1 min 647 W/m² 12,3 °C 31,2 °C 20,9 km/h (4 Bft)
06.09.2024 15:00 24,6 °C 31,6 °C 55 % 31 % 1011,5 hPa 0,0 l/m² 17,9 km/h (3 Bft) O-NO 76 ° 1 min 643 W/m² 12,4 °C 31,2 °C 24,1 km/h (4 Bft)
06.09.2024 15:02 24,6 °C 31,5 °C 55 % 33 % 1011,6 hPa 0,0 l/m² 16,2 km/h (3 Bft) N-NO 26 ° 2 min 640 W/m² 13,2 °C 31,2 °C 24,1 km/h (4 Bft)
06.09.2024 15:04 24,6 °C 31,7 °C 55 % 32 % 1011,6 hPa 0,0 l/m² 15,7 km/h (3 Bft) O-NO 77 ° 2 min 636 W/m² 12,9 °C 31,4 °C 30,6 km/h (5 Bft)
06.09.2024 15:06 24,6 °C 31,6 °C 55 % 31 % 1011,6 hPa 0,0 l/m² 17,1 km/h (3 Bft) NO 49 ° 2 min 633 W/m² 12,4 °C 31,3 °C 27,4 km/h (5 Bft)
06.09.2024 15:08 24,6 °C 31,7 °C 55 % 31 % 1011,5 hPa 0,0 l/m² 17,8 km/h (3 Bft) O-SO 109 ° 2 min 633 W/m² 12,5 °C 31,4 °C 25,7 km/h (4 Bft)
06.09.2024 15:10 24,7 °C 31,5 °C 55 % 31 % 1011,5 hPa 0,0 l/m² 17,5 km/h (3 Bft) O 86 ° 2 min 629 W/m² 12,3 °C 31,1 °C 24,1 km/h (4 Bft)
06.09.2024 15:12 24,6 °C 31,5 °C 55 % 31 % 1011,6 hPa 0,0 l/m² 15,1 km/h (3 Bft) O 90 ° 2 min 624 W/m² 12,3 °C 31,2 °C 22,5 km/h (4 Bft)
06.09.2024 15:14 24,6 °C 31,4 °C 55 % 32 % 1011,5 hPa 0,0 l/m² 16,9 km/h (3 Bft) O-SO 113 ° 2 min 619 W/m² 12,7 °C 31,0 °C 20,9 km/h (4 Bft)
06.09.2024 15:16 24,6 °C 31,4 °C 55 % 31 % 1011,5 hPa 0,0 l/m² 18,3 km/h (3 Bft) O 84 ° 2 min 617 W/m² 12,2 °C 31,0 °C 25,7 km/h (4 Bft)
06.09.2024 15:18 24,6 °C 31,6 °C 55 % 32 % 1011,5 hPa 0,0 l/m² 20,5 km/h (4 Bft) O-NO 63 ° 2 min 615 W/m² 12,9 °C 31,2 °C 33,8 km/h (5 Bft)
06.09.2024 15:20 24,6 °C 31,6 °C 55 % 31 % 1011,5 hPa 0,0 l/m² 16,2 km/h (3 Bft) N-NO 33 ° 2 min 613 W/m² 12,4 °C 31,3 °C 25,7 km/h (4 Bft)
06.09.2024 15:22 24,7 °C 31,6 °C 55 % 31 % 1011,5 hPa 0,0 l/m² 9,5 km/h (2 Bft) O-NO 76 ° 2 min 605 W/m² 12,4 °C 31,5 °C 19,3 km/h (3 Bft)
06.09.2024 15:24 24,7 °C 31,7 °C 55 % 31 % 1011,5 hPa 0,0 l/m² 17,0 km/h (3 Bft) NO 44 ° 2 min 571 W/m² 12,5 °C 31,4 °C 24,1 km/h (4 Bft)
06.09.2024 15:26 24,7 °C 31,6 °C 56 % 31 % 1011,5 hPa 0,0 l/m² 9,9 km/h (2 Bft) NO 39 ° 2 min 439 W/m² 12,4 °C 31,5 °C 19,3 km/h (3 Bft)
06.09.2024 15:28 24,7 °C 31,6 °C 56 % 32 % 1011,5 hPa 0,0 l/m² 14,8 km/h (3 Bft) O 90 ° 2 min 520 W/m² 12,9 °C 31,3 °C 27,4 km/h (5 Bft)
06.09.2024 15:30 24,7 °C 31,5 °C 56 % 31 % 1011,5 hPa 0,0 l/m² 22,3 km/h (4 Bft) O 85 ° 2 min 492 W/m² 12,3 °C 31,0 °C 29,0 km/h (5 Bft)
06.09.2024 15:31 24,7 °C 31,4 °C 56 % 31 % 1011,5 hPa 0,0 l/m² 15,2 km/h (3 Bft) O 93 ° 1 min 508 W/m² 12,2 °C 31,1 °C 20,9 km/h (4 Bft)
06.09.2024 15:32 24,7 °C 31,4 °C 56 % 32 % 1011,5 hPa 0,0 l/m² 20,0 km/h (4 Bft) O-NO 75 ° 1 min 522 W/m² 12,7 °C 30,9 °C 29,0 km/h (5 Bft)
06.09.2024 15:33 24,7 °C 31,3 °C 56 % 31 % 1011,5 hPa 0,0 l/m² 19,4 km/h (3 Bft) O 88 ° 1 min 497 W/m² 12,1 °C 30,8 °C 25,7 km/h (4 Bft)
06.09.2024 15:34 24,7 °C 31,3 °C 56 % 32 % 1011,5 hPa 0,0 l/m² 17,8 km/h (3 Bft) O 84 ° 1 min 529 W/m² 12,6 °C 30,9 °C 22,5 km/h (4 Bft)
06.09.2024 15:35 24,7 °C 31,3 °C 56 % 32 % 1011,5 hPa 0,0 l/m² 16,1 km/h (3 Bft) O-NO 78 ° 1 min 508 W/m² 12,6 °C 30,9 °C 24,1 km/h (4 Bft)
06.09.2024 15:36 24,7 °C 31,3 °C 56 % 32 % 1011,5 hPa 0,0 l/m² 13,9 km/h (3 Bft) O 79 ° 1 min 543 W/m² 12,6 °C 31,0 °C 22,5 km/h (4 Bft)
06.09.2024 15:37 24,7 °C 31,3 °C 56 % 32 % 1011,5 hPa 0,0 l/m² 18,6 km/h (3 Bft) NO 44 ° 1 min 598 W/m² 12,6 °C 30,8 °C 22,5 km/h (4 Bft)
06.09.2024 15:38 24,8 °C 31,3 °C 56 % 32 % 1011,4 hPa 0,0 l/m² 18,6 km/h (3 Bft) O 97 ° 1 min 570 W/m² 12,6 °C 30,8 °C 22,5 km/h (4 Bft)
06.09.2024 15:39 24,8 °C 31,2 °C 56 % 31 % 1011,4 hPa 0,0 l/m² 12,5 km/h (2 Bft) O 88 ° 1 min 526 W/m² 12,0 °C 30,9 °C 16,1 km/h (3 Bft)
06.09.2024 15:40 24,8 °C 31,2 °C 56 % 32 % 1011,4 hPa 0,0 l/m² 8,1 km/h (2 Bft) O-NO 57 ° 1 min 534 W/m² 12,5 °C 31,1 °C 11,3 km/h (2 Bft)
06.09.2024 15:41 24,8 °C 31,3 °C 56 % 33 % 1011,4 hPa 0,0 l/m² 10,6 km/h (2 Bft) O-NO 67 ° 1 min 554 W/m² 13,1 °C 31,1 °C 14,5 km/h (3 Bft)
06.09.2024 15:42 24,8 °C 31,4 °C 56 % 31 % 1011,5 hPa 0,0 l/m² 16,8 km/h (3 Bft) O-NO 70 ° 1 min 496 W/m² 12,2 °C 31,0 °C 22,5 km/h (4 Bft)
06.09.2024 15:43 24,8 °C 31,3 °C 56 % 31 % 1011,4 hPa 0,0 l/m² 18,0 km/h (3 Bft) NO 41 ° 1 min 536 W/m² 12,1 °C 30,9 °C 27,4 km/h (5 Bft)
06.09.2024 15:45 24,8 °C 31,3 °C 56 % 32 % 1011,5 hPa 0,0 l/m² 15,7 km/h (3 Bft) O-NO 74 ° 2 min 541 W/m² 12,6 °C 30,9 °C 25,7 km/h (4 Bft)
06.09.2024 15:46 24,8 °C 31,4 °C 56 % 32 % 1011,4 hPa 0,0 l/m² 16,4 km/h (3 Bft) O 88 ° 1 min 533 W/m² 12,7 °C 31,0 °C 22,5 km/h (4 Bft)
06.09.2024 15:47 24,8 °C 31,4 °C 56 % 31 % 1011,4 hPa 0,0 l/m² 16,1 km/h (3 Bft) O 86 ° 1 min 533 W/m² 12,2 °C 31,0 °C 19,3 km/h (3 Bft)
06.09.2024 15:48 24,8 °C 31,4 °C 56 % 32 % 1011,4 hPa 0,0 l/m² 16,4 km/h (3 Bft) O 90 ° 1 min 515 W/m² 12,7 °C 31,0 °C 19,3 km/h (3 Bft)
06.09.2024 15:49 24,8 °C 31,4 °C 56 % 32 % 1011,4 hPa 0,0 l/m² 19,5 km/h (3 Bft) O 92 ° 1 min 541 W/m² 12,7 °C 30,9 °C 25,7 km/h (4 Bft)
06.09.2024 15:50 24,8 °C 31,3 °C 56 % 32 % 1011,4 hPa 0,0 l/m² 21,0 km/h (4 Bft) O-SO 104 ° 1 min 548 W/m² 12,6 °C 30,8 °C 29,0 km/h (5 Bft)
06.09.2024 15:51 24,8 °C 31,3 °C 56 % 32 % 1011,5 hPa 0,0 l/m² 13,6 km/h (3 Bft) O 87 ° 1 min 555 W/m² 12,6 °C 31,0 °C 20,9 km/h (4 Bft)
06.09.2024 15:52 24,8 °C 31,4 °C 56 % 32 % 1011,4 hPa 0,0 l/m² 12,9 km/h (3 Bft) O 94 ° 1 min 550 W/m² 12,7 °C 31,1 °C 22,5 km/h (4 Bft)
06.09.2024 15:53 24,8 °C 31,3 °C 56 % 32 % 1011,4 hPa 0,0 l/m² 18,3 km/h (3 Bft) O 93 ° 1 min 547 W/m² 12,6 °C 30,8 °C 22,5 km/h (4 Bft)
06.09.2024 15:54 24,8 °C 31,4 °C 56 % 31 % 1011,5 hPa 0,0 l/m² 17,6 km/h (3 Bft) O 98 ° 1 min 543 W/m² 12,2 °C 31,0 °C 20,9 km/h (4 Bft)
06.09.2024 15:55 24,8 °C 31,4 °C 56 % 32 % 1011,4 hPa 0,0 l/m² 19,9 km/h (4 Bft) O-SO 113 ° 1 min 538 W/m² 12,7 °C 30,9 °C 24,1 km/h (4 Bft)
06.09.2024 15:56 24,8 °C 31,4 °C 56 % 31 % 1011,4 hPa 0,0 l/m² 16,2 km/h (3 Bft) O 82 ° 1 min 534 W/m² 12,2 °C 31,0 °C 20,9 km/h (4 Bft)
06.09.2024 15:57 24,8 °C 31,4 °C 56 % 32 % 1011,4 hPa 0,0 l/m² 15,1 km/h (3 Bft) O-NO 65 ° 1 min 533 W/m² 12,7 °C 31,1 °C 20,9 km/h (4 Bft)
06.09.2024 15:58 24,9 °C 31,4 °C 56 % 32 % 1011,4 hPa 0,0 l/m² 16,8 km/h (3 Bft) O 94 ° 1 min 533 W/m² 12,7 °C 31,0 °C 20,9 km/h (4 Bft)
06.09.2024 15:59 24,9 °C 31,4 °C 56 % 31 % 1011,3 hPa 0,0 l/m² 18,0 km/h (3 Bft) O-NO 71 ° 1 min 531 W/m² 12,2 °C 31,0 °C 29,0 km/h (5 Bft)
06.09.2024 16:00 24,8 °C 31,4 °C 56 % 32 % 1011,4 hPa 0,0 l/m² 16,4 km/h (3 Bft) O 90 ° 1 min 527 W/m² 12,7 °C 31,0 °C 22,5 km/h (4 Bft)
06.09.2024 16:01 24,9 °C 31,4 °C 56 % 32 % 1011,4 hPa 0,0 l/m² 18,1 km/h (3 Bft) O 92 ° 1 min 524 W/m² 12,7 °C 31,0 °C 24,1 km/h (4 Bft)
06.09.2024 16:02 24,9 °C 31,4 °C 56 % 32 % 1011,4 hPa 0,0 l/m² 20,0 km/h (4 Bft) NO 52 ° 1 min 522 W/m² 12,7 °C 30,9 °C 25,7 km/h (4 Bft)
06.09.2024 16:03 24,8 °C 31,4 °C 56 % 32 % 1011,5 hPa 0,0 l/m² 20,7 km/h (4 Bft) O-NO 73 ° 1 min 522 W/m² 12,7 °C 30,9 °C 29,0 km/h (5 Bft)
06.09.2024 16:04 24,8 °C 31,4 °C 56 % 32 % 1011,5 hPa 0,0 l/m² 16,0 km/h (3 Bft) O 84 ° 1 min 520 W/m² 12,7 °C 31,0 °C 20,9 km/h (4 Bft)
06.09.2024 16:05 24,9 °C 31,4 °C 56 % 32 % 1011,4 hPa 0,0 l/m² 12,5 km/h (2 Bft) O 97 ° 1 min 519 W/m² 12,7 °C 31,1 °C 20,9 km/h (4 Bft)
06.09.2024 16:06 24,9 °C 31,4 °C 56 % 33 % 1011,5 hPa 0,0 l/m² 12,7 km/h (3 Bft) NO 51 ° 1 min 512 W/m² 13,2 °C 31,1 °C 17,7 km/h (3 Bft)
06.09.2024 16:07 24,8 °C 31,3 °C 56 % 31 % 1011,5 hPa 0,0 l/m² 12,7 km/h (3 Bft) O-NO 71 ° 1 min 510 W/m² 12,1 °C 31,0 °C 20,9 km/h (4 Bft)
06.09.2024 16:08 24,9 °C 31,3 °C 56 % 32 % 1011,4 hPa 0,0 l/m² 10,1 km/h (2 Bft) O 88 ° 1 min 512 W/m² 12,6 °C 31,1 °C 22,5 km/h (4 Bft)
06.09.2024 16:09 24,9 °C 31,3 °C 56 % 32 % 1011,4 hPa 0,0 l/m² 16,5 km/h (3 Bft) O-NO 63 ° 1 min 471 W/m² 12,6 °C 30,9 °C 25,7 km/h (4 Bft)
06.09.2024 16:10 24,8 °C 31,3 °C 56 % 31 % 1011,5 hPa 0,0 l/m² 10,7 km/h (2 Bft) O 86 ° 1 min 448 W/m² 12,1 °C 31,1 °C 16,1 km/h (3 Bft)
06.09.2024 16:11 24,9 °C 31,2 °C 56 % 32 % 1011,5 hPa 0,0 l/m² 11,3 km/h (2 Bft) O-NO 76 ° 1 min 459 W/m² 12,5 °C 31,0 °C 19,3 km/h (3 Bft)
06.09.2024 16:12 24,9 °C 31,2 °C 56 % 32 % 1011,5 hPa 0,0 l/m² 15,4 km/h (3 Bft) O-NO 78 ° 1 min 452 W/m² 12,5 °C 30,8 °C 20,9 km/h (4 Bft)
06.09.2024 16:13 24,9 °C 31,3 °C 56 % 32 % 1011,5 hPa 0,0 l/m² 13,3 km/h (3 Bft) NO 52 ° 1 min 424 W/m² 12,6 °C 31,0 °C 24,1 km/h (4 Bft)
06.09.2024 16:14 24,9 °C 31,3 °C 56 % 32 % 1011,4 hPa 0,0 l/m² 15,9 km/h (3 Bft) O-NO 68 ° 1 min 424 W/m² 12,6 °C 30,9 °C 20,9 km/h (4 Bft)
06.09.2024 16:15 24,9 °C 31,2 °C 56 % 31 % 1011,4 hPa 0,0 l/m² 13,3 km/h (3 Bft) O-NO 78 ° 1 min 427 W/m² 12,0 °C 30,9 °C 17,7 km/h (3 Bft)
06.09.2024 16:16 24,9 °C 31,2 °C 56 % 32 % 1011,4 hPa 0,0 l/m² 9,0 km/h (2 Bft) O-NO 76 ° 1 min 454 W/m² 12,5 °C 31,1 °C 11,3 km/h (2 Bft)
06.09.2024 16:17 24,9 °C 31,3 °C 56 % 32 % 1011,4 hPa 0,0 l/m² 13,8 km/h (3 Bft) O 82 ° 1 min 475 W/m² 12,6 °C 31,0 °C 19,3 km/h (3 Bft)
06.09.2024 16:18 24,9 °C 31,3 °C 56 % 32 % 1011,4 hPa 0,0 l/m² 10,3 km/h (2 Bft) O-NO 74 ° 1 min 482 W/m² 12,6 °C 31,1 °C 17,7 km/h (3 Bft)
06.09.2024 16:19 24,9 °C 31,4 °C 56 % 32 % 1011,5 hPa 0,0 l/m² 19,3 km/h (3 Bft) O 85 ° 1 min 482 W/m² 12,7 °C 30,9 °C 24,1 km/h (4 Bft)
06.09.2024 16:20 24,9 °C 31,4 °C 56 % 32 % 1011,5 hPa 0,0 l/m² 17,4 km/h (3 Bft) O 96 ° 1 min 478 W/m² 12,7 °C 31,0 °C 24,1 km/h (4 Bft)
06.09.2024 16:21 24,9 °C 31,3 °C 56 % 31 % 1011,4 hPa 0,0 l/m² 20,0 km/h (4 Bft) O 92 ° 1 min 476 W/m² 12,1 °C 30,8 °C 25,7 km/h (4 Bft)
06.09.2024 16:22 24,9 °C 31,3 °C 56 % 32 % 1011,5 hPa 0,0 l/m² 20,0 km/h (4 Bft) O 98 ° 1 min 476 W/m² 12,6 °C 30,8 °C 24,1 km/h (4 Bft)
06.09.2024 16:23 24,9 °C 31,3 °C 56 % 32 % 1011,5 hPa 0,0 l/m² 19,8 km/h (3 Bft) O 95 ° 1 min 475 W/m² 12,6 °C 30,8 °C 24,1 km/h (4 Bft)
06.09.2024 16:24 24,9 °C 31,2 °C 56 % 31 % 1011,5 hPa 0,0 l/m² 14,6 km/h (3 Bft) O 94 ° 1 min 469 W/m² 12,0 °C 30,8 °C 19,3 km/h (3 Bft)
06.09.2024 16:25 24,9 °C 31,2 °C 56 % 32 % 1011,5 hPa 0,0 l/m² 18,0 km/h (3 Bft) O-NO 74 ° 1 min 469 W/m² 12,5 °C 30,7 °C 24,1 km/h (4 Bft)
06.09.2024 16:26 24,9 °C 31,1 °C 56 % 32 % 1011,5 hPa 0,0 l/m² 17,6 km/h (3 Bft) O 80 ° 1 min 468 W/m² 12,4 °C 30,6 °C 24,1 km/h (4 Bft)
06.09.2024 16:27 24,9 °C 31,1 °C 56 % 32 % 1011,5 hPa 0,0 l/m² 14,0 km/h (3 Bft) O-NO 77 ° 1 min 466 W/m² 12,4 °C 30,7 °C 17,7 km/h (3 Bft)
06.09.2024 16:28 24,9 °C 31,1 °C 57 % 33 % 1011,5 hPa 0,0 l/m² 9,6 km/h (2 Bft) O-NO 70 ° 1 min 464 W/m² 12,9 °C 30,9 °C 17,7 km/h (3 Bft)
06.09.2024 16:29 24,9 °C 31,2 °C 56 % 33 % 1011,4 hPa 0,0 l/m² 10,3 km/h (2 Bft) NO 46 ° 1 min 462 W/m² 13,0 °C 31,0 °C 20,9 km/h (4 Bft)
06.09.2024 16:30 24,9 °C 31,2 °C 56 % 32 % 1011,4 hPa 0,0 l/m² 7,6 km/h (2 Bft) O-NO 70 ° 1 min 457 W/m² 12,5 °C 31,1 °C 16,1 km/h (3 Bft)
06.09.2024 16:31 24,9 °C 31,3 °C 56 % 32 % 1011,4 hPa 0,0 l/m² 7,3 km/h (2 Bft) O-SO 117 ° 1 min 457 W/m² 12,6 °C 31,3 °C 14,5 km/h (3 Bft)
06.09.2024 16:32 24,9 °C 31,4 °C 56 % 32 % 1011,6 hPa 0,0 l/m² 17,2 km/h (3 Bft) O 91 ° 1 min 457 W/m² 12,7 °C 31,0 °C 24,1 km/h (4 Bft)
06.09.2024 16:33 24,9 °C 31,4 °C 56 % 32 % 1011,5 hPa 0,0 l/m² 16,2 km/h (3 Bft) O 82 ° 1 min 455 W/m² 12,7 °C 31,0 °C 24,1 km/h (4 Bft)
06.09.2024 16:34 24,9 °C 31,4 °C 56 % 32 % 1011,5 hPa 0,0 l/m² 21,1 km/h (4 Bft) O 85 ° 1 min 452 W/m² 12,7 °C 30,9 °C 25,7 km/h (4 Bft)
06.09.2024 16:35 24,9 °C 31,3 °C 56 % 32 % 1011,5 hPa 0,0 l/m² 19,4 km/h (3 Bft) O 92 ° 1 min 446 W/m² 12,6 °C 30,8 °C 24,1 km/h (4 Bft)
06.09.2024 16:36 24,9 °C 31,3 °C 56 % 32 % 1011,5 hPa 0,0 l/m² 16,7 km/h (3 Bft) O 100 ° 1 min 443 W/m² 12,6 °C 30,9 °C 19,3 km/h (3 Bft)
06.09.2024 16:37 24,9 °C 31,2 °C 56 % 32 % 1011,4 hPa 0,0 l/m² 15,1 km/h (3 Bft) O 88 ° 1 min 439 W/m² 12,5 °C 30,8 °C 19,3 km/h (3 Bft)
06.09.2024 16:38 24,9 °C 31,2 °C 56 % 33 % 1011,4 hPa 0,0 l/m² 16,0 km/h (3 Bft) O 86 ° 1 min 360 W/m² 13,0 °C 30,8 °C 20,9 km/h (4 Bft)
06.09.2024 16:39 24,9 °C 31,2 °C 56 % 32 % 1011,4 hPa 0,0 l/m² 15,4 km/h (3 Bft) O-NO 71 ° 1 min 438 W/m² 12,5 °C 30,8 °C 24,1 km/h (4 Bft)
06.09.2024 16:40 24,9 °C 31,2 °C 56 % 33 % 1011,5 hPa 0,0 l/m² 10,7 km/h (2 Bft) NO 42 ° 1 min 436 W/m² 13,0 °C 31,0 °C 20,9 km/h (4 Bft)
06.09.2024 16:41 24,9 °C 31,1 °C 56 % 32 % 1011,4 hPa 0,0 l/m² 15,4 km/h (3 Bft) O 82 ° 1 min 434 W/m² 12,4 °C 30,7 °C 25,7 km/h (4 Bft)
06.09.2024 16:42 24,9 °C 31,1 °C 56 % 32 % 1011,5 hPa 0,0 l/m² 13,8 km/h (3 Bft) O 90 ° 1 min 422 W/m² 12,4 °C 30,7 °C 17,7 km/h (3 Bft)
06.09.2024 16:43 24,9 °C 31,1 °C 56 % 32 % 1011,4 hPa 0,0 l/m² 12,1 km/h (2 Bft) O-NO 68 ° 1 min 422 W/m² 12,4 °C 30,8 °C 17,7 km/h (3 Bft)
06.09.2024 16:44 24,9 °C 31,1 °C 56 % 32 % 1011,4 hPa 0,0 l/m² 11,5 km/h (2 Bft) NO 49 ° 1 min 357 W/m² 12,4 °C 30,8 °C 17,7 km/h (3 Bft)
06.09.2024 16:45 24,9 °C 31,1 °C 56 % 32 % 1011,4 hPa 0,0 l/m² 14,8 km/h (3 Bft) NO 55 ° 1 min 313 W/m² 12,4 °C 30,7 °C 24,1 km/h (4 Bft)
06.09.2024 16:46 24,9 °C 31,0 °C 56 % 32 % 1011,5 hPa 0,0 l/m² 13,3 km/h (3 Bft) O 90 ° 1 min 232 W/m² 12,3 °C 30,6 °C 17,7 km/h (3 Bft)
06.09.2024 16:47 24,9 °C 31,0 °C 56 % 33 % 1011,5 hPa 0,0 l/m² 8,7 km/h (2 Bft) NO 54 ° 1 min 232 W/m² 12,8 °C 30,9 °C 16,1 km/h (3 Bft)
06.09.2024 16:48 24,9 °C 30,9 °C 56 % 32 % 1011,4 hPa 0,0 l/m² 15,1 km/h (3 Bft) O-NO 65 ° 1 min 190 W/m² 12,3 °C 30,5 °C 24,1 km/h (4 Bft)
06.09.2024 16:49 24,9 °C 30,8 °C 56 % 32 % 1011,4 hPa 0,0 l/m² 10,5 km/h (2 Bft) O-SO 116 ° 1 min 162 W/m² 12,2 °C 30,5 °C 14,5 km/h (3 Bft)
06.09.2024 16:50 24,8 °C 30,6 °C 56 % 32 % 1011,4 hPa 0,0 l/m² 8,0 km/h (2 Bft) O 84 ° 1 min 137 W/m² 12,0 °C 30,5 °C 14,5 km/h (3 Bft)
06.09.2024 16:51 24,8 °C 30,4 °C 56 % 33 % 1011,5 hPa 0,0 l/m² 10,9 km/h (2 Bft) O-NO 77 ° 1 min 125 W/m² 12,3 °C 30,1 °C 16,1 km/h (3 Bft)
06.09.2024 16:52 24,9 °C 30,3 °C 56 % 33 % 1011,5 hPa 0,0 l/m² 8,3 km/h (2 Bft) O 86 ° 1 min 123 W/m² 12,2 °C 30,1 °C 14,5 km/h (3 Bft)
06.09.2024 16:54 24,9 °C 30,2 °C 56 % 33 % 1011,4 hPa 0,0 l/m² 10,1 km/h (2 Bft) O-NO 76 ° 2 min 151 W/m² 12,1 °C 29,9 °C 14,5 km/h (3 Bft)
06.09.2024 16:55 24,9 °C 30,1 °C 56 % 34 % 1011,4 hPa 0,0 l/m² 6,1 km/h (2 Bft) O 82 ° 1 min 169 W/m² 12,5 °C 30,1 °C 14,5 km/h (3 Bft)
06.09.2024 16:56 24,8 °C 30,1 °C 56 % 33 % 1011,4 hPa 0,0 l/m² 9,7 km/h (2 Bft) O 83 ° 1 min 158 W/m² 12,0 °C 29,8 °C 14,5 km/h (3 Bft)
06.09.2024 16:57 24,8 °C 30,1 °C 56 % 34 % 1011,4 hPa 0,0 l/m² 14,6 km/h (3 Bft) O-NO 74 ° 1 min 174 W/m² 12,5 °C 29,5 °C 22,5 km/h (4 Bft)
06.09.2024 16:58 24,8 °C 30,0 °C 56 % 33 % 1011,5 hPa 0,0 l/m² 22,1 km/h (4 Bft) O-NO 76 ° 1 min 192 W/m² 11,9 °C 29,0 °C 25,7 km/h (4 Bft)
06.09.2024 16:59 24,8 °C 30,0 °C 56 % 33 % 1011,5 hPa 0,0 l/m² 14,5 km/h (3 Bft) O-NO 71 ° 1 min 246 W/m² 11,9 °C 29,4 °C 24,1 km/h (4 Bft)
06.09.2024 17:00 24,8 °C 30,0 °C 56 % 33 % 1011,4 hPa 0,0 l/m² 14,1 km/h (3 Bft) O-NO 72 ° 1 min 288 W/m² 11,9 °C 29,4 °C 17,7 km/h (3 Bft)
06.09.2024 17:02 24,8 °C 30,0 °C 56 % 33 % 1011,4 hPa 0,0 l/m² 16,4 km/h (3 Bft) O 86 ° 2 min 322 W/m² 11,9 °C 29,3 °C 22,5 km/h (4 Bft)
06.09.2024 17:03 24,8 °C 30,0 °C 56 % 33 % 1011,4 hPa 0,0 l/m² 16,5 km/h (3 Bft) O-NO 77 ° 1 min 345 W/m² 11,9 °C 29,3 °C 20,9 km/h (4 Bft)
06.09.2024 17:04 24,8 °C 30,1 °C 56 % 33 % 1011,4 hPa 0,0 l/m² 17,1 km/h (3 Bft) O 82 ° 1 min 345 W/m² 12,0 °C 29,4 °C 25,7 km/h (4 Bft)
06.09.2024 17:05 24,8 °C 30,2 °C 56 % 34 % 1011,3 hPa 0,0 l/m² 15,2 km/h (3 Bft) O 80 ° 1 min 364 W/m² 12,6 °C 29,6 °C 19,3 km/h (3 Bft)
06.09.2024 17:06 24,8 °C 30,3 °C 56 % 33 % 1011,4 hPa 0,0 l/m² 12,0 km/h (2 Bft) O-NO 71 ° 1 min 369 W/m² 12,2 °C 29,9 °C 20,9 km/h (4 Bft)
06.09.2024 17:07 24,8 °C 30,4 °C 56 % 33 % 1011,4 hPa 0,0 l/m² 13,2 km/h (3 Bft) NO 53 ° 1 min 371 W/m² 12,3 °C 29,9 °C 20,9 km/h (4 Bft)
06.09.2024 17:08 24,8 °C 30,4 °C 56 % 33 % 1011,4 hPa 0,0 l/m² 14,5 km/h (3 Bft) O 81 ° 1 min 371 W/m² 12,3 °C 29,9 °C 19,3 km/h (3 Bft)
06.09.2024 17:09 24,8 °C 30,4 °C 56 % 33 % 1011,4 hPa 0,0 l/m² 13,8 km/h (3 Bft) O-NO 69 ° 1 min 369 W/m² 12,3 °C 29,9 °C 17,7 km/h (3 Bft)
06.09.2024 17:10 24,8 °C 30,5 °C 56 % 33 % 1011,3 hPa 0,0 l/m² 12,6 km/h (3 Bft) NO 50 ° 1 min 367 W/m² 12,4 °C 30,1 °C 20,9 km/h (4 Bft)
06.09.2024 17:11 24,8 °C 30,5 °C 56 % 33 % 1011,4 hPa 0,0 l/m² 16,2 km/h (3 Bft) O 79 ° 1 min 364 W/m² 12,4 °C 29,9 °C 22,5 km/h (4 Bft)
06.09.2024 17:12 24,8 °C 30,6 °C 56 % 33 % 1011,4 hPa 0,0 l/m² 14,1 km/h (3 Bft) O-NO 74 ° 1 min 364 W/m² 12,5 °C 30,1 °C 17,7 km/h (3 Bft)
06.09.2024 17:13 24,8 °C 30,6 °C 56 % 33 % 1011,3 hPa 0,0 l/m² 12,4 km/h (2 Bft) O-NO 78 ° 1 min 359 W/m² 12,5 °C 30,2 °C 16,1 km/h (3 Bft)
06.09.2024 17:14 24,8 °C 30,6 °C 56 % 33 % 1011,4 hPa 0,0 l/m² 14,3 km/h (3 Bft) O-NO 60 ° 1 min 359 W/m² 12,5 °C 30,1 °C 17,7 km/h (3 Bft)
06.09.2024 17:15 24,8 °C 30,6 °C 56 % 33 % 1011,4 hPa 0,0 l/m² 15,4 km/h (3 Bft) NO 52 ° 1 min 357 W/m² 12,5 °C 30,1 °C 19,3 km/h (3 Bft)
06.09.2024 17:16 24,8 °C 30,6 °C 56 % 33 % 1011,4 hPa 0,0 l/m² 14,3 km/h (3 Bft) O-NO 67 ° 1 min 353 W/m² 12,5 °C 30,1 °C 22,5 km/h (4 Bft)
06.09.2024 17:17 24,8 °C 30,6 °C 56 % 32 % 1011,4 hPa 0,0 l/m² 16,0 km/h (3 Bft) NO 56 ° 1 min 350 W/m² 12,0 °C 30,0 °C 19,3 km/h (3 Bft)
06.09.2024 17:18 24,8 °C 30,6 °C 56 % 32 % 1011,4 hPa 0,0 l/m² 16,4 km/h (3 Bft) O 82 ° 1 min 348 W/m² 12,0 °C 30,0 °C 22,5 km/h (4 Bft)
06.09.2024 17:19 24,8 °C 30,5 °C 56 % 32 % 1011,4 hPa 0,0 l/m² 17,6 km/h (3 Bft) O-NO 65 ° 1 min 346 W/m² 11,9 °C 29,9 °C 22,5 km/h (4 Bft)
06.09.2024 17:20 24,8 °C 30,5 °C 56 % 33 % 1011,4 hPa 0,0 l/m² 10,0 km/h (2 Bft) NO 54 ° 1 min 343 W/m² 12,4 °C 30,2 °C 14,5 km/h (3 Bft)
06.09.2024 17:21 24,8 °C 30,5 °C 57 % 32 % 1011,4 hPa 0,0 l/m² 11,8 km/h (2 Bft) O-NO 57 ° 1 min 341 W/m² 11,9 °C 30,1 °C 20,9 km/h (4 Bft)
06.09.2024 17:22 24,8 °C 30,5 °C 57 % 32 % 1011,4 hPa 0,0 l/m² 6,7 km/h (2 Bft) O 82 ° 1 min 332 W/m² 11,9 °C 30,5 °C 12,9 km/h (3 Bft)
06.09.2024 17:23 24,8 °C 30,6 °C 57 % 33 % 1011,3 hPa 0,0 l/m² 8,6 km/h (2 Bft) NO 51 ° 1 min 329 W/m² 12,5 °C 30,4 °C 14,5 km/h (3 Bft)
06.09.2024 17:24 24,8 °C 30,6 °C 57 % 33 % 1011,4 hPa 0,0 l/m² 9,7 km/h (2 Bft) NO 38 ° 1 min 325 W/m² 12,5 °C 30,4 °C 24,1 km/h (4 Bft)
06.09.2024 17:25 24,8 °C 30,6 °C 57 % 32 % 1011,4 hPa 0,0 l/m² 9,9 km/h (2 Bft) NO 52 ° 1 min 323 W/m² 12,0 °C 30,4 °C 19,3 km/h (3 Bft)
06.09.2024 17:26 24,8 °C 30,6 °C 57 % 32 % 1011,4 hPa 0,0 l/m² 11,2 km/h (2 Bft) O-NO 63 ° 1 min 320 W/m² 12,0 °C 30,3 °C 20,9 km/h (4 Bft)
06.09.2024 17:27 24,8 °C 30,6 °C 57 % 32 % 1011,3 hPa 0,0 l/m² 14,1 km/h (3 Bft) NO 56 ° 1 min 316 W/m² 12,0 °C 30,1 °C 19,3 km/h (3 Bft)
06.09.2024 17:28 24,8 °C 30,5 °C 57 % 32 % 1011,4 hPa 0,0 l/m² 14,0 km/h (3 Bft) O-NO 58 ° 1 min 309 W/m² 11,9 °C 30,0 °C 17,7 km/h (3 Bft)
06.09.2024 17:29 24,8 °C 30,4 °C 57 % 32 % 1011,4 hPa 0,0 l/m² 12,0 km/h (2 Bft) O-NO 57 ° 1 min 306 W/m² 11,8 °C 30,0 °C 17,7 km/h (3 Bft)
06.09.2024 17:30 24,8 °C 30,4 °C 57 % 32 % 1011,4 hPa 0,0 l/m² 11,3 km/h (2 Bft) O 82 ° 1 min 302 W/m² 11,8 °C 30,0 °C 20,9 km/h (4 Bft)
06.09.2024 17:31 24,8 °C 30,5 °C 57 % 32 % 1011,3 hPa 0,0 l/m² 15,0 km/h (3 Bft) O-NO 67 ° 1 min 297 W/m² 11,9 °C 30,0 °C 20,9 km/h (4 Bft)
06.09.2024 17:32 24,8 °C 30,4 °C 57 % 32 % 1011,4 hPa 0,0 l/m² 11,6 km/h (2 Bft) NO 46 ° 1 min 295 W/m² 11,8 °C 30,0 °C 22,5 km/h (4 Bft)
06.09.2024 17:33 24,8 °C 30,4 °C 57 % 32 % 1011,4 hPa 0,0 l/m² 11,0 km/h (2 Bft) O 91 ° 1 min 292 W/m² 11,8 °C 30,1 °C 19,3 km/h (3 Bft)
06.09.2024 17:34 24,8 °C 30,4 °C 57 % 32 % 1011,4 hPa 0,0 l/m² 13,3 km/h (3 Bft) O-NO 71 ° 1 min 285 W/m² 11,8 °C 29,9 °C 19,3 km/h (3 Bft)
06.09.2024 17:35 24,8 °C 30,4 °C 57 % 33 % 1011,4 hPa 0,0 l/m² 13,2 km/h (3 Bft) O-NO 74 ° 1 min 281 W/m² 12,3 °C 29,9 °C 22,5 km/h (4 Bft)
06.09.2024 17:36 24,8 °C 30,4 °C 57 % 32 % 1011,4 hPa 0,0 l/m² 15,9 km/h (3 Bft) O-NO 78 ° 1 min 279 W/m² 11,8 °C 29,8 °C 24,1 km/h (4 Bft)
06.09.2024 17:37 24,8 °C 30,3 °C 57 % 32 % 1011,4 hPa 0,0 l/m² 16,2 km/h (3 Bft) NO 55 ° 1 min 276 W/m² 11,7 °C 29,7 °C 22,5 km/h (4 Bft)
06.09.2024 17:38 24,8 °C 30,3 °C 57 % 32 % 1011,4 hPa 0,0 l/m² 16,2 km/h (3 Bft) O 88 ° 1 min 272 W/m² 11,7 °C 29,7 °C 22,5 km/h (4 Bft)
06.09.2024 17:39 24,8 °C 30,3 °C 57 % 33 % 1011,4 hPa 0,0 l/m² 19,0 km/h (3 Bft) O-NO 75 ° 1 min 274 W/m² 12,2 °C 29,6 °C 24,1 km/h (4 Bft)
06.09.2024 17:40 24,8 °C 30,2 °C 57 % 33 % 1011,4 hPa 0,0 l/m² 17,5 km/h (3 Bft) O 82 ° 1 min 260 W/m² 12,1 °C 29,5 °C 22,5 km/h (4 Bft)
06.09.2024 17:41 24,8 °C 30,2 °C 57 % 33 % 1011,4 hPa 0,0 l/m² 9,7 km/h (2 Bft) O 82 ° 1 min 253 W/m² 12,1 °C 29,9 °C 14,5 km/h (3 Bft)
06.09.2024 17:42 24,8 °C 30,2 °C 57 % 32 % 1011,4 hPa 0,0 l/m² 13,7 km/h (3 Bft) O 85 ° 1 min 253 W/m² 11,7 °C 29,7 °C 20,9 km/h (4 Bft)
06.09.2024 17:43 24,8 °C 30,1 °C 57 % 32 % 1011,4 hPa 0,0 l/m² 11,5 km/h (2 Bft) O 97 ° 1 min 253 W/m² 11,6 °C 29,7 °C 20,9 km/h (4 Bft)
06.09.2024 17:44 24,8 °C 30,1 °C 57 % 33 % 1011,4 hPa 0,0 l/m² 18,8 km/h (3 Bft) O 85 ° 1 min 223 W/m² 12,0 °C 29,3 °C 24,1 km/h (4 Bft)
06.09.2024 17:45 24,8 °C 30,0 °C 56 % 32 % 1011,4 hPa 0,0 l/m² 19,0 km/h (3 Bft) O-NO 72 ° 1 min 160 W/m² 11,5 °C 29,2 °C 24,1 km/h (4 Bft)
06.09.2024 17:46 24,8 °C 29,9 °C 56 % 33 % 1011,4 hPa 0,0 l/m² 12,0 km/h (2 Bft) O-NO 69 ° 1 min 135 W/m² 11,9 °C 29,4 °C 16,1 km/h (3 Bft)
06.09.2024 17:47 24,8 °C 29,8 °C 57 % 33 % 1011,4 hPa 0,0 l/m² 11,0 km/h (2 Bft) O 94 ° 1 min 118 W/m² 11,8 °C 29,4 °C 19,3 km/h (3 Bft)
06.09.2024 17:48 24,8 °C 29,8 °C 57 % 33 % 1011,4 hPa 0,0 l/m² 10,9 km/h (2 Bft) O 83 ° 1 min 218 W/m² 11,8 °C 29,4 °C 14,5 km/h (3 Bft)
06.09.2024 17:49 24,8 °C 29,8 °C 57 % 33 % 1011,4 hPa 0,0 l/m² 16,4 km/h (3 Bft) O 84 ° 1 min 183 W/m² 11,8 °C 29,0 °C 22,5 km/h (4 Bft)
06.09.2024 17:50 24,8 °C 29,7 °C 57 % 33 % 1011,5 hPa 0,0 l/m² 15,8 km/h (3 Bft) NO 55 ° 1 min 95 W/m² 11,7 °C 29,0 °C 20,9 km/h (4 Bft)
06.09.2024 17:51 24,8 °C 29,7 °C 57 % 33 % 1011,5 hPa 0,0 l/m² 13,6 km/h (3 Bft) O 79 ° 1 min 95 W/m² 11,7 °C 29,1 °C 19,3 km/h (3 Bft)
06.09.2024 17:52 24,8 °C 29,7 °C 57 % 33 % 1011,5 hPa 0,0 l/m² 9,9 km/h (2 Bft) O 81 ° 1 min 146 W/m² 11,7 °C 29,4 °C 14,5 km/h (3 Bft)
06.09.2024 17:53 24,8 °C 29,7 °C 57 % 33 % 1011,5 hPa 0,0 l/m² 9,8 km/h (2 Bft) O 80 ° 1 min 181 W/m² 11,7 °C 29,4 °C 14,5 km/h (3 Bft)
06.09.2024 17:54 24,8 °C 29,7 °C 57 % 33 % 1011,4 hPa 0,0 l/m² 7,3 km/h (2 Bft) NO 44 ° 1 min 188 W/m² 11,7 °C 29,6 °C 12,9 km/h (3 Bft)
06.09.2024 17:55 24,8 °C 29,7 °C 57 % 33 % 1011,5 hPa 0,0 l/m² 8,5 km/h (2 Bft) O 91 ° 1 min 181 W/m² 11,7 °C 29,5 °C 14,5 km/h (3 Bft)
06.09.2024 17:56 24,8 °C 29,7 °C 57 % 33 % 1011,4 hPa 0,0 l/m² 8,5 km/h (2 Bft) O-NO 63 ° 1 min 86 W/m² 11,7 °C 29,5 °C 14,5 km/h (3 Bft)
06.09.2024 17:57 24,8 °C 29,7 °C 57 % 33 % 1011,5 hPa 0,0 l/m² 14,7 km/h (3 Bft) N-NO 21 ° 1 min 142 W/m² 11,7 °C 29,0 °C 22,5 km/h (4 Bft)
06.09.2024 17:58 24,8 °C 29,7 °C 57 % 33 % 1011,5 hPa 0,0 l/m² 13,3 km/h (3 Bft) O 84 ° 1 min 70 W/m² 11,7 °C 29,1 °C 22,5 km/h (4 Bft)
06.09.2024 17:59 24,9 °C 29,7 °C 57 % 33 % 1011,5 hPa 0,0 l/m² 11,7 km/h (2 Bft) N-NO 33 ° 1 min 79 W/m² 11,7 °C 29,2 °C 19,3 km/h (3 Bft)
06.09.2024 18:00 24,8 °C 29,6 °C 57 % 32 % 1011,4 hPa 0,0 l/m² 8,6 km/h (2 Bft) O 80 ° 1 min 128 W/m² 11,1 °C 29,4 °C 14,5 km/h (3 Bft)
06.09.2024 18:01 24,8 °C 29,6 °C 57 % 33 % 1011,4 hPa 0,0 l/m² 11,2 km/h (2 Bft) O-NO 57 ° 1 min 86 W/m² 11,6 °C 29,1 °C 22,5 km/h (4 Bft)
06.09.2024 18:02 24,8 °C 29,6 °C 57 % 33 % 1011,4 hPa 0,0 l/m² 12,5 km/h (2 Bft) O-NO 58 ° 1 min 107 W/m² 11,6 °C 29,0 °C 22,5 km/h (4 Bft)
06.09.2024 18:03 24,9 °C 29,5 °C 58 % 33 % 1011,4 hPa 0,0 l/m² 13,9 km/h (3 Bft) NO 53 ° 1 min 65 W/m² 11,5 °C 28,8 °C 19,3 km/h (3 Bft)
06.09.2024 18:04 24,8 °C 29,5 °C 58 % 33 % 1011,5 hPa 0,0 l/m² 11,6 km/h (2 Bft) O 91 ° 1 min 79 W/m² 11,5 °C 29,0 °C 20,9 km/h (4 Bft)
06.09.2024 18:05 24,8 °C 29,4 °C 58 % 33 % 1011,5 hPa 0,0 l/m² 12,1 km/h (2 Bft) O-NO 62 ° 1 min 88 W/m² 11,4 °C 28,8 °C 17,7 km/h (3 Bft)
06.09.2024 18:07 24,9 °C 29,4 °C 58 % 33 % 1011,5 hPa 0,0 l/m² 11,3 km/h (2 Bft) O 82 ° 2 min 86 W/m² 11,4 °C 28,9 °C 17,7 km/h (3 Bft)
06.09.2024 18:08 24,9 °C 29,3 °C 58 % 33 % 1011,5 hPa 0,0 l/m² 9,4 km/h (2 Bft) O 83 ° 1 min 62 W/m² 11,3 °C 29,0 °C 14,5 km/h (3 Bft)
06.09.2024 18:09 24,8 °C 29,3 °C 58 % 33 % 1011,5 hPa 0,0 l/m² 10,7 km/h (2 Bft) NO 35 ° 1 min 90 W/m² 11,3 °C 28,8 °C 16,1 km/h (3 Bft)
06.09.2024 18:10 24,8 °C 29,3 °C 57 % 33 % 1011,4 hPa 0,0 l/m² 10,7 km/h (2 Bft) O-NO 67 ° 1 min 69 W/m² 11,3 °C 28,8 °C 19,3 km/h (3 Bft)
06.09.2024 18:11 24,8 °C 29,3 °C 57 % 33 % 1011,5 hPa 0,0 l/m² 10,2 km/h (2 Bft) NO 49 ° 1 min 60 W/m² 11,3 °C 28,9 °C 16,1 km/h (3 Bft)
06.09.2024 18:12 24,8 °C 29,3 °C 57 % 33 % 1011,5 hPa 0,0 l/m² 10,0 km/h (2 Bft) NO 53 ° 1 min 63 W/m² 11,3 °C 28,9 °C 14,5 km/h (3 Bft)
06.09.2024 18:13 24,8 °C 29,2 °C 57 % 32 % 1011,5 hPa 0,0 l/m² 9,5 km/h (2 Bft) NO 53 ° 1 min 62 W/m² 10,8 °C 28,9 °C 17,7 km/h (3 Bft)
06.09.2024 18:14 24,8 °C 29,2 °C 57 % 32 % 1011,5 hPa 0,0 l/m² 11,2 km/h (2 Bft) O-NO 76 ° 1 min 60 W/m² 10,8 °C 28,7 °C 17,7 km/h (3 Bft)
06.09.2024 18:15 24,8 °C 29,2 °C 57 % 33 % 1011,6 hPa 0,0 l/m² 11,9 km/h (2 Bft) O 88 ° 1 min 60 W/m² 11,3 °C 28,6 °C 19,3 km/h (3 Bft)
06.09.2024 18:16 24,8 °C 29,2 °C 57 % 32 % 1011,5 hPa 0,0 l/m² 10,7 km/h (2 Bft) O 81 ° 1 min 58 W/m² 10,8 °C 28,7 °C 17,7 km/h (3 Bft)
06.09.2024 18:17 24,8 °C 29,2 °C 57 % 33 % 1011,6 hPa 0,0 l/m² 12,4 km/h (2 Bft) O 86 ° 1 min 58 W/m² 11,3 °C 28,6 °C 16,1 km/h (3 Bft)
06.09.2024 18:18 24,8 °C 29,2 °C 57 % 33 % 1011,6 hPa 0,0 l/m² 7,7 km/h (2 Bft) O-NO 59 ° 1 min 58 W/m² 11,3 °C 29,0 °C 11,3 km/h (2 Bft)
06.09.2024 18:19 24,8 °C 29,1 °C 57 % 33 % 1011,5 hPa 0,0 l/m² 12,9 km/h (3 Bft) NO 48 ° 1 min 58 W/m² 11,2 °C 28,4 °C 17,7 km/h (3 Bft)
06.09.2024 18:20 24,8 °C 29,1 °C 57 % 33 % 1011,5 hPa 0,0 l/m² 11,9 km/h (2 Bft) O-NO 74 ° 1 min 58 W/m² 11,2 °C 28,5 °C 20,9 km/h (4 Bft)
06.09.2024 18:21 24,8 °C 29,1 °C 57 % 33 % 1011,5 hPa 0,0 l/m² 8,2 km/h (2 Bft) O-NO 75 ° 1 min 56 W/m² 11,2 °C 28,9 °C 16,1 km/h (3 Bft)
06.09.2024 18:22 24,8 °C 29,1 °C 57 % 33 % 1011,6 hPa 0,0 l/m² 12,3 km/h (2 Bft) O 84 ° 1 min 56 W/m² 11,2 °C 28,5 °C 20,9 km/h (4 Bft)
06.09.2024 18:23 24,8 °C 29,1 °C 57 % 33 % 1011,6 hPa 0,0 l/m² 11,7 km/h (2 Bft) O 81 ° 1 min 54 W/m² 11,2 °C 28,5 °C 19,3 km/h (3 Bft)
06.09.2024 18:24 24,8 °C 29,0 °C 57 % 32 % 1011,6 hPa 0,0 l/m² 9,7 km/h (2 Bft) O-NO 68 ° 1 min 54 W/m² 10,6 °C 28,6 °C 17,7 km/h (3 Bft)
06.09.2024 18:25 24,8 °C 28,9 °C 57 % 33 % 1011,6 hPa 0,0 l/m² 8,1 km/h (2 Bft) O 92 ° 1 min 53 W/m² 11,0 °C 28,7 °C 12,9 km/h (3 Bft)
06.09.2024 18:26 24,8 °C 28,9 °C 57 % 32 % 1011,6 hPa 0,0 l/m² 12,2 km/h (2 Bft) NO 44 ° 0 min 51 W/m² 10,5 °C 28,3 °C 19,3 km/h (3 Bft)
06.09.2024 18:27 24,8 °C 28,9 °C 57 % 32 % 1011,5 hPa 0,0 l/m² 8,6 km/h (2 Bft) O-NO 65 ° 0 min 49 W/m² 10,5 °C 28,6 °C 14,5 km/h (3 Bft)
06.09.2024 18:28 24,8 °C 28,9 °C 57 % 33 % 1011,6 hPa 0,0 l/m² 11,1 km/h (2 Bft) O-NO 78 ° 0 min 51 W/m² 11,0 °C 28,4 °C 14,5 km/h (3 Bft)
06.09.2024 18:29 24,8 °C 28,8 °C 57 % 33 % 1011,6 hPa 0,0 l/m² 10,3 km/h (2 Bft) O-NO 78 ° 0 min 51 W/m² 10,9 °C 28,3 °C 14,5 km/h (3 Bft)
06.09.2024 18:30 24,8 °C 28,8 °C 57 % 33 % 1011,6 hPa 0,0 l/m² 7,7 km/h (2 Bft) N 9 ° 0 min 51 W/m² 10,9 °C 28,6 °C 11,3 km/h (2 Bft)
06.09.2024 18:31 24,8 °C 28,7 °C 57 % 33 % 1011,6 hPa 0,0 l/m² 7,9 km/h (2 Bft) O-NO 70 ° 0 min 51 W/m² 10,8 °C 28,5 °C 24,1 km/h (4 Bft)
06.09.2024 18:32 24,8 °C 28,7 °C 57 % 32 % 1011,6 hPa 0,0 l/m² 13,3 km/h (3 Bft) O-NO 65 ° 0 min 51 W/m² 10,4 °C 27,9 °C 24,1 km/h (4 Bft)
06.09.2024 18:33 24,8 °C 28,7 °C 57 % 32 % 1011,7 hPa 0,0 l/m² 11,9 km/h (2 Bft) O-NO 63 ° 1 min 54 W/m² 10,4 °C 28,1 °C 19,3 km/h (3 Bft)
06.09.2024 18:34 24,8 °C 28,7 °C 57 % 32 % 1011,6 hPa 0,0 l/m² 10,6 km/h (2 Bft) O 98 ° 0 min 51 W/m² 10,4 °C 28,2 °C 16,1 km/h (3 Bft)
06.09.2024 18:35 24,8 °C 28,7 °C 57 % 32 % 1011,6 hPa 0,0 l/m² 10,0 km/h (2 Bft) NO 49 ° 0 min 51 W/m² 10,4 °C 28,3 °C 16,1 km/h (3 Bft)
06.09.2024 18:36 24,8 °C 28,7 °C 57 % 32 % 1011,6 hPa 0,0 l/m² 12,3 km/h (2 Bft) NO 49 ° 0 min 49 W/m² 10,4 °C 28,0 °C 16,1 km/h (3 Bft)
06.09.2024 18:37 24,8 °C 28,7 °C 57 % 33 % 1011,7 hPa 0,0 l/m² 8,1 km/h (2 Bft) O-NO 67 ° 0 min 51 W/m² 10,8 °C 28,5 °C 12,9 km/h (3 Bft)
06.09.2024 18:38 24,8 °C 28,7 °C 57 % 33 % 1011,7 hPa 0,0 l/m² 9,1 km/h (2 Bft) NO 37 ° 0 min 49 W/m² 10,8 °C 28,4 °C 16,1 km/h (3 Bft)
06.09.2024 18:39 24,8 °C 28,6 °C 57 % 33 % 1011,7 hPa 0,0 l/m² 11,9 km/h (2 Bft) O 88 ° 0 min 49 W/m² 10,7 °C 27,9 °C 14,5 km/h (3 Bft)
06.09.2024 18:40 24,8 °C 28,6 °C 57 % 32 % 1011,7 hPa 0,0 l/m² 11,1 km/h (2 Bft) NO 48 ° 0 min 47 W/m² 10,3 °C 28,0 °C 17,7 km/h (3 Bft)
06.09.2024 18:41 24,8 °C 28,6 °C 57 % 32 % 1011,8 hPa 0,0 l/m² 8,7 km/h (2 Bft) NO 49 ° 0 min 47 W/m² 10,3 °C 28,3 °C 12,9 km/h (3 Bft)
06.09.2024 18:42 24,8 °C 28,6 °C 57 % 32 % 1011,8 hPa 0,0 l/m² 11,1 km/h (2 Bft) O-NO 78 ° 0 min 46 W/m² 10,3 °C 28,0 °C 16,1 km/h (3 Bft)
06.09.2024 18:43 24,8 °C 28,5 °C 57 % 33 % 1011,8 hPa 0,0 l/m² 10,7 km/h (2 Bft) O-NO 71 ° 0 min 44 W/m² 10,6 °C 28,0 °C 14,5 km/h (3 Bft)
06.09.2024 18:44 24,8 °C 28,4 °C 57 % 33 % 1011,7 hPa 0,0 l/m² 8,3 km/h (2 Bft) O 84 ° 0 min 42 W/m² 10,6 °C 28,1 °C 11,3 km/h (2 Bft)
06.09.2024 18:46 24,8 °C 28,4 °C 57 % 33 % 1011,7 hPa 0,0 l/m² 7,2 km/h (2 Bft) O-SO 103 ° 0 min 40 W/m² 10,6 °C 28,3 °C 14,5 km/h (3 Bft)
06.09.2024 18:47 24,8 °C 28,3 °C 57 % 33 % 1011,8 hPa 0,0 l/m² 9,3 km/h (2 Bft) O-NO 78 ° 0 min 39 W/m² 10,5 °C 27,9 °C 16,1 km/h (3 Bft)
06.09.2024 18:48 24,8 °C 28,2 °C 57 % 34 % 1011,7 hPa 0,0 l/m² 9,8 km/h (2 Bft) NO 41 ° 0 min 37 W/m² 10,8 °C 27,7 °C 16,1 km/h (3 Bft)
06.09.2024 18:49 24,8 °C 28,2 °C 57 % 33 % 1011,7 hPa 0,0 l/m² 7,8 km/h (2 Bft) O-NO 78 ° 0 min 37 W/m² 10,4 °C 28,0 °C 12,9 km/h (3 Bft)
06.09.2024 18:50 24,8 °C 28,1 °C 57 % 33 % 1011,8 hPa 0,0 l/m² 8,0 km/h (2 Bft) O 79 ° 0 min 33 W/m² 10,3 °C 27,9 °C 12,9 km/h (3 Bft)
06.09.2024 18:51 24,8 °C 28,1 °C 57 % 33 % 1011,7 hPa 0,0 l/m² 7,6 km/h (2 Bft) N-NO 32 ° 0 min 33 W/m² 10,3 °C 27,9 °C 12,9 km/h (3 Bft)
06.09.2024 18:52 24,8 °C 28,0 °C 57 % 33 % 1011,7 hPa 0,0 l/m² 7,8 km/h (2 Bft) NO 54 ° 0 min 33 W/m² 10,2 °C 27,8 °C 12,9 km/h (3 Bft)
06.09.2024 18:53 24,8 °C 28,1 °C 57 % 33 % 1011,7 hPa 0,0 l/m² 8,9 km/h (2 Bft) O-NO 71 ° 0 min 33 W/m² 10,3 °C 27,7 °C 16,1 km/h (3 Bft)
06.09.2024 18:54 24,8 °C 28,0 °C 57 % 33 % 1011,7 hPa 0,0 l/m² 6,9 km/h (2 Bft) O-NO 72 ° 0 min 33 W/m² 10,2 °C 27,9 °C 12,9 km/h (3 Bft)
06.09.2024 18:55 24,8 °C 28,0 °C 57 % 33 % 1011,7 hPa 0,0 l/m² 9,7 km/h (2 Bft) O-NO 61 ° 0 min 33 W/m² 10,2 °C 27,5 °C 16,1 km/h (3 Bft)
06.09.2024 18:56 24,8 °C 27,9 °C 57 % 33 % 1011,8 hPa 0,0 l/m² 5,2 km/h (1 Bft) NO 54 ° 0 min 32 W/m² 10,1 °C 27,9 °C 6,4 km/h (2 Bft)
06.09.2024 18:57 24,8 °C 27,9 °C 56 % 34 % 1011,6 hPa 0,0 l/m² 7,5 km/h (2 Bft) O 86 ° 0 min 32 W/m² 10,6 °C 27,7 °C 12,9 km/h (3 Bft)
06.09.2024 18:58 24,8 °C 27,9 °C 56 % 34 % 1011,8 hPa 0,0 l/m² 6,5 km/h (2 Bft) NO 47 ° 0 min 32 W/m² 10,6 °C 27,9 °C 12,9 km/h (3 Bft)
06.09.2024 18:59 24,8 °C 27,9 °C 56 % 34 % 1011,7 hPa 0,0 l/m² 6,1 km/h (2 Bft) O-NO 59 ° 0 min 32 W/m² 10,6 °C 27,9 °C 8,0 km/h (2 Bft)
06.09.2024 19:00 24,8 °C 27,8 °C 56 % 33 % 1011,8 hPa 0,0 l/m² 8,8 km/h (2 Bft) NO 49 ° 0 min 32 W/m² 10,0 °C 27,4 °C 12,9 km/h (3 Bft)
06.09.2024 19:01 24,8 °C 27,8 °C 56 % 34 % 1011,7 hPa 0,0 l/m² 8,5 km/h (2 Bft) NO 38 ° 0 min 32 W/m² 10,5 °C 27,5 °C 14,5 km/h (3 Bft)
06.09.2024 19:02 24,8 °C 27,8 °C 56 % 33 % 1011,7 hPa 0,0 l/m² 7,8 km/h (2 Bft) NO 40 ° 0 min 30 W/m² 10,0 °C 27,6 °C 11,3 km/h (2 Bft)
06.09.2024 19:03 24,8 °C 27,8 °C 56 % 33 % 1011,7 hPa 0,0 l/m² 7,0 km/h (2 Bft) O 84 ° 0 min 30 W/m² 10,0 °C 27,7 °C 12,9 km/h (3 Bft)
06.09.2024 19:04 24,8 °C 27,8 °C 56 % 34 % 1011,7 hPa 0,0 l/m² 4,2 km/h (1 Bft) O-NO 59 ° 0 min 30 W/m² 10,5 °C 27,8 °C 8,0 km/h (2 Bft)
06.09.2024 19:05 24,8 °C 27,8 °C 56 % 34 % 1011,8 hPa 0,0 l/m² 7,7 km/h (2 Bft) O-NO 70 ° 0 min 30 W/m² 10,5 °C 27,6 °C 12,9 km/h (3 Bft)
06.09.2024 19:06 24,8 °C 27,7 °C 56 % 34 % 1011,7 hPa 0,0 l/m² 5,9 km/h (2 Bft) O-NO 75 ° 0 min 28 W/m² 10,4 °C 27,7 °C 11,3 km/h (2 Bft)
06.09.2024 19:07 24,8 °C 27,7 °C 56 % 34 % 1011,6 hPa 0,0 l/m² 7,9 km/h (2 Bft) O-NO 62 ° 0 min 28 W/m² 10,4 °C 27,5 °C 11,3 km/h (2 Bft)
06.09.2024 19:08 24,8 °C 27,7 °C 56 % 34 % 1011,7 hPa 0,0 l/m² 7,5 km/h (2 Bft) O-NO 72 ° 0 min 28 W/m² 10,4 °C 27,5 °C 12,9 km/h (3 Bft)
06.09.2024 19:09 24,8 °C 27,7 °C 55 % 34 % 1011,7 hPa 0,0 l/m² 7,3 km/h (2 Bft) NO 46 ° 0 min 26 W/m² 10,4 °C 27,5 °C 12,9 km/h (3 Bft)
06.09.2024 19:10 24,8 °C 27,6 °C 55 % 34 % 1011,7 hPa 0,0 l/m² 7,7 km/h (2 Bft) NO 49 ° 0 min 26 W/m² 10,3 °C 27,4 °C 14,5 km/h (3 Bft)
06.09.2024 19:11 24,8 °C 27,6 °C 55 % 34 % 1011,6 hPa 0,0 l/m² 6,0 km/h (2 Bft) O-NO 69 ° 0 min 26 W/m² 10,3 °C 27,6 °C 8,0 km/h (2 Bft)
06.09.2024 19:12 24,8 °C 27,6 °C 55 % 34 % 1011,6 hPa 0,0 l/m² 7,2 km/h (2 Bft) O-NO 64 ° 0 min 25 W/m² 10,3 °C 27,5 °C 11,3 km/h (2 Bft)
06.09.2024 19:13 24,8 °C 27,6 °C 55 % 34 % 1011,7 hPa 0,0 l/m² 5,8 km/h (2 Bft) NO 48 ° 0 min 25 W/m² 10,3 °C 27,6 °C 8,0 km/h (2 Bft)
06.09.2024 19:14 24,8 °C 27,5 °C 54 % 34 % 1011,7 hPa 0,0 l/m² 5,4 km/h (2 Bft) NO 50 ° 0 min 23 W/m² 10,2 °C 27,5 °C 8,0 km/h (2 Bft)
06.09.2024 19:15 24,8 °C 27,4 °C 54 % 34 % 1011,6 hPa 0,0 l/m² 6,0 km/h (2 Bft) O-NO 73 ° 0 min 21 W/m² 10,1 °C 27,4 °C 11,3 km/h (2 Bft)
06.09.2024 19:16 24,8 °C 27,4 °C 54 % 34 % 1011,7 hPa 0,0 l/m² 8,6 km/h (2 Bft) O 79 ° 0 min 21 W/m² 10,1 °C 27,0 °C 14,5 km/h (3 Bft)
06.09.2024 19:17 24,8 °C 27,3 °C 53 % 34 % 1011,7 hPa 0,0 l/m² 5,9 km/h (2 Bft) O-NO 76 ° 0 min 19 W/m² 10,0 °C 27,3 °C 14,5 km/h (3 Bft)
06.09.2024 19:18 24,8 °C 27,3 °C 53 % 34 % 1011,8 hPa 0,0 l/m² 5,9 km/h (2 Bft) O-NO 66 ° 0 min 18 W/m² 10,0 °C 27,3 °C 9,7 km/h (2 Bft)
06.09.2024 19:19 24,8 °C 27,3 °C 53 % 35 % 1011,7 hPa 0,0 l/m² 4,5 km/h (1 Bft) O-NO 65 ° 0 min 18 W/m² 10,5 °C 27,3 °C 9,7 km/h (2 Bft)
06.09.2024 19:20 24,8 °C 27,2 °C 53 % 35 % 1011,8 hPa 0,0 l/m² 5,0 km/h (1 Bft) N-NO 31 ° 0 min 16 W/m² 10,4 °C 27,2 °C 8,0 km/h (2 Bft)
06.09.2024 19:21 24,8 °C 27,2 °C 52 % 35 % 1011,8 hPa 0,0 l/m² 6,7 km/h (2 Bft) O-NO 69 ° 0 min 14 W/m² 10,4 °C 27,1 °C 9,7 km/h (2 Bft)
06.09.2024 19:22 24,8 °C 27,1 °C 52 % 35 % 1011,7 hPa 0,0 l/m² 6,2 km/h (2 Bft) O-NO 78 ° 0 min 14 W/m² 10,3 °C 27,1 °C 11,3 km/h (2 Bft)
06.09.2024 19:23 24,8 °C 27,1 °C 52 % 35 % 1011,8 hPa 0,0 l/m² 4,4 km/h (1 Bft) O 92 ° 0 min 12 W/m² 10,3 °C 27,1 °C 8,0 km/h (2 Bft)
06.09.2024 19:24 24,8 °C 27,0 °C 52 % 35 % 1011,8 hPa 0,0 l/m² 6,4 km/h (2 Bft) NO 47 ° 0 min 12 W/m² 10,2 °C 27,0 °C 12,9 km/h (3 Bft)
06.09.2024 19:25 24,8 °C 26,9 °C 52 % 35 % 1011,8 hPa 0,0 l/m² 6,0 km/h (2 Bft) O-NO 74 ° 0 min 12 W/m² 10,1 °C 26,9 °C 8,0 km/h (2 Bft)
06.09.2024 19:26 24,8 °C 26,9 °C 52 % 35 % 1011,8 hPa 0,0 l/m² 5,1 km/h (1 Bft) NO 44 ° 0 min 11 W/m² 10,1 °C 26,9 °C 9,7 km/h (2 Bft)
06.09.2024 19:27 24,8 °C 26,8 °C 52 % 35 % 1011,8 hPa 0,0 l/m² 7,3 km/h (2 Bft) NO 56 ° 0 min 11 W/m² 10,0 °C 26,6 °C 9,7 km/h (2 Bft)
06.09.2024 19:28 24,8 °C 26,8 °C 52 % 35 % 1011,8 hPa 0,0 l/m² 7,6 km/h (2 Bft) N-NO 30 ° 0 min 11 W/m² 10,0 °C 26,6 °C 12,9 km/h (3 Bft)
06.09.2024 19:29 24,8 °C 26,8 °C 51 % 35 % 1011,8 hPa 0,0 l/m² 6,6 km/h (2 Bft) NO 56 ° 0 min 9 W/m² 10,0 °C 26,8 °C 11,3 km/h (2 Bft)
06.09.2024 19:30 24,8 °C 26,8 °C 52 % 35 % 1011,9 hPa 0,0 l/m² 6,7 km/h (2 Bft) NO 50 ° 0 min 9 W/m² 10,0 °C 26,7 °C 14,5 km/h (3 Bft)
06.09.2024 19:31 24,8 °C 26,8 °C 52 % 35 % 1011,8 hPa 0,0 l/m² 5,4 km/h (2 Bft) O-NO 61 ° 0 min 9 W/m² 10,0 °C 26,8 °C 9,7 km/h (2 Bft)
06.09.2024 19:32 24,8 °C 26,7 °C 51 % 35 % 1011,9 hPa 0,0 l/m² 6,8 km/h (2 Bft) NO 39 ° 0 min 9 W/m² 10,0 °C 26,6 °C 11,3 km/h (2 Bft)
06.09.2024 19:33 24,8 °C 26,7 °C 51 % 35 % 1011,9 hPa 0,0 l/m² 5,1 km/h (1 Bft) O-NO 71 ° 0 min 7 W/m² 10,0 °C 26,7 °C 11,3 km/h (2 Bft)
06.09.2024 19:34 24,8 °C 26,7 °C 51 % 35 % 1011,9 hPa 0,0 l/m² 4,4 km/h (1 Bft) O 83 ° 0 min 7 W/m² 10,0 °C 26,7 °C 6,4 km/h (2 Bft)
06.09.2024 19:35 24,8 °C 26,7 °C 51 % 36 % 1011,9 hPa 0,0 l/m² 6,2 km/h (2 Bft) NO 54 ° 0 min 7 W/m² 10,4 °C 26,7 °C 11,3 km/h (2 Bft)
06.09.2024 19:36 24,8 °C 26,6 °C 51 % 36 % 1011,9 hPa 0,0 l/m² 5,0 km/h (1 Bft) NO 40 ° 0 min 7 W/m² 10,3 °C 26,6 °C 9,7 km/h (2 Bft)
06.09.2024 19:37 24,9 °C 26,6 °C 51 % 36 % 1011,9 hPa 0,0 l/m² 2,8 km/h (1 Bft) O-NO 61 ° 0 min 7 W/m² 10,3 °C 26,6 °C 6,4 km/h (2 Bft)
06.09.2024 19:38 24,8 °C 26,5 °C 51 % 36 % 1011,9 hPa 0,0 l/m² 5,8 km/h (2 Bft) O-NO 67 ° 0 min 5 W/m² 10,2 °C 26,5 °C 6,4 km/h (2 Bft)
06.09.2024 19:39 24,9 °C 26,4 °C 51 % 36 % 1011,9 hPa 0,0 l/m² 2,7 km/h (1 Bft) O-NO 66 ° 0 min 5 W/m² 10,1 °C 26,4 °C 4,8 km/h (1 Bft)
06.09.2024 19:40 24,8 °C 26,3 °C 51 % 36 % 1012,0 hPa 0,0 l/m² 4,4 km/h (1 Bft) NO 45 ° 0 min 5 W/m² 10,0 °C 26,3 °C 8,0 km/h (2 Bft)
06.09.2024 19:41 24,8 °C 26,2 °C 51 % 37 % 1012,0 hPa 0,0 l/m² 3,9 km/h (1 Bft) O-NO 63 ° 0 min 5 W/m² 10,3 °C 26,2 °C 8,0 km/h (2 Bft)
06.09.2024 19:42 24,9 °C 26,1 °C 51 % 37 % 1012,0 hPa 0,0 l/m² 2,5 km/h (1 Bft) O-NO 73 ° 0 min 5 W/m² 10,3 °C 26,1 °C 4,8 km/h (1 Bft)
06.09.2024 19:43 24,9 °C 26,1 °C 51 % 37 % 1012,0 hPa 0,0 l/m² 4,0 km/h (1 Bft) NO 50 ° 0 min 0 W/m² 10,3 °C 26,1 °C 6,4 km/h (2 Bft)
06.09.2024 19:44 24,9 °C 25,9 °C 51 % 37 % 1012,0 hPa 0,0 l/m² 6,4 km/h (2 Bft) NO 44 ° 0 min 0 W/m² 10,1 °C 25,9 °C 9,7 km/h (2 Bft)
06.09.2024 19:45 24,9 °C 25,9 °C 51 % 37 % 1012,0 hPa 0,0 l/m² 4,4 km/h (1 Bft) NO 49 ° 0 min 0 W/m² 10,1 °C 25,9 °C 8,0 km/h (2 Bft)
06.09.2024 19:46 24,8 °C 25,9 °C 51 % 37 % 1012,0 hPa 0,0 l/m² 3,4 km/h (1 Bft) O-NO 62 ° 0 min 0 W/m² 10,1 °C 25,9 °C 8,0 km/h (2 Bft)
06.09.2024 19:47 24,9 °C 25,8 °C 51 % 37 % 1012,0 hPa 0,0 l/m² 5,4 km/h (2 Bft) NO 47 ° 0 min 0 W/m² 10,0 °C 25,8 °C 8,0 km/h (2 Bft)
06.09.2024 19:48 24,9 °C 25,8 °C 51 % 37 % 1012,0 hPa 0,0 l/m² 6,3 km/h (2 Bft) O-NO 59 ° 0 min 0 W/m² 10,0 °C 25,8 °C 12,9 km/h (3 Bft)
06.09.2024 19:49 24,9 °C 25,8 °C 51 % 37 % 1012,0 hPa 0,0 l/m² 4,0 km/h (1 Bft) NO 52 ° 0 min 0 W/m² 10,0 °C 25,8 °C 6,4 km/h (2 Bft)
06.09.2024 19:50 24,9 °C 25,8 °C 51 % 38 % 1012,0 hPa 0,0 l/m² 4,7 km/h (1 Bft) O 84 ° 0 min 0 W/m² 10,4 °C 25,8 °C 6,4 km/h (2 Bft)
06.09.2024 19:51 24,9 °C 25,7 °C 51 % 38 % 1012,0 hPa 0,0 l/m² 2,3 km/h (1 Bft) O 80 ° 0 min 0 W/m² 10,3 °C 25,7 °C 4,8 km/h (1 Bft)
06.09.2024 19:52 24,9 °C 25,7 °C 50 % 38 % 1012,0 hPa 0,0 l/m² 6,8 km/h (2 Bft) NO 54 ° 0 min 0 W/m² 10,3 °C 25,6 °C 9,7 km/h (2 Bft)
06.09.2024 19:53 24,9 °C 25,7 °C 50 % 38 % 1012,0 hPa 0,0 l/m² 4,2 km/h (1 Bft) O 84 ° 0 min 0 W/m² 10,3 °C 25,7 °C 6,4 km/h (2 Bft)
06.09.2024 19:54 24,9 °C 25,6 °C 50 % 38 % 1012,0 hPa 0,0 l/m² 3,5 km/h (1 Bft) NO 56 ° 0 min 0 W/m² 10,2 °C 25,6 °C 6,4 km/h (2 Bft)
06.09.2024 19:55 24,9 °C 25,6 °C 50 % 38 % 1012,0 hPa 0,0 l/m² 4,9 km/h (1 Bft) O-NO 66 ° 0 min 0 W/m² 10,2 °C 25,6 °C 14,5 km/h (3 Bft)
06.09.2024 19:56 24,9 °C 25,6 °C 50 % 38 % 1012,0 hPa 0,0 l/m² 4,6 km/h (1 Bft) O-NO 67 ° 0 min 0 W/m² 10,2 °C 25,6 °C 9,7 km/h (2 Bft)
06.09.2024 19:57 25,0 °C 25,5 °C 50 % 39 % 1012,1 hPa 0,0 l/m² 5,0 km/h (1 Bft) NO 42 ° 0 min 0 W/m² 10,5 °C 25,5 °C 8,0 km/h (2 Bft)
06.09.2024 19:58 25,0 °C 25,4 °C 50 % 39 % 1012,0 hPa 0,0 l/m² 4,4 km/h (1 Bft) O-NO 74 ° 0 min 0 W/m² 10,4 °C 25,4 °C 6,4 km/h (2 Bft)
06.09.2024 19:59 25,0 °C 25,3 °C 50 % 39 % 1012,0 hPa 0,0 l/m² 4,1 km/h (1 Bft) O-NO 63 ° 0 min 0 W/m² 10,3 °C 25,3 °C 8,0 km/h (2 Bft)
06.09.2024 20:00 25,0 °C 25,3 °C 50 % 39 % 1012,0 hPa 0,0 l/m² 8,3 km/h (2 Bft) O-NO 66 ° 0 min 0 W/m² 10,3 °C 24,8 °C 12,9 km/h (3 Bft)
06.09.2024 20:02 25,0 °C 25,3 °C 50 % 40 % 1012,1 hPa 0,0 l/m² 4,3 km/h (1 Bft) O-NO 77 ° 0 min 0 W/m² 10,7 °C 25,3 °C 11,3 km/h (2 Bft)
06.09.2024 20:03 25,0 °C 25,2 °C 50 % 40 % 1012,1 hPa 0,0 l/m² 6,9 km/h (2 Bft) N-NO 27 ° 0 min 0 W/m² 10,6 °C 25,1 °C 12,9 km/h (3 Bft)
06.09.2024 20:04 25,0 °C 25,1 °C 50 % 40 % 1012,1 hPa 0,0 l/m² 5,1 km/h (1 Bft) O 92 ° 0 min 0 W/m² 10,5 °C 25,1 °C 9,7 km/h (2 Bft)
06.09.2024 20:05 25,0 °C 25,1 °C 50 % 41 % 1012,2 hPa 0,0 l/m² 3,8 km/h (1 Bft) O-NO 70 ° 0 min 0 W/m² 10,9 °C 25,1 °C 6,4 km/h (2 Bft)
06.09.2024 20:06 25,0 °C 25,1 °C 50 % 41 % 1012,2 hPa 0,0 l/m² 4,1 km/h (1 Bft) NO 50 ° 0 min 0 W/m² 10,9 °C 25,1 °C 8,0 km/h (2 Bft)
06.09.2024 20:07 25,0 °C 25,0 °C 50 % 41 % 1012,2 hPa 0,0 l/m² 5,1 km/h (1 Bft) O 84 ° 0 min 0 W/m² 10,8 °C 25,0 °C 8,0 km/h (2 Bft)
06.09.2024 20:08 25,0 °C 24,9 °C 50 % 41 % 1012,2 hPa 0,0 l/m² 5,2 km/h (1 Bft) O 83 ° 0 min 0 W/m² 10,7 °C 24,9 °C 6,4 km/h (2 Bft)
06.09.2024 20:09 25,0 °C 24,8 °C 51 % 42 % 1012,3 hPa 0,0 l/m² 3,5 km/h (1 Bft) O-NO 72 ° 0 min 0 W/m² 11,0 °C 24,8 °C 4,8 km/h (1 Bft)
06.09.2024 20:10 25,0 °C 24,7 °C 50 % 43 % 1012,3 hPa 0,0 l/m² 5,6 km/h (2 Bft) O-NO 74 ° 0 min 0 W/m² 11,3 °C 24,7 °C 9,7 km/h (2 Bft)
06.09.2024 20:12 25,0 °C 24,4 °C 50 % 44 % 1012,4 hPa 0,0 l/m² 4,1 km/h (1 Bft) O-NO 72 ° 0 min 0 W/m² 11,3 °C 24,4 °C 8,0 km/h (2 Bft)
06.09.2024 20:13 25,0 °C 24,3 °C 50 % 44 % 1012,4 hPa 0,0 l/m² 4,2 km/h (1 Bft) O 81 ° 0 min 0 W/m² 11,3 °C 24,3 °C 6,4 km/h (2 Bft)
06.09.2024 20:14 25,0 °C 24,2 °C 50 % 44 % 1012,4 hPa 0,0 l/m² 4,5 km/h (1 Bft) O-NO 74 ° 0 min 0 W/m² 11,2 °C 24,2 °C 6,4 km/h (2 Bft)
06.09.2024 20:15 25,0 °C 24,1 °C 50 % 45 % 1012,4 hPa 0,0 l/m² 3,8 km/h (1 Bft) O-NO 74 ° 0 min 0 W/m² 11,4 °C 24,1 °C 6,4 km/h (2 Bft)
06.09.2024 20:16 25,0 °C 24,0 °C 50 % 45 % 1012,4 hPa 0,0 l/m² 3,5 km/h (1 Bft) O-NO 74 ° 0 min 0 W/m² 11,3 °C 24,0 °C 4,8 km/h (1 Bft)
06.09.2024 20:17 25,0 °C 23,9 °C 50 % 45 % 1012,4 hPa 0,0 l/m² 3,0 km/h (1 Bft) O-NO 74 ° 0 min 0 W/m² 11,2 °C 23,9 °C 3,2 km/h (1 Bft)
06.09.2024 20:18 25,0 °C 23,8 °C 50 % 46 % 1012,5 hPa 0,0 l/m² 3,2 km/h (1 Bft) O-NO 74 ° 0 min 0 W/m² 11,5 °C 23,8 °C 4,8 km/h (1 Bft)
06.09.2024 20:19 25,0 °C 23,8 °C 50 % 46 % 1012,5 hPa 0,0 l/m² 3,3 km/h (1 Bft) O-NO 74 ° 0 min 0 W/m² 11,5 °C 23,8 °C 4,8 km/h (1 Bft)
06.09.2024 20:20 25,0 °C 23,7 °C 50 % 46 % 1012,5 hPa 0,0 l/m² 3,7 km/h (1 Bft) O-NO 78 ° 0 min 0 W/m² 11,4 °C 23,7 °C 4,8 km/h (1 Bft)
06.09.2024 20:21 25,0 °C 23,6 °C 50 % 47 % 1012,4 hPa 0,0 l/m² 4,0 km/h (1 Bft) O 96 ° 0 min 0 W/m² 11,6 °C 23,6 °C 6,4 km/h (2 Bft)
06.09.2024 20:22 25,0 °C 23,6 °C 50 % 47 % 1012,5 hPa 0,0 l/m² 3,8 km/h (1 Bft) O-NO 71 ° 0 min 0 W/m² 11,6 °C 23,6 °C 6,4 km/h (2 Bft)
06.09.2024 20:23 24,9 °C 23,5 °C 50 % 47 % 1012,4 hPa 0,0 l/m² 4,2 km/h (1 Bft) O 84 ° 0 min 0 W/m² 11,5 °C 23,5 °C 6,4 km/h (2 Bft)
06.09.2024 20:24 25,0 °C 23,4 °C 50 % 47 % 1012,5 hPa 0,0 l/m² 4,0 km/h (1 Bft) O 79 ° 0 min 0 W/m² 11,4 °C 23,4 °C 6,4 km/h (2 Bft)
06.09.2024 20:25 25,0 °C 23,4 °C 50 % 47 % 1012,5 hPa 0,0 l/m² 4,3 km/h (1 Bft) O-NO 69 ° 0 min 0 W/m² 11,4 °C 23,4 °C 8,0 km/h (2 Bft)
06.09.2024 20:26 24,9 °C 23,4 °C 50 % 47 % 1012,5 hPa 0,0 l/m² 5,3 km/h (1 Bft) O-NO 75 ° 0 min 0 W/m² 11,4 °C 23,4 °C 6,4 km/h (2 Bft)
06.09.2024 20:27 25,0 °C 23,4 °C 50 % 48 % 1012,5 hPa 0,0 l/m² 3,0 km/h (1 Bft) O-NO 74 ° 0 min 0 W/m² 11,8 °C 23,4 °C 6,4 km/h (2 Bft)
06.09.2024 20:28 25,0 °C 23,4 °C 50 % 48 % 1012,5 hPa 0,0 l/m² 4,5 km/h (1 Bft) O 81 ° 0 min 0 W/m² 11,8 °C 23,4 °C 8,0 km/h (2 Bft)
06.09.2024 20:29 24,9 °C 23,4 °C 50 % 48 % 1012,5 hPa 0,0 l/m² 3,5 km/h (1 Bft) O 80 ° 0 min 0 W/m² 11,8 °C 23,4 °C 6,4 km/h (2 Bft)
06.09.2024 20:30 24,9 °C 23,4 °C 50 % 48 % 1012,5 hPa 0,0 l/m² 3,1 km/h (1 Bft) O-NO 76 ° 0 min 0 W/m² 11,8 °C 23,4 °C 4,8 km/h (1 Bft)
06.09.2024 20:31 24,9 °C 23,4 °C 51 % 48 % 1012,6 hPa 0,0 l/m² 6,1 km/h (2 Bft) O 95 ° 0 min 0 W/m² 11,8 °C 23,4 °C 11,3 km/h (2 Bft)
06.09.2024 20:32 24,9 °C 23,3 °C 51 % 48 % 1012,6 hPa 0,0 l/m² 4,5 km/h (1 Bft) O 95 ° 0 min 0 W/m² 11,7 °C 23,3 °C 4,8 km/h (1 Bft)
06.09.2024 20:33 24,9 °C 23,2 °C 51 % 49 % 1012,6 hPa 0,0 l/m² 3,2 km/h (1 Bft) O 95 ° 0 min 0 W/m² 11,9 °C 23,2 °C 4,8 km/h (1 Bft)
06.09.2024 20:34 24,9 °C 23,2 °C 51 % 50 % 1012,6 hPa 0,0 l/m² 3,8 km/h (1 Bft) O-NO 78 ° 0 min 0 W/m² 12,2 °C 23,2 °C 4,8 km/h (1 Bft)
06.09.2024 20:35 24,9 °C 23,1 °C 51 % 50 % 1012,6 hPa 0,0 l/m² 3,1 km/h (1 Bft) O-NO 73 ° 0 min 0 W/m² 12,1 °C 23,1 °C 4,8 km/h (1 Bft)
06.09.2024 20:36 24,9 °C 23,1 °C 51 % 50 % 1012,6 hPa 0,0 l/m² 4,0 km/h (1 Bft) O 82 ° 0 min 0 W/m² 12,1 °C 23,1 °C 6,4 km/h (2 Bft)
06.09.2024 20:37 24,9 °C 23,0 °C 51 % 50 % 1012,6 hPa 0,0 l/m² 4,1 km/h (1 Bft) O 80 ° 0 min 0 W/m² 12,0 °C 23,0 °C 4,8 km/h (1 Bft)
06.09.2024 20:38 24,9 °C 22,9 °C 51 % 50 % 1012,6 hPa 0,0 l/m² 4,9 km/h (1 Bft) O-NO 73 ° 0 min 0 W/m² 11,9 °C 22,9 °C 6,4 km/h (2 Bft)
06.09.2024 20:39 25,0 °C 22,9 °C 51 % 50 % 1012,6 hPa 0,0 l/m² 3,6 km/h (1 Bft) O-NO 73 ° 0 min 0 W/m² 11,9 °C 22,9 °C 4,8 km/h (1 Bft)
06.09.2024 20:40 24,9 °C 22,9 °C 51 % 50 % 1012,7 hPa 0,0 l/m² 4,8 km/h (1 Bft) O-NO 72 ° 0 min 0 W/m² 11,9 °C 22,9 °C 6,4 km/h (2 Bft)
06.09.2024 20:41 24,9 °C 22,8 °C 51 % 50 % 1012,7 hPa 0,0 l/m² 4,0 km/h (1 Bft) O-NO 77 ° 0 min 0 W/m² 11,8 °C 22,8 °C 6,4 km/h (2 Bft)
06.09.2024 20:42 24,9 °C 22,8 °C 51 % 51 % 1012,7 hPa 0,0 l/m² 4,1 km/h (1 Bft) O-NO 77 ° 0 min 0 W/m² 12,1 °C 22,8 °C 4,8 km/h (1 Bft)
06.09.2024 20:43 24,9 °C 22,8 °C 52 % 51 % 1012,7 hPa 0,0 l/m² 3,6 km/h (1 Bft) O 81 ° 0 min 0 W/m² 12,1 °C 22,8 °C 4,8 km/h (1 Bft)
06.09.2024 20:44 24,9 °C 22,7 °C 52 % 52 % 1012,7 hPa 0,0 l/m² 3,2 km/h (1 Bft) O 81 ° 0 min 0 W/m² 12,3 °C 22,7 °C 4,8 km/h (1 Bft)
06.09.2024 20:45 24,9 °C 22,7 °C 52 % 52 % 1012,8 hPa 0,0 l/m² 3,4 km/h (1 Bft) O 83 ° 0 min 0 W/m² 12,3 °C 22,7 °C 6,4 km/h (2 Bft)
06.09.2024 20:46 24,9 °C 22,6 °C 52 % 52 % 1012,7 hPa 0,0 l/m² 3,9 km/h (1 Bft) O 82 ° 0 min 0 W/m² 12,2 °C 22,6 °C 4,8 km/h (1 Bft)
06.09.2024 20:47 25,0 °C 22,6 °C 52 % 53 % 1012,8 hPa 0,0 l/m² 3,9 km/h (1 Bft) O 88 ° 0 min 0 W/m² 12,5 °C 22,6 °C 4,8 km/h (1 Bft)
06.09.2024 20:48 24,9 °C 22,4 °C 52 % 53 % 1012,8 hPa 0,0 l/m² 4,2 km/h (1 Bft) O 82 ° 0 min 0 W/m² 12,3 °C 22,4 °C 6,4 km/h (2 Bft)
06.09.2024 20:49 24,9 °C 22,4 °C 52 % 53 % 1012,8 hPa 0,0 l/m² 3,2 km/h (1 Bft) O 82 ° 0 min 0 W/m² 12,3 °C 22,4 °C 4,8 km/h (1 Bft)
06.09.2024 20:50 24,9 °C 22,4 °C 52 % 53 % 1012,8 hPa 0,0 l/m² 4,3 km/h (1 Bft) O 82 ° 0 min 0 W/m² 12,3 °C 22,4 °C 4,8 km/h (1 Bft)
06.09.2024 20:51 24,9 °C 22,3 °C 52 % 53 % 1012,8 hPa 0,0 l/m² 3,8 km/h (1 Bft) O 82 ° 0 min 0 W/m² 12,2 °C 22,3 °C 4,8 km/h (1 Bft)
06.09.2024 20:52 24,9 °C 22,3 °C 52 % 53 % 1012,8 hPa 0,0 l/m² 4,0 km/h (1 Bft) O 82 ° 0 min 0 W/m² 12,2 °C 22,3 °C 4,8 km/h (1 Bft)
06.09.2024 20:53 24,9 °C 22,3 °C 52 % 53 % 1012,8 hPa 0,0 l/m² 3,8 km/h (1 Bft) O 82 ° 0 min 0 W/m² 12,2 °C 22,3 °C 4,8 km/h (1 Bft)
06.09.2024 20:54 24,9 °C 22,3 °C 52 % 53 % 1012,8 hPa 0,0 l/m² 4,4 km/h (1 Bft) O 82 ° 0 min 0 W/m² 12,2 °C 22,3 °C 6,4 km/h (2 Bft)
06.09.2024 20:55 24,9 °C 22,3 °C 52 % 54 % 1012,8 hPa 0,0 l/m² 3,8 km/h (1 Bft) O 82 ° 0 min 0 W/m² 12,5 °C 22,3 °C 4,8 km/h (1 Bft)
06.09.2024 20:56 24,9 °C 22,2 °C 52 % 54 % 1012,8 hPa 0,0 l/m² 3,4 km/h (1 Bft) O 82 ° 0 min 0 W/m² 12,4 °C 22,2 °C 4,8 km/h (1 Bft)
06.09.2024 20:57 24,9 °C 22,2 °C 52 % 54 % 1012,8 hPa 0,0 l/m² 3,3 km/h (1 Bft) O 82 ° 0 min 0 W/m² 12,4 °C 22,2 °C 4,8 km/h (1 Bft)
06.09.2024 20:58 25,0 °C 22,2 °C 52 % 54 % 1012,8 hPa 0,0 l/m² 3,0 km/h (1 Bft) O 82 ° 0 min 0 W/m² 12,4 °C 22,2 °C 4,8 km/h (1 Bft)
06.09.2024 20:59 25,0 °C 22,1 °C 52 % 54 % 1012,9 hPa 0,0 l/m² 2,8 km/h (1 Bft) O 82 ° 0 min 0 W/m² 12,3 °C 22,1 °C 4,8 km/h (1 Bft)
06.09.2024 21:00 24,9 °C 22,1 °C 52 % 54 % 1012,9 hPa 0,0 l/m² 3,4 km/h (1 Bft) O 82 ° 0 min 0 W/m² 12,3 °C 22,1 °C 4,8 km/h (1 Bft)
06.09.2024 21:01 25,0 °C 22,1 °C 52 % 54 % 1012,9 hPa 0,0 l/m² 3,4 km/h (1 Bft) O 82 ° 0 min 0 W/m² 12,3 °C 22,1 °C 4,8 km/h (1 Bft)
06.09.2024 21:02 25,0 °C 22,0 °C 53 % 54 % 1012,9 hPa 0,0 l/m² 3,4 km/h (1 Bft) O 82 ° 0 min 0 W/m² 12,3 °C 22,0 °C 4,8 km/h (1 Bft)
06.09.2024 21:03 25,0 °C 22,0 °C 53 % 55 % 1012,9 hPa 0,0 l/m² 3,1 km/h (1 Bft) O 82 ° 0 min 0 W/m² 12,5 °C 22,0 °C 4,8 km/h (1 Bft)
06.09.2024 21:04 25,0 °C 21,9 °C 53 % 55 % 1012,9 hPa 0,0 l/m² 2,9 km/h (1 Bft) O 82 ° 0 min 0 W/m² 12,4 °C 21,9 °C 3,2 km/h (1 Bft)
06.09.2024 21:05 25,0 °C 21,9 °C 53 % 55 % 1012,9 hPa 0,0 l/m² 3,3 km/h (1 Bft) O 82 ° 0 min 0 W/m² 12,4 °C 21,9 °C 4,8 km/h (1 Bft)
06.09.2024 21:06 25,0 °C 21,9 °C 53 % 55 % 1012,9 hPa 0,0 l/m² 3,4 km/h (1 Bft) O 82 ° 0 min 0 W/m² 12,4 °C 21,9 °C 4,8 km/h (1 Bft)
06.09.2024 21:07 25,0 °C 21,9 °C 53 % 55 % 1012,9 hPa 0,0 l/m² 3,0 km/h (1 Bft) O 82 ° 0 min 0 W/m² 12,4 °C 21,9 °C 4,8 km/h (1 Bft)
06.09.2024 21:08 25,0 °C 21,8 °C 53 % 55 % 1012,9 hPa 0,0 l/m² 2,4 km/h (1 Bft) O 82 ° 0 min 0 W/m² 12,4 °C 21,8 °C 3,2 km/h (1 Bft)
06.09.2024 21:09 25,1 °C 21,8 °C 53 % 56 % 1012,9 hPa 0,0 l/m² 3,3 km/h (1 Bft) O 82 ° 0 min 0 W/m² 12,6 °C 21,8 °C 4,8 km/h (1 Bft)
06.09.2024 21:10 25,0 °C 21,8 °C 53 % 56 % 1012,9 hPa 0,0 l/m² 3,2 km/h (1 Bft) O 82 ° 0 min 0 W/m² 12,6 °C 21,8 °C 3,2 km/h (1 Bft)
06.09.2024 21:11 25,0 °C 21,7 °C 53 % 56 % 1013,0 hPa 0,0 l/m² 3,3 km/h (1 Bft) O 82 ° 0 min 0 W/m² 12,5 °C 21,7 °C 4,8 km/h (1 Bft)
06.09.2024 21:12 25,0 °C 21,7 °C 53 % 56 % 1013,0 hPa 0,0 l/m² 3,1 km/h (1 Bft) O 82 ° 0 min 0 W/m² 12,5 °C 21,7 °C 4,8 km/h (1 Bft)
06.09.2024 21:13 25,0 °C 21,7 °C 53 % 57 % 1013,0 hPa 0,0 l/m² 3,4 km/h (1 Bft) O 82 ° 0 min 0 W/m² 12,8 °C 21,7 °C 4,8 km/h (1 Bft)
06.09.2024 21:14 25,1 °C 21,6 °C 53 % 57 % 1013,0 hPa 0,0 l/m² 3,4 km/h (1 Bft) O 82 ° 0 min 0 W/m² 12,7 °C 21,6 °C 4,8 km/h (1 Bft)
06.09.2024 21:15 25,1 °C 21,7 °C 53 % 56 % 1013,0 hPa 0,0 l/m² 3,8 km/h (1 Bft) O 82 ° 0 min 0 W/m² 12,5 °C 21,7 °C 4,8 km/h (1 Bft)
06.09.2024 21:16 25,0 °C 21,6 °C 53 % 56 % 1013,0 hPa 0,0 l/m² 3,7 km/h (1 Bft) O 82 ° 0 min 0 W/m² 12,4 °C 21,6 °C 4,8 km/h (1 Bft)
06.09.2024 21:17 25,1 °C 21,7 °C 53 % 56 % 1013,0 hPa 0,0 l/m² 3,2 km/h (1 Bft) O 82 ° 0 min 0 W/m² 12,5 °C 21,7 °C 4,8 km/h (1 Bft)
06.09.2024 21:18 25,0 °C 21,6 °C 53 % 56 % 1013,0 hPa 0,0 l/m² 3,0 km/h (1 Bft) O 82 ° 0 min 0 W/m² 12,4 °C 21,6 °C 4,8 km/h (1 Bft)
06.09.2024 21:19 25,0 °C 21,6 °C 53 % 56 % 1013,0 hPa 0,0 l/m² 4,0 km/h (1 Bft) O 82 ° 0 min 0 W/m² 12,4 °C 21,6 °C 4,8 km/h (1 Bft)
06.09.2024 21:20 25,1 °C 21,6 °C 53 % 56 % 1013,0 hPa 0,0 l/m² 3,7 km/h (1 Bft) O 82 ° 0 min 0 W/m² 12,4 °C 21,6 °C 4,8 km/h (1 Bft)
06.09.2024 21:21 25,1 °C 21,6 °C 53 % 56 % 1013,0 hPa 0,0 l/m² 4,0 km/h (1 Bft) O 82 ° 0 min 0 W/m² 12,4 °C 21,6 °C 4,8 km/h (1 Bft)
06.09.2024 21:22 25,1 °C 21,6 °C 53 % 56 % 1013,0 hPa 0,0 l/m² 3,4 km/h (1 Bft) O 82 ° 0 min 0 W/m² 12,4 °C 21,6 °C 4,8 km/h (1 Bft)
06.09.2024 21:23 25,1 °C 21,6 °C 53 % 56 % 1013,0 hPa 0,0 l/m² 3,2 km/h (1 Bft) O 82 ° 0 min 0 W/m² 12,4 °C 21,6 °C 4,8 km/h (1 Bft)
06.09.2024 21:24 25,1 °C 21,6 °C 53 % 56 % 1013,0 hPa 0,0 l/m² 3,4 km/h (1 Bft) O 82 ° 0 min 0 W/m² 12,4 °C 21,6 °C 4,8 km/h (1 Bft)
06.09.2024 21:25 25,1 °C 21,6 °C 53 % 56 % 1013,0 hPa 0,0 l/m² 3,7 km/h (1 Bft) O 82 ° 0 min 0 W/m² 12,4 °C 21,6 °C 4,8 km/h (1 Bft)
06.09.2024 21:26 25,1 °C 21,6 °C 53 % 56 % 1013,0 hPa 0,0 l/m² 3,4 km/h (1 Bft) O 80 ° 0 min 0 W/m² 12,4 °C 21,6 °C 4,8 km/h (1 Bft)
06.09.2024 21:27 25,1 °C 21,5 °C 53 % 56 % 1013,0 hPa 0,0 l/m² 3,2 km/h (1 Bft) O 80 ° 0 min 0 W/m² 12,3 °C 21,5 °C 4,8 km/h (1 Bft)
06.09.2024 21:28 25,1 °C 21,6 °C 53 % 56 % 1013,0 hPa 0,0 l/m² 3,0 km/h (1 Bft) O 80 ° 0 min 0 W/m² 12,4 °C 21,6 °C 4,8 km/h (1 Bft)
06.09.2024 21:29 25,1 °C 21,5 °C 53 % 57 % 1013,0 hPa 0,0 l/m² 3,0 km/h (1 Bft) O 80 ° 0 min 0 W/m² 12,6 °C 21,5 °C 4,8 km/h (1 Bft)
06.09.2024 21:30 25,1 °C 21,4 °C 52 % 57 % 1013,0 hPa 0,0 l/m² 2,5 km/h (1 Bft) O-NO 78 ° 0 min 0 W/m² 12,5 °C 21,4 °C 3,2 km/h (1 Bft)
06.09.2024 21:31 25,1 °C 21,4 °C 52 % 57 % 1013,0 hPa 0,0 l/m² 3,1 km/h (1 Bft) O-NO 78 ° 0 min 0 W/m² 12,5 °C 21,4 °C 4,8 km/h (1 Bft)
06.09.2024 21:32 25,1 °C 21,3 °C 52 % 59 % 1013,1 hPa 0,0 l/m² 2,5 km/h (1 Bft) O-NO 78 ° 0 min 0 W/m² 13,0 °C 21,3 °C 4,8 km/h (1 Bft)
06.09.2024 21:33 25,1 °C 21,3 °C 52 % 60 % 1013,0 hPa 0,0 l/m² 2,1 km/h (1 Bft) O-NO 78 ° 0 min 0 W/m² 13,2 °C 21,3 °C 3,2 km/h (1 Bft)
06.09.2024 21:34 25,1 °C 21,3 °C 52 % 61 % 1013,0 hPa 0,0 l/m² 2,9 km/h (1 Bft) O-NO 78 ° 0 min 0 W/m² 13,5 °C 21,3 °C 3,2 km/h (1 Bft)
06.09.2024 21:35 25,1 °C 21,2 °C 52 % 61 % 1013,1 hPa 0,0 l/m² 2,5 km/h (1 Bft) O-NO 78 ° 0 min 0 W/m² 13,4 °C 21,2 °C 4,8 km/h (1 Bft)
06.09.2024 21:36 25,1 °C 21,2 °C 52 % 61 % 1013,0 hPa 0,0 l/m² 3,0 km/h (1 Bft) O-NO 78 ° 0 min 0 W/m² 13,4 °C 21,2 °C 4,8 km/h (1 Bft)
06.09.2024 21:37 25,0 °C 21,1 °C 52 % 61 % 1013,1 hPa 0,0 l/m² 2,3 km/h (1 Bft) O-NO 78 ° 0 min 0 W/m² 13,3 °C 21,1 °C 3,2 km/h (1 Bft)
06.09.2024 21:38 25,1 °C 21,1 °C 52 % 63 % 1013,1 hPa 0,0 l/m² 3,1 km/h (1 Bft) O-NO 78 ° 0 min 0 W/m² 13,8 °C 21,1 °C 4,8 km/h (1 Bft)
06.09.2024 21:39 25,1 °C 20,9 °C 52 % 63 % 1013,1 hPa 0,0 l/m² 3,1 km/h (1 Bft) O-NO 78 ° 0 min 0 W/m² 13,6 °C 20,9 °C 4,8 km/h (1 Bft)
06.09.2024 21:40 25,1 °C 20,9 °C 52 % 64 % 1013,1 hPa 0,0 l/m² 3,1 km/h (1 Bft) O-NO 78 ° 0 min 0 W/m² 13,8 °C 20,9 °C 4,8 km/h (1 Bft)
06.09.2024 21:41 25,1 °C 20,8 °C 52 % 65 % 1013,1 hPa 0,0 l/m² 3,0 km/h (1 Bft) O-NO 78 ° 0 min 0 W/m² 14,0 °C 20,8 °C 4,8 km/h (1 Bft)
06.09.2024 21:42 25,1 °C 20,7 °C 52 % 64 % 1013,1 hPa 0,0 l/m² 2,9 km/h (1 Bft) O-NO 78 ° 0 min 0 W/m² 13,6 °C 20,7 °C 3,2 km/h (1 Bft)
06.09.2024 21:43 25,1 °C 20,6 °C 52 % 64 % 1013,1 hPa 0,0 l/m² 3,4 km/h (1 Bft) O-NO 78 ° 0 min 0 W/m² 13,5 °C 20,6 °C 4,8 km/h (1 Bft)
06.09.2024 21:44 25,1 °C 20,6 °C 51 % 67 % 1013,1 hPa 0,0 l/m² 4,0 km/h (1 Bft) O 82 ° 0 min 0 W/m² 14,3 °C 20,6 °C 6,4 km/h (2 Bft)
06.09.2024 21:46 25,1 °C 20,4 °C 52 % 66 % 1013,1 hPa 0,0 l/m² 3,8 km/h (1 Bft) O-NO 78 ° 0 min 0 W/m² 13,8 °C 20,4 °C 4,8 km/h (1 Bft)
06.09.2024 21:47 25,1 °C 20,3 °C 52 % 66 % 1013,0 hPa 0,0 l/m² 3,8 km/h (1 Bft) O-NO 78 ° 0 min 0 W/m² 13,7 °C 20,3 °C 4,8 km/h (1 Bft)
06.09.2024 21:48 25,0 °C 20,3 °C 51 % 66 % 1013,1 hPa 0,0 l/m² 4,1 km/h (1 Bft) O-NO 78 ° 0 min 0 W/m² 13,7 °C 20,3 °C 4,8 km/h (1 Bft)
06.09.2024 21:49 25,1 °C 20,2 °C 52 % 68 % 1013,1 hPa 0,0 l/m² 4,0 km/h (1 Bft) O-NO 78 ° 0 min 0 W/m² 14,1 °C 20,2 °C 4,8 km/h (1 Bft)
06.09.2024 21:50 25,1 °C 20,2 °C 51 % 68 % 1013,1 hPa 0,0 l/m² 3,9 km/h (1 Bft) O-NO 78 ° 0 min 0 W/m² 14,1 °C 20,2 °C 4,8 km/h (1 Bft)
06.09.2024 21:51 25,1 °C 20,1 °C 51 % 69 % 1013,1 hPa 0,0 l/m² 3,6 km/h (1 Bft) O-NO 78 ° 0 min 0 W/m² 14,2 °C 20,1 °C 4,8 km/h (1 Bft)
06.09.2024 21:52 25,1 °C 20,0 °C 51 % 69 % 1013,1 hPa 0,0 l/m² 3,4 km/h (1 Bft) O-NO 78 ° 0 min 0 W/m² 14,1 °C 20,0 °C 4,8 km/h (1 Bft)
06.09.2024 21:53 25,1 °C 19,9 °C 51 % 69 % 1013,1 hPa 0,0 l/m² 3,9 km/h (1 Bft) O-NO 78 ° 0 min 0 W/m² 14,0 °C 19,9 °C 4,8 km/h (1 Bft)
06.09.2024 21:54 25,1 °C 19,9 °C 51 % 69 % 1013,1 hPa 0,0 l/m² 3,2 km/h (1 Bft) O-NO 78 ° 0 min 0 W/m² 14,0 °C 19,9 °C 4,8 km/h (1 Bft)
06.09.2024 21:55 25,1 °C 19,8 °C 51 % 68 % 1013,1 hPa 0,0 l/m² 3,4 km/h (1 Bft) O-NO 78 ° 0 min 0 W/m² 13,7 °C 19,8 °C 4,8 km/h (1 Bft)
06.09.2024 21:57 25,1 °C 19,7 °C 51 % 68 % 1013,1 hPa 0,0 l/m² 4,0 km/h (1 Bft) O-NO 78 ° 0 min 0 W/m² 13,6 °C 19,7 °C 6,4 km/h (2 Bft)
06.09.2024 21:58 25,1 °C 19,7 °C 51 % 68 % 1013,1 hPa 0,0 l/m² 4,1 km/h (1 Bft) O-NO 78 ° 0 min 0 W/m² 13,6 °C 19,7 °C 4,8 km/h (1 Bft)
06.09.2024 21:59 25,0 °C 19,6 °C 51 % 68 % 1013,0 hPa 0,0 l/m² 4,7 km/h (1 Bft) O-NO 78 ° 0 min 0 W/m² 13,5 °C 19,6 °C 6,4 km/h (2 Bft)
06.09.2024 22:00 25,1 °C 19,6 °C 51 % 68 % 1013,0 hPa 0,0 l/m² 4,8 km/h (1 Bft) O-NO 78 ° 0 min 0 W/m² 13,5 °C 19,6 °C 6,4 km/h (2 Bft)
06.09.2024 22:01 25,0 °C 19,5 °C 51 % 69 % 1013,0 hPa 0,0 l/m² 4,2 km/h (1 Bft) O-NO 78 ° 0 min 0 W/m² 13,7 °C 19,5 °C 4,8 km/h (1 Bft)
06.09.2024 22:02 25,1 °C 19,4 °C 51 % 69 % 1013,0 hPa 0,0 l/m² 3,8 km/h (1 Bft) O-NO 78 ° 0 min 0 W/m² 13,6 °C 19,4 °C 4,8 km/h (1 Bft)
06.09.2024 22:03 25,0 °C 19,4 °C 51 % 69 % 1013,0 hPa 0,0 l/m² 4,1 km/h (1 Bft) O 82 ° 0 min 0 W/m² 13,6 °C 19,4 °C 4,8 km/h (1 Bft)
06.09.2024 22:04 25,0 °C 19,4 °C 51 % 69 % 1013,0 hPa 0,0 l/m² 4,1 km/h (1 Bft) O 82 ° 0 min 0 W/m² 13,6 °C 19,4 °C 4,8 km/h (1 Bft)
06.09.2024 22:05 25,0 °C 19,4 °C 51 % 69 % 1013,0 hPa 0,0 l/m² 4,4 km/h (1 Bft) O 82 ° 0 min 0 W/m² 13,6 °C 19,4 °C 4,8 km/h (1 Bft)
06.09.2024 22:06 25,0 °C 19,4 °C 51 % 69 % 1013,0 hPa 0,0 l/m² 3,8 km/h (1 Bft) O 82 ° 0 min 0 W/m² 13,6 °C 19,4 °C 4,8 km/h (1 Bft)
06.09.2024 22:07 25,0 °C 19,4 °C 51 % 68 % 1013,0 hPa 0,0 l/m² 4,2 km/h (1 Bft) O 82 ° 0 min 0 W/m² 13,3 °C 19,4 °C 4,8 km/h (1 Bft)
06.09.2024 22:08 25,0 °C 19,4 °C 51 % 68 % 1013,1 hPa 0,0 l/m² 4,8 km/h (1 Bft) O 82 ° 0 min 0 W/m² 13,3 °C 19,4 °C 4,8 km/h (1 Bft)
06.09.2024 22:09 25,0 °C 19,4 °C 51 % 68 % 1013,0 hPa 0,0 l/m² 4,8 km/h (1 Bft) O 82 ° 0 min 0 W/m² 13,3 °C 19,4 °C 4,8 km/h (1 Bft)
06.09.2024 22:10 24,9 °C 19,4 °C 51 % 68 % 1013,0 hPa 0,0 l/m² 4,8 km/h (1 Bft) O 82 ° 0 min 0 W/m² 13,3 °C 19,4 °C 6,4 km/h (2 Bft)
06.09.2024 22:11 24,9 °C 19,4 °C 51 % 68 % 1013,0 hPa 0,0 l/m² 4,8 km/h (1 Bft) O 82 ° 0 min 0 W/m² 13,3 °C 19,4 °C 6,4 km/h (2 Bft)
06.09.2024 22:12 24,9 °C 19,5 °C 50 % 68 % 1013,0 hPa 0,0 l/m² 4,9 km/h (1 Bft) O 82 ° 0 min 0 W/m² 13,4 °C 19,5 °C 6,4 km/h (2 Bft)
06.09.2024 22:13 24,9 °C 19,5 °C 50 % 68 % 1013,0 hPa 0,0 l/m² 4,8 km/h (1 Bft) O 82 ° 0 min 0 W/m² 13,4 °C 19,5 °C 6,4 km/h (2 Bft)
06.09.2024 22:14 24,9 °C 19,5 °C 50 % 68 % 1013,0 hPa 0,0 l/m² 4,4 km/h (1 Bft) O 82 ° 0 min 0 W/m² 13,4 °C 19,5 °C 4,8 km/h (1 Bft)
06.09.2024 22:15 24,9 °C 19,5 °C 50 % 68 % 1013,1 hPa 0,0 l/m² 5,0 km/h (1 Bft) O 82 ° 0 min 0 W/m² 13,4 °C 19,5 °C 6,4 km/h (2 Bft)
06.09.2024 22:16 24,9 °C 19,4 °C 50 % 68 % 1013,0 hPa 0,0 l/m² 4,9 km/h (1 Bft) O 82 ° 0 min 0 W/m² 13,3 °C 19,4 °C 6,4 km/h (2 Bft)
06.09.2024 22:17 24,9 °C 19,4 °C 50 % 68 % 1013,0 hPa 0,0 l/m² 4,6 km/h (1 Bft) O 83 ° 0 min 0 W/m² 13,3 °C 19,4 °C 6,4 km/h (2 Bft)
06.09.2024 22:18 24,9 °C 19,4 °C 50 % 69 % 1013,0 hPa 0,0 l/m² 4,6 km/h (1 Bft) O 83 ° 0 min 0 W/m² 13,6 °C 19,4 °C 6,4 km/h (2 Bft)
06.09.2024 22:19 24,9 °C 19,4 °C 50 % 69 % 1013,0 hPa 0,0 l/m² 4,5 km/h (1 Bft) O 83 ° 0 min 0 W/m² 13,6 °C 19,4 °C 4,8 km/h (1 Bft)
06.09.2024 22:20 24,9 °C 19,4 °C 50 % 69 % 1013,1 hPa 0,0 l/m² 4,6 km/h (1 Bft) O 83 ° 0 min 0 W/m² 13,6 °C 19,4 °C 6,4 km/h (2 Bft)
06.09.2024 22:21 24,9 °C 19,4 °C 50 % 69 % 1013,0 hPa 0,0 l/m² 5,0 km/h (1 Bft) O 83 ° 0 min 0 W/m² 13,6 °C 19,4 °C 6,4 km/h (2 Bft)
06.09.2024 22:22 24,9 °C 19,4 °C 50 % 69 % 1013,0 hPa 0,0 l/m² 4,8 km/h (1 Bft) O 83 ° 0 min 0 W/m² 13,6 °C 19,4 °C 6,4 km/h (2 Bft)
06.09.2024 22:23 24,9 °C 19,5 °C 50 % 69 % 1013,0 hPa 0,0 l/m² 4,8 km/h (1 Bft) O 83 ° 0 min 0 W/m² 13,7 °C 19,5 °C 6,4 km/h (2 Bft)
06.09.2024 22:24 24,9 °C 19,5 °C 50 % 68 % 1013,0 hPa 0,0 l/m² 5,1 km/h (1 Bft) O 83 ° 0 min 0 W/m² 13,4 °C 19,5 °C 6,4 km/h (2 Bft)
06.09.2024 22:25 24,9 °C 19,5 °C 50 % 68 % 1013,0 hPa 0,0 l/m² 3,7 km/h (1 Bft) O 82 ° 0 min 0 W/m² 13,4 °C 19,5 °C 4,8 km/h (1 Bft)
06.09.2024 22:26 24,9 °C 19,6 °C 50 % 67 % 1013,0 hPa 0,0 l/m² 4,4 km/h (1 Bft) O 82 ° 0 min 0 W/m² 13,3 °C 19,6 °C 6,4 km/h (2 Bft)
06.09.2024 22:27 24,9 °C 19,6 °C 50 % 66 % 1013,0 hPa 0,0 l/m² 4,1 km/h (1 Bft) O 82 ° 0 min 0 W/m² 13,1 °C 19,6 °C 4,8 km/h (1 Bft)
06.09.2024 22:28 24,9 °C 19,6 °C 50 % 66 % 1013,1 hPa 0,0 l/m² 3,6 km/h (1 Bft) O 82 ° 0 min 0 W/m² 13,1 °C 19,6 °C 4,8 km/h (1 Bft)
06.09.2024 22:29 24,9 °C 19,6 °C 50 % 66 % 1013,0 hPa 0,0 l/m² 3,6 km/h (1 Bft) O 82 ° 0 min 0 W/m² 13,1 °C 19,6 °C 4,8 km/h (1 Bft)
06.09.2024 22:30 24,9 °C 19,6 °C 50 % 66 % 1013,0 hPa 0,0 l/m² 3,5 km/h (1 Bft) O 82 ° 0 min 0 W/m² 13,1 °C 19,6 °C 4,8 km/h (1 Bft)
06.09.2024 22:31 24,8 °C 19,6 °C 50 % 67 % 1013,1 hPa 0,0 l/m² 4,0 km/h (1 Bft) O 82 ° 0 min 0 W/m² 13,3 °C 19,6 °C 4,8 km/h (1 Bft)
06.09.2024 22:32 24,9 °C 19,6 °C 50 % 67 % 1013,0 hPa 0,0 l/m² 3,8 km/h (1 Bft) O 82 ° 0 min 0 W/m² 13,3 °C 19,6 °C 4,8 km/h (1 Bft)
06.09.2024 22:33 24,8 °C 19,6 °C 50 % 66 % 1013,0 hPa 0,0 l/m² 3,4 km/h (1 Bft) O 82 ° 0 min 0 W/m² 13,1 °C 19,6 °C 4,8 km/h (1 Bft)
06.09.2024 22:34 24,8 °C 19,6 °C 50 % 67 % 1013,1 hPa 0,0 l/m² 3,8 km/h (1 Bft) O 82 ° 0 min 0 W/m² 13,3 °C 19,6 °C 4,8 km/h (1 Bft)
06.09.2024 22:35 24,9 °C 19,7 °C 50 % 67 % 1013,0 hPa 0,0 l/m² 3,8 km/h (1 Bft) O 82 ° 0 min 0 W/m² 13,4 °C 19,7 °C 4,8 km/h (1 Bft)
06.09.2024 22:36 24,8 °C 19,7 °C 50 % 67 % 1012,9 hPa 0,0 l/m² 4,0 km/h (1 Bft) O 82 ° 0 min 0 W/m² 13,4 °C 19,7 °C 4,8 km/h (1 Bft)
06.09.2024 22:37 24,8 °C 19,6 °C 50 % 67 % 1013,0 hPa 0,0 l/m² 3,4 km/h (1 Bft) O 82 ° 0 min 0 W/m² 13,3 °C 19,6 °C 4,8 km/h (1 Bft)
06.09.2024 22:38 24,8 °C 19,6 °C 50 % 67 % 1013,0 hPa 0,0 l/m² 3,2 km/h (1 Bft) O 82 ° 0 min 0 W/m² 13,3 °C 19,6 °C 4,8 km/h (1 Bft)
06.09.2024 22:39 24,8 °C 19,7 °C 50 % 68 % 1013,0 hPa 0,0 l/m² 3,6 km/h (1 Bft) O 82 ° 0 min 0 W/m² 13,6 °C 19,7 °C 4,8 km/h (1 Bft)
06.09.2024 22:40 24,8 °C 19,6 °C 50 % 67 % 1013,0 hPa 0,0 l/m² 3,3 km/h (1 Bft) O 82 ° 0 min 0 W/m² 13,3 °C 19,6 °C 4,8 km/h (1 Bft)
06.09.2024 22:41 24,8 °C 19,6 °C 50 % 67 % 1013,0 hPa 0,0 l/m² 3,6 km/h (1 Bft) O 82 ° 0 min 0 W/m² 13,3 °C 19,6 °C 4,8 km/h (1 Bft)
06.09.2024 22:42 24,8 °C 19,7 °C 50 % 67 % 1012,9 hPa 0,0 l/m² 3,2 km/h (1 Bft) O 82 ° 0 min 0 W/m² 13,4 °C 19,7 °C 4,8 km/h (1 Bft)
06.09.2024 22:43 24,8 °C 19,7 °C 50 % 66 % 1013,0 hPa 0,0 l/m² 3,3 km/h (1 Bft) O 82 ° 0 min 0 W/m² 13,2 °C 19,7 °C 4,8 km/h (1 Bft)
06.09.2024 22:44 24,8 °C 19,7 °C 50 % 66 % 1013,0 hPa 0,0 l/m² 3,5 km/h (1 Bft) O 82 ° 0 min 0 W/m² 13,2 °C 19,7 °C 4,8 km/h (1 Bft)
06.09.2024 22:45 24,8 °C 19,7 °C 50 % 66 % 1012,9 hPa 0,0 l/m² 3,5 km/h (1 Bft) O 82 ° 0 min 0 W/m² 13,2 °C 19,7 °C 4,8 km/h (1 Bft)
06.09.2024 22:46 24,8 °C 19,7 °C 50 % 66 % 1012,9 hPa 0,0 l/m² 3,7 km/h (1 Bft) O 82 ° 0 min 0 W/m² 13,2 °C 19,7 °C 4,8 km/h (1 Bft)
06.09.2024 22:47 24,8 °C 19,7 °C 50 % 66 % 1013,0 hPa 0,0 l/m² 2,8 km/h (1 Bft) O 82 ° 0 min 0 W/m² 13,2 °C 19,7 °C 3,2 km/h (1 Bft)
06.09.2024 22:48 24,8 °C 19,7 °C 50 % 65 % 1012,9 hPa 0,0 l/m² 3,2 km/h (1 Bft) O 82 ° 0 min 0 W/m² 12,9 °C 19,7 °C 3,2 km/h (1 Bft)
06.09.2024 22:49 24,8 °C 19,7 °C 50 % 65 % 1013,0 hPa 0,0 l/m² 3,4 km/h (1 Bft) O 82 ° 0 min 0 W/m² 12,9 °C 19,7 °C 4,8 km/h (1 Bft)
06.09.2024 22:50 24,8 °C 19,7 °C 50 % 65 % 1013,0 hPa 0,0 l/m² 3,2 km/h (1 Bft) O 82 ° 0 min 0 W/m² 12,9 °C 19,7 °C 4,8 km/h (1 Bft)
06.09.2024 22:51 24,8 °C 19,7 °C 50 % 65 % 1013,0 hPa 0,0 l/m² 2,7 km/h (1 Bft) O 82 ° 0 min 0 W/m² 12,9 °C 19,7 °C 3,2 km/h (1 Bft)
06.09.2024 22:52 24,8 °C 19,7 °C 50 % 66 % 1013,0 hPa 0,0 l/m² 3,1 km/h (1 Bft) O 82 ° 0 min 0 W/m² 13,2 °C 19,7 °C 4,8 km/h (1 Bft)
06.09.2024 22:53 24,8 °C 19,7 °C 50 % 66 % 1013,0 hPa 0,0 l/m² 2,7 km/h (1 Bft) O 82 ° 0 min 0 W/m² 13,2 °C 19,7 °C 3,2 km/h (1 Bft)
06.09.2024 22:54 24,8 °C 19,7 °C 50 % 66 % 1013,0 hPa 0,0 l/m² 3,0 km/h (1 Bft) O 82 ° 0 min 0 W/m² 13,2 °C 19,7 °C 3,2 km/h (1 Bft)
06.09.2024 22:55 24,8 °C 19,7 °C 50 % 66 % 1013,0 hPa 0,0 l/m² 2,7 km/h (1 Bft) O 82 ° 0 min 0 W/m² 13,2 °C 19,7 °C 3,2 km/h (1 Bft)
06.09.2024 22:56 24,8 °C 19,7 °C 50 % 66 % 1013,0 hPa 0,0 l/m² 2,9 km/h (1 Bft) O 82 ° 0 min 0 W/m² 13,2 °C 19,7 °C 3,2 km/h (1 Bft)
06.09.2024 22:57 24,8 °C 19,7 °C 50 % 66 % 1012,9 hPa 0,0 l/m² 3,1 km/h (1 Bft) O 82 ° 0 min 0 W/m² 13,2 °C 19,7 °C 3,2 km/h (1 Bft)
06.09.2024 22:58 24,8 °C 19,7 °C 50 % 66 % 1013,0 hPa 0,0 l/m² 3,7 km/h (1 Bft) O 82 ° 0 min 0 W/m² 13,2 °C 19,7 °C 4,8 km/h (1 Bft)
06.09.2024 22:59 24,8 °C 19,7 °C 50 % 66 % 1013,0 hPa 0,0 l/m² 2,9 km/h (1 Bft) O 82 ° 0 min 0 W/m² 13,2 °C 19,7 °C 3,2 km/h (1 Bft)
06.09.2024 23:00 24,8 °C 19,7 °C 51 % 66 % 1013,0 hPa 0,0 l/m² 3,3 km/h (1 Bft) O 82 ° 0 min 0 W/m² 13,2 °C 19,7 °C 4,8 km/h (1 Bft)
06.09.2024 23:01 24,8 °C 19,6 °C 51 % 66 % 1013,0 hPa 0,0 l/m² 3,2 km/h (1 Bft) O 82 ° 0 min 0 W/m² 13,1 °C 19,6 °C 4,8 km/h (1 Bft)
06.09.2024 23:02 24,8 °C 19,6 °C 51 % 66 % 1013,0 hPa 0,0 l/m² 3,4 km/h (1 Bft) O 81 ° 0 min 0 W/m² 13,1 °C 19,6 °C 4,8 km/h (1 Bft)
06.09.2024 23:03 24,8 °C 19,5 °C 51 % 66 % 1012,9 hPa 0,0 l/m² 3,6 km/h (1 Bft) O 81 ° 0 min 0 W/m² 13,0 °C 19,5 °C 4,8 km/h (1 Bft)
06.09.2024 23:04 24,8 °C 19,5 °C 51 % 66 % 1013,0 hPa 0,0 l/m² 3,4 km/h (1 Bft) O-NO 78 ° 0 min 0 W/m² 13,0 °C 19,5 °C 4,8 km/h (1 Bft)
06.09.2024 23:05 24,8 °C 19,5 °C 51 % 66 % 1012,9 hPa 0,0 l/m² 3,3 km/h (1 Bft) O-NO 74 ° 0 min 0 W/m² 13,0 °C 19,5 °C 4,8 km/h (1 Bft)
06.09.2024 23:06 24,8 °C 19,5 °C 51 % 66 % 1012,9 hPa 0,0 l/m² 3,3 km/h (1 Bft) O-NO 68 ° 0 min 0 W/m² 13,0 °C 19,5 °C 4,8 km/h (1 Bft)
06.09.2024 23:07 24,8 °C 19,5 °C 51 % 65 % 1012,9 hPa 0,0 l/m² 2,9 km/h (1 Bft) O-NO 68 ° 0 min 0 W/m² 12,7 °C 19,5 °C 4,8 km/h (1 Bft)
06.09.2024 23:08 24,8 °C 19,6 °C 51 % 65 % 1012,9 hPa 0,0 l/m² 3,0 km/h (1 Bft) O-NO 69 ° 0 min 0 W/m² 12,8 °C 19,6 °C 4,8 km/h (1 Bft)
06.09.2024 23:09 24,8 °C 19,6 °C 51 % 65 % 1012,8 hPa 0,0 l/m² 3,4 km/h (1 Bft) O-NO 69 ° 0 min 0 W/m² 12,8 °C 19,6 °C 4,8 km/h (1 Bft)
06.09.2024 23:10 24,8 °C 19,5 °C 51 % 65 % 1012,8 hPa 0,0 l/m² 3,5 km/h (1 Bft) O-NO 69 ° 0 min 0 W/m² 12,7 °C 19,5 °C 4,8 km/h (1 Bft)
06.09.2024 23:11 24,8 °C 19,5 °C 51 % 66 % 1012,8 hPa 0,0 l/m² 3,6 km/h (1 Bft) O-NO 69 ° 0 min 0 W/m² 13,0 °C 19,5 °C 4,8 km/h (1 Bft)
06.09.2024 23:12 24,8 °C 19,4 °C 51 % 67 % 1012,9 hPa 0,0 l/m² 3,0 km/h (1 Bft) O-NO 69 ° 0 min 0 W/m² 13,1 °C 19,4 °C 3,2 km/h (1 Bft)
06.09.2024 23:13 24,8 °C 19,3 °C 51 % 67 % 1012,8 hPa 0,0 l/m² 2,3 km/h (1 Bft) O-NO 69 ° 0 min 0 W/m² 13,0 °C 19,3 °C 3,2 km/h (1 Bft)
06.09.2024 23:14 24,8 °C 19,3 °C 51 % 67 % 1012,8 hPa 0,0 l/m² 2,4 km/h (1 Bft) O-NO 69 ° 0 min 0 W/m² 13,0 °C 19,3 °C 3,2 km/h (1 Bft)
06.09.2024 23:15 24,8 °C 19,3 °C 51 % 67 % 1012,9 hPa 0,0 l/m² 2,3 km/h (1 Bft) O-NO 69 ° 0 min 0 W/m² 13,0 °C 19,3 °C 3,2 km/h (1 Bft)
06.09.2024 23:16 24,8 °C 19,3 °C 51 % 67 % 1013,0 hPa 0,0 l/m² 3,2 km/h (1 Bft) O-NO 67 ° 0 min 0 W/m² 13,0 °C 19,3 °C 3,2 km/h (1 Bft)
06.09.2024 23:17 24,8 °C 19,3 °C 51 % 68 % 1012,8 hPa 0,0 l/m² 3,2 km/h (1 Bft) O-NO 67 ° 0 min 0 W/m² 13,2 °C 19,3 °C 4,8 km/h (1 Bft)
06.09.2024 23:18 24,8 °C 19,2 °C 51 % 68 % 1012,9 hPa 0,0 l/m² 1,6 km/h (1 Bft) O-NO 67 ° 0 min 0 W/m² 13,1 °C 19,2 °C 1,6 km/h (1 Bft)
06.09.2024 23:19 24,8 °C 19,2 °C 51 % 68 % 1012,8 hPa 0,0 l/m² 1,6 km/h (1 Bft) O-NO 67 ° 0 min 0 W/m² 13,1 °C 19,2 °C 3,2 km/h (1 Bft)
06.09.2024 23:20 24,8 °C 19,2 °C 51 % 68 % 1012,8 hPa 0,0 l/m² 1,6 km/h (1 Bft) O-NO 67 ° 0 min 0 W/m² 13,1 °C 19,2 °C 3,2 km/h (1 Bft)
06.09.2024 23:26 24,8 °C 18,9 °C 51 % 70 % 1012,9 hPa 0,0 l/m² 0,0 km/h (0 Bft) O-NO 69 ° 0 min 0 W/m² 13,3 °C 18,9 °C 0,0 km/h (0 Bft)
06.09.2024 23:28 24,8 °C 18,9 °C 51 % 70 % 1012,9 hPa 0,0 l/m² 0,0 km/h (0 Bft) O-NO 69 ° 0 min 0 W/m² 13,3 °C 18,9 °C 0,0 km/h (0 Bft)
06.09.2024 23:30 24,8 °C 18,8 °C 51 % 71 % 1012,9 hPa 0,0 l/m² 0,0 km/h (0 Bft) O-NO 69 ° 0 min 0 W/m² 13,4 °C 18,8 °C 0,0 km/h (0 Bft)
06.09.2024 23:31 24,8 °C 18,8 °C 51 % 71 % 1012,9 hPa 0,0 l/m² 0,0 km/h (0 Bft) O-NO 69 ° 0 min 0 W/m² 13,4 °C 18,8 °C 0,0 km/h (0 Bft)
06.09.2024 23:32 24,8 °C 18,7 °C 51 % 71 % 1012,9 hPa 0,0 l/m² 0,0 km/h (0 Bft) O-NO 69 ° 0 min 0 W/m² 13,3 °C 18,7 °C 0,0 km/h (0 Bft)
06.09.2024 23:35 24,8 °C 18,6 °C 51 % 71 % 1012,9 hPa 0,0 l/m² 0,0 km/h (0 Bft) O-NO 69 ° 0 min 0 W/m² 13,2 °C 18,6 °C 0,0 km/h (0 Bft)
06.09.2024 23:37 24,8 °C 18,5 °C 51 % 71 % 1012,9 hPa 0,0 l/m² 0,0 km/h (0 Bft) O-NO 69 ° 0 min 0 W/m² 13,1 °C 18,5 °C 0,0 km/h (0 Bft)
06.09.2024 23:39 24,8 °C 18,4 °C 51 % 70 % 1012,9 hPa 0,0 l/m² 0,0 km/h (0 Bft) O-NO 69 ° 0 min 0 W/m² 12,8 °C 18,4 °C 0,0 km/h (0 Bft)
06.09.2024 23:40 24,7 °C 18,3 °C 51 % 70 % 1013,0 hPa 0,0 l/m² 0,0 km/h (0 Bft) O-NO 69 ° 0 min 0 W/m² 12,7 °C 18,3 °C 0,0 km/h (0 Bft)
06.09.2024 23:41 24,8 °C 18,3 °C 51 % 70 % 1013,0 hPa 0,0 l/m² 0,0 km/h (0 Bft) O-NO 69 ° 0 min 0 W/m² 12,7 °C 18,3 °C 0,0 km/h (0 Bft)
06.09.2024 23:42 24,8 °C 18,3 °C 51 % 70 % 1013,0 hPa 0,0 l/m² 0,0 km/h (0 Bft) O-NO 69 ° 0 min 0 W/m² 12,7 °C 18,3 °C 0,0 km/h (0 Bft)
06.09.2024 23:44 24,7 °C 18,2 °C 51 % 70 % 1012,9 hPa 0,0 l/m² 0,0 km/h (0 Bft) O-NO 69 ° 0 min 0 W/m² 12,6 °C 18,2 °C 0,0 km/h (0 Bft)
06.09.2024 23:45 24,8 °C 18,2 °C 51 % 70 % 1013,0 hPa 0,0 l/m² 0,0 km/h (0 Bft) O-NO 69 ° 0 min 0 W/m² 12,6 °C 18,2 °C 0,0 km/h (0 Bft)
06.09.2024 23:47 24,8 °C 18,2 °C 51 % 70 % 1012,9 hPa 0,0 l/m² 0,0 km/h (0 Bft) O-NO 69 ° 0 min 0 W/m² 12,6 °C 18,2 °C 0,0 km/h (0 Bft)
06.09.2024 23:49 24,8 °C 18,1 °C 51 % 70 % 1013,0 hPa 0,0 l/m² 0,0 km/h (0 Bft) O-NO 69 ° 0 min 0 W/m² 12,5 °C 18,1 °C 0,0 km/h (0 Bft)
06.09.2024 23:50 24,7 °C 17,9 °C 51 % 70 % 1013,0 hPa 0,0 l/m² 0,0 km/h (0 Bft) O-NO 69 ° 0 min 0 W/m² 12,3 °C 17,9 °C 0,0 km/h (0 Bft)
06.09.2024 23:51 24,8 °C 17,8 °C 51 % 71 % 1012,9 hPa 0,0 l/m² 0,0 km/h (0 Bft) O-NO 69 ° 0 min 0 W/m² 12,5 °C 17,8 °C 0,0 km/h (0 Bft)
06.09.2024 23:52 24,8 °C 17,7 °C 51 % 72 % 1012,9 hPa 0,0 l/m² 0,0 km/h (0 Bft) O-NO 69 ° 0 min 0 W/m² 12,6 °C 17,7 °C 0,0 km/h (0 Bft)
06.09.2024 23:55 24,7 °C 17,4 °C 51 % 73 % 1013,0 hPa 0,0 l/m² 0,0 km/h (0 Bft) O-NO 69 ° 0 min 0 W/m² 12,5 °C 17,4 °C 0,0 km/h (0 Bft)
06.09.2024 23:57 24,7 °C 17,3 °C 51 % 73 % 1012,9 hPa 0,0 l/m² 0,0 km/h (0 Bft) O-NO 69 ° 0 min 0 W/m² 12,4 °C 17,3 °C 0,0 km/h (0 Bft)
06.09.2024 23:59 24,7 °C 17,4 °C 52 % 72 % 1013,0 hPa 0,0 l/m² 0,0 km/h (0 Bft) O-NO 69 ° 0 min 0 W/m² 12,3 °C 17,4 °C 0,0 km/h (0 Bft)
_ Min-Zeit 06:49 23:57 07:12 14:18 17:31 - 23:59 - - - - 19:34 23:57 23:59
Minimum _ 23,9 °C 17,3 °C 49 % 30 % 1011,3 hPa - 0,0 km/h (0 Bft) - - - - 10,0 °C 17,3 °C 0,0 km/h (0 Bft)
_ Max-Zeit 22:02 15:24 18:09 23:57 22:34 23:59 14:32 - - 18:07 13:10 21:44 15:22 15:18
Maximum _ 25,1 °C 31,7 °C 58 % 73 % 1013,1 hPa 0,0 l/m² 26,2 km/h
O (4 Bft)
- - 2 min 737 W/m² 14,3 °C 31,5 °C 33,8 km/h
O (5 Bft)
Durchschnitt _ 24,5 °C 24,6 °C 53 % 49 % 1012,2 hPa #0,0 l/m² 9,9 km/h (2 Bft) O-NO - #11:03 h 221 W/m² 12,4 °C 24,0 °C 15,3 km/h (3 Bft)
© 2009 Mathias Hoßbach